[[{"header":{"parameterUnit":"m.s-1","parameterCategory":1,"la1":31.0,"la2":29.5877,"lo1":-88.7671,"lo2":-86.6584,"dy":0.0162,"dx":0.0185,"nx":115,"ny":88,"refTime":"2024-08-30T12:00:00:Z","depth":0,"parameterNumber":2,"parameterNumberName":"U-component_of_WINDS"},"data":[0.0,0.0,0.0,0.0,0.0,0.0,0.0,0.0,0.0,0.0,0.0,0.0,0.0,0.0,0.0,0.0,0.0,0.0,0.0,0.0,0.0,0.0,0.0,0.0,0.0,0.0,0.0,0.0,0.0,0.0,0.0,0.0,0.0,0.0,0.0,0.0,0.0,0.0,0.0,0.0,0.0,0.0,0.0,0.0,0.0,0.0,0.0,0.0,0.0,0.0,0.0,0.0,0.0,0.0,0.0,0.0,0.0,0.0,0.0,0.0,0.0,0.0,0.0,0.0,0.0,0.0,0.0,0.0,0.0,0.0,0.0,0.0,0.0,0.0,0.0,0.0,0.0,0.0,0.0,0.0,0.0,0.0,0.0,0.0,0.0,0.0,0.0,0.0,0.0,0.0,0.0,0.0,0.0,0.0,0.0,0.0,0.0,0.0,0.0,0.0,0.0,0.0,0.0,0.0,0.0,0.0,0.0,0.0,0.0,0.0,0.0,0.0,0.0,0.0,0.0,0.0,0.0,0.0,0.0,0.0,0.0,0.0,0.0,0.0,0.0,0.0,0.0,0.0,0.0,0.0,0.0,0.0,0.0,0.0,0.0,0.0,0.0,0.0,0.0,0.0,0.0,0.0,0.0,0.0,0.0,0.0,0.0,0.0,0.0,0.0,0.0,0.0,0.0,0.0,0.0,0.0,0.0,0.0,0.0,0.0,0.0,0.0,0.0,0.0,0.0,0.0,0.0,0.0,0.0,0.0,0.0,0.0,0.0,0.0,0.0,0.0,0.0,0.0,0.0,0.0,0.0,0.0,0.0,0.0,0.0,0.0,0.0,0.0,0.0,0.0,0.0,0.0,0.0,0.0,0.0,0.0,0.0,0.0,0.0,0.0,0.0,0.0,0.0,0.0,0.0,0.0,0.0,0.0,0.0,0.0,0.0,0.0,0.0,0.0,0.0,0.0,0.0,0.0,0.0,0.0,0.0,0.0,0.0,0.0,0.0,0.0,0.0,0.0,0.0,0.0,0.0,0.0,0.0,0.0,0.0,0.0,0.0,0.0,0.0,0.0,0.0,0.0,0.0,0.0,0.0,0.0,0.0,0.0,0.0,0.0,0.0,0.0,0.0,0.0,0.0,0.0,0.0,0.0,0.0,0.0,0.0,0.0,0.0,0.0,0.0,0.0,0.0,0.0,0.0,0.0,0.0,0.0,0.0,0.0,0.0,0.0,0.0,0.0,0.0,0.0,0.0,0.0,0.0,0.0,0.0,0.0,0.0,0.0,0.0,0.0,0.0,0.0,0.0,0.0,0.0,0.0,0.0,0.0,0.0,0.0,0.0,0.0,0.0,0.0,0.0,0.0,0.0,0.0,0.0,0.0,0.0,0.0,0.0,0.0,0.0,0.0,0.0,0.0,0.0,0.0,0.0,0.0,0.0,0.0,0.0,0.0,0.0,0.0,0.0,0.0,0.0,0.0,0.0,0.0,0.0,0.0,0.0,0.0,0.0,0.0,0.0,0.0,0.0,0.0,0.0,0.0,0.0,0.0,0.0,0.0,0.0,0.0,0.0,0.0,0.0,0.0,0.0,0.0,0.0,0.0,0.0,0.0,0.0,0.0,0.0,0.0,0.0,0.0,0.0,0.0,0.0,0.0,0.0,0.0,0.0,0.0,0.0,0.0,0.0,0.0,0.0,0.0,0.0,0.0,0.0,0.0,0.0,0.0,0.0,0.0,0.0,0.0,0.0,0.0,0.0,0.0,0.0,0.0,0.0,0.0,0.0,0.0,0.0,0.0,0.0,0.0,0.0,0.0,0.0,0.0,0.0,0.0,0.0,0.0,0.0,0.0,0.0,0.0,0.0,0.0,0.0,0.0,0.0,0.0,0.0,0.0,0.0,0.0,0.0,0.0,0.0,0.0,0.0,0.0,0.0,0.0,0.0,0.0,0.0,0.0,0.0,0.0,0.0,0.0,0.0,0.0,0.0,0.0,0.0,0.0,0.0,0.0,0.0,0.0,0.0,0.0,0.0,0.0,0.0,0.0,0.0,0.0,0.0,0.0,0.0,0.0,0.0,0.0,0.0,0.0,0.0,0.0,0.0,0.0,0.0,0.0,0.0,0.0,0.0,0.0,0.0,0.0,0.0,0.0,0.0,0.0,0.0,0.0,0.0,0.0,0.0,0.0,0.0,0.0,0.0,0.0,0.0,0.0,0.0,0.0,0.0,0.0,0.0,0.0,0.0,0.0,0.0,0.0,0.0,0.0,0.0,0.0,0.0,0.0,0.0,0.0,0.0,0.0,0.0,0.0,0.0,0.0,0.0,0.0,0.0,0.0,0.0,0.0,0.0,0.0,0.0,0.0,0.0,0.0,0.0,0.0,0.0,0.0,0.0,0.0,0.0,0.0,0.0,0.0,0.0,0.0,0.0,0.0,0.0,0.0,0.0,0.0,0.0,0.0,0.0,0.0,0.0,0.0,0.0,0.0,0.0,0.0,0.0,0.0,0.0,0.0,0.0,0.0,0.0,0.0,0.0,0.0,0.0,0.0,0.0,0.0,0.0,0.0,0.0,0.0,0.0,0.0,0.0,0.0,0.0,0.0,0.0,0.0,0.0,0.0,0.0,0.0,0.0,0.0,0.0,0.0,0.0,0.0,0.0,0.0,0.0,0.0,0.0,0.0,0.0,0.0,0.0,0.0,0.0,0.0,0.0,0.0,0.0,0.0,0.0,0.0,0.0,0.0,0.0,0.0,0.0,0.0,0.0,0.0,0.0,0.0,0.0,0.0,0.0,0.0,0.0,0.0,0.0,0.0,0.0,0.0,0.0,0.0,0.0,0.0,0.0,0.0,0.0,0.0,0.0,0.0,0.0,0.0,0.0,0.0,0.0,0.0,0.0,0.0,0.0,0.0,0.0,0.0,0.0,0.0,0.0,0.0,0.0,0.0,0.0,0.0,0.0,0.0,0.0,0.0,0.0,0.0,0.0,0.0,0.0,0.0,0.0,0.0,0.0,0.0,0.0,0.0,0.0,0.0,0.0,0.0,0.0,0.0,0.0,0.0,0.0,0.0,0.0,0.0,0.0,0.0,0.0,0.0,0.0,0.0,0.0,0.0,0.0,0.0,0.0,0.0,0.0,0.0,0.0,0.0,0.0,0.0,0.0,0.0,0.0,0.0,0.0,0.0,0.0,0.0,0.0,0.0,0.0,0.0,0.0,0.0,0.0,0.0,0.0,0.0,0.0,0.0,0.0,0.0,0.0,0.0,0.0,0.0,0.0,0.0,0.0,0.0,0.0,0.0,0.0,0.0,0.0,0.0,0.0,0.0,0.0,0.0,0.0,0.0,0.0,0.0,0.0,0.0,0.0,0.0,0.0,0.0,0.0,0.0,0.0,0.0,0.0,0.0,0.0,0.0,0.0,0.0,0.0,0.0,0.0,0.0,0.0,0.0,0.0,0.0,0.0,0.0,0.0,0.0,0.0,0.0,0.0,0.0,0.0,0.0,0.0,0.0,0.0,0.0,0.0,0.0,0.0,0.0,0.0,0.0,0.0,0.0,0.0,0.0,0.0,0.0,0.0,0.0,0.0,0.0,0.0,0.0,0.0,0.0,0.0,0.0,0.0,0.0,0.0,0.0,0.0,0.0,0.0,0.0,0.0,0.0,0.0,0.0,0.0,0.0,0.0,0.0,0.0,0.0,0.0,0.0,0.0,0.0,0.0,0.0,0.0,0.0,0.0,0.0,0.0,0.0,0.0,0.0,0.0,0.0,0.0,0.0,0.0,0.0,0.0,0.0,0.0,0.0,0.0,0.0,0.0,0.0,0.0,0.0,0.0,0.0,0.0,0.0,0.0,0.0,0.0,0.0,0.0,0.0,0.0,0.0,0.0,0.0,0.0,0.0,0.0,0.0,0.0,0.0,0.0,0.0,0.0,0.0,0.0,0.0,0.0,0.0,0.0,0.0,0.0,0.0,0.0,0.0,0.0,0.0,0.0,0.0,0.0,0.0,0.0,0.0,0.0,0.0,0.0,0.0,0.0,0.0,0.0,0.0,0.0,0.0,0.0,0.0,0.0,0.0,0.0,0.0,0.0,0.0,0.0,0.0,0.0,0.0,0.0,0.0,0.0,0.0,0.0,0.0,0.0,0.0,0.0,0.0,0.0,0.0,0.0,0.0,0.0,0.0,0.0,0.0,0.0,0.0,0.0,0.0,0.0,0.0,0.0,0.0,0.0,0.0,0.0,0.0,0.0,0.0,0.0,0.0,0.0,0.0,0.0,0.0,0.6262,0.0,0.0,0.0,0.0,0.0,0.0,0.0,0.0,0.0,0.0,0.0,0.0,0.0,0.0,0.0,0.0,0.0,0.0,0.0,0.0,0.0,0.0,0.0,0.0,0.0,0.0,0.0,0.0,0.0,0.0,0.0,0.0,0.0,0.0,0.0,0.0,0.0,0.0,0.0,0.0,0.0,0.0,0.0,0.0,0.0,0.0,0.0,0.0,0.0,0.0,0.0,0.0,0.0,0.0,0.0,0.0,0.0,0.0,0.0,0.0,0.0,0.0,0.0,0.0,0.0,0.0,0.0,0.0,0.0,0.0,0.0,0.0,0.0,0.0,0.0,0.0,0.0,0.0,0.0,0.0,0.0,0.0,0.0,0.0,0.0,0.0,0.0,0.0,0.0,0.0,0.0,0.0,0.0,0.0,0.0,0.0,0.0,0.0,0.0,0.0,0.0,0.0,0.0,0.0,0.0,0.0,0.0,0.0,0.0,0.0,0.6612,0.6651,0.6491,0.6286,0.611,0.0,0.0,0.0,0.0,0.0,0.0,0.0,0.0,0.0,0.0,0.0,0.0,0.0,0.0,0.0,0.0,0.0,0.0,0.0,0.0,0.0,0.0,0.0,0.0,0.0,0.0,0.0,0.0,0.0,0.0,0.0,0.0,0.0,0.0,0.0,0.0,0.0,0.0,0.0,0.0,0.0,0.0,0.0,0.0,0.0,0.0,0.0,0.0,0.0,0.0,0.0,0.0,0.0,0.0,0.0,0.0,0.0,0.0,0.0,0.0,0.0,0.0,0.0,0.0,0.0,0.0,0.0,0.0,0.0,0.0,0.0,0.0,0.0,0.0,0.0,0.0,0.0,0.0,0.0,0.0,0.0,0.0,0.0,0.0,0.0,0.0,0.0,0.0,0.0,0.0,0.0,0.0,0.0,0.0,0.0,0.0,0.0,0.0,0.0,0.0,0.0,0.0,0.0,0.0,0.0,0.0,0.0,0.0,0.0,0.0,0.0,0.0,0.635,0.6234,0.6115,0.0,0.0,0.0,0.0,0.0,0.0,0.0,0.0,0.0,0.0,0.0,0.0,0.0,0.0,0.0,0.0,0.0,0.0,0.0,0.0,0.0,0.0,0.0,0.0,0.0,0.0,0.0,0.0,0.0,0.0,0.0,0.0,0.0,0.0,0.0,0.0,0.0,0.0,0.0,0.0,0.0,0.0,0.0,0.0,0.0,0.0,0.0,0.0,0.0,0.0,0.0,0.0,0.0,0.0,0.0,0.0,0.0,0.0,0.0,0.0,0.0,0.0,0.0,0.0,0.0,0.0,0.0,0.0,0.0,0.0,0.0,0.0,0.0,0.0,0.0,0.0,0.0,0.0,0.0,0.0,0.0,0.0,0.0,0.0,0.0,0.0,0.0,0.0,0.0,0.0,0.0,0.0,0.0,0.0,0.0,0.0,0.0,0.0,0.0,0.0,0.0,0.0,0.0,0.0,0.0,0.0,0.0,0.0,0.0,0.0,0.6183,0.6079,0.6389,0.0,0.6463,0.0,0.0,0.0,0.0,0.0,0.0,0.0,0.0,0.0,0.0,0.0,0.0,0.0,0.0,0.0,0.0,0.0,0.0,0.0,0.0,0.0,0.0,0.0,0.0,0.0,0.0,0.0,0.0,0.0,0.0,0.0,0.0,0.0,0.0,0.0,0.0,0.0,0.0,0.0,0.0,0.0,0.0,0.0,0.0,0.0,0.0,0.0,0.0,0.0,0.0,0.0,0.0,0.0,0.0,0.0,0.0,0.0,0.0,0.0,0.0,0.0,0.0,0.0,0.0,0.0,0.0,0.0,0.0,0.0,0.0,0.0,0.0,0.0,0.0,0.0,0.0,0.0,0.0,0.0,0.0,0.0,0.0,0.0,0.0,0.0,0.0,0.0,0.0,0.0,0.0,0.0,0.0,0.0,0.0,0.0,0.0,0.0,0.0,0.0,0.0,0.0,0.0,0.0,0.0,0.0,0.0,0.0,0.0,0.0,0.0,0.0,0.6468,0.6478,0.6481,0.0,0.0,0.0,0.0,0.0,0.0,0.0,0.0,0.0,0.0,0.0,0.0,0.0,0.0,0.0,0.0,0.0,0.0,0.0,0.0,0.0,0.0,0.0,0.0,0.0,0.0,0.0,0.0,0.0,0.0,0.0,0.0,0.0,0.0,0.0,0.0,0.0,0.0,0.0,0.0,0.0,0.0,0.0,0.0,0.0,0.0,0.0,0.0,0.0,0.0,0.0,0.0,0.0,0.0,0.0,0.0,0.0,0.0,0.0,0.0,0.0,0.0,0.0,0.0,0.0,0.0,0.0,0.0,0.0,0.0,0.0,0.0,0.0,0.0,0.0,0.0,0.0,0.0,0.0,0.0,0.0,0.0,0.0,0.0,0.0,0.0,0.0,0.0,0.0,0.0,0.0,0.0,0.0,0.0,0.0,0.0,0.0,0.0,0.0,0.0,0.0,0.0,0.0,0.0,0.0,0.0,0.0,0.0,0.0,0.0,0.6767,0.0,0.6948,0.6737,0.6586,0.6514,0.0,0.0,0.0,0.0,0.0,0.0,0.0,0.0,0.0,0.0,0.0,0.0,0.0,0.0,0.0,0.0,0.0,0.0,0.0,0.0,0.0,0.0,0.0,0.0,0.0,0.0,0.0,0.0,0.0,0.0,0.0,0.0,0.0,0.0,0.0,0.0,0.0,0.0,0.0,0.0,0.0,0.0,0.0,0.0,0.0,0.0,0.0,0.0,0.0,0.0,0.0,0.0,0.0,0.0,0.0,0.0,0.0,0.0,0.0,0.0,0.0,0.0,0.0,0.0,0.0,0.0,0.0,0.0,0.0,0.0,0.0,0.0,0.0,0.0,0.0,0.0,0.0,0.0,0.0,0.0,0.0,0.0,0.0,0.0,0.0,0.0,0.0,0.0,0.0,0.0,0.0,0.0,0.0,0.0,0.0,0.0,0.0,0.0,0.0,0.0,0.0,0.0,0.0,0.0,0.0,0.0,0.0,0.0,0.0,0.6893,0.7127,0.7361,0.7239,0.6946,0.0,0.0,0.0,0.0,0.0,0.0,0.0,0.0,0.0,0.0,0.0,0.0,0.0,0.0,0.0,0.0,0.0,0.0,0.0,0.0,0.0,0.0,0.0,0.0,0.0,0.0,0.0,0.0,0.0,0.0,0.0,0.0,0.0,0.0,0.0,0.0,0.0,0.0,0.0,0.0,0.0,0.0,0.0,0.0,0.0,0.0,0.0,0.0,0.0,0.0,0.0,0.0,0.0,0.0,0.0,0.0,0.0,0.0,0.0,0.0,0.0,0.0,0.0,0.0,0.0,0.0,0.0,0.0,0.0,0.0,0.0,0.0,0.0,0.0,0.0,0.0,0.0,0.0,0.0,0.0,0.0,0.0,0.0,0.0,0.0,0.0,0.0,0.0,0.0,0.0,0.0,0.0,0.0,0.0,0.0,0.0,0.0,0.0,0.0,0.0,0.0,0.0,0.0,0.0,0.0,0.0,0.0,0.0,0.0,0.6236,0.6553,0.7056,0.7654,0.7056,0.6635,0.0,0.0,0.0,0.0,0.0,0.0,0.0,0.0,0.0,0.0,0.0,0.0,0.0,0.0,0.0,0.0,0.0,0.0,0.0,0.0,0.0,0.0,0.0,0.0,0.0,0.0,0.0,0.0,0.0,0.0,0.0,0.0,0.0,0.0,0.0,0.0,0.0,0.0,0.0,0.0,0.0,0.0,0.0,0.0,0.0,0.0,0.0,0.0,0.0,0.0,0.0,0.0,0.0,0.0,0.0,0.0,0.0,0.0,0.0,0.0,0.0,0.0,0.0,0.0,0.0,0.0,0.0,0.0,0.0,0.0,0.0,0.0,0.0,0.0,0.0,0.0,0.0,0.0,0.0,0.0,0.0,0.0,0.0,0.0,0.0,0.0,0.0,0.0,0.0,0.0,0.0,0.0,0.0,0.0,0.0,0.0,0.0,0.0,0.0,0.0,0.0,0.0,0.0,0.0,0.0,0.0,0.0,0.0,0.0,0.6444,0.0,0.7292,0.0,0.705,0.6451,0.0,0.0,0.0,0.0,0.0,0.0,0.0,0.0,0.0,0.0,0.0,0.0,0.0,0.0,0.0,0.0,0.0,0.0,0.0,0.0,0.0,0.0,0.0,0.0,0.0,0.0,0.0,0.0,0.0,0.0,0.0,0.0,0.0,0.0,0.0,0.0,0.0,0.0,0.0,0.0,0.0,0.0,0.0,0.0,0.0,0.0,0.0,0.0,0.0,0.0,0.0,0.0,0.0,0.0,0.0,0.0,0.0,0.0,0.0,0.0,0.0,0.0,0.0,0.0,0.0,0.0,0.0,0.0,0.0,0.0,0.0,0.0,0.0,0.0,0.0,0.0,0.0,0.0,0.0,0.0,0.0,0.0,0.0,0.0,0.0,0.0,0.0,0.0,0.0,0.0,0.0,0.0,0.0,0.0,0.0,0.0,0.0,0.0,0.0,0.0,0.0,0.0,0.0,0.0,0.0,0.0,0.0,0.0,0.6445,0.7519,0.7869,0.783,0.745,0.7256,0.651,0.0,0.0,0.0,0.0,0.0,0.0,0.0,0.0,0.0,0.0,0.0,0.0,0.0,0.0,0.0,0.0,0.0,0.0,0.0,0.0,0.0,0.0,0.0,0.0,0.0,0.0,0.0,0.0,0.0,0.0,0.0,0.0,0.0,0.0,0.0,0.0,0.0,0.0,0.0,0.0,0.0,0.0,0.0,0.0,0.0,0.0,0.0,0.0,0.0,0.0,0.0,0.0,0.0,0.0,0.0,0.0,0.0,0.0,0.0,0.0,0.0,0.0,0.0,0.0,0.0,0.0,0.0,0.0,0.0,0.0,0.0,0.0,0.0,0.0,0.0,0.0,0.0,0.0,0.0,0.0,0.0,0.0,0.0,0.0,0.0,0.0,0.0,0.0,0.0,0.0,0.0,0.0,0.0,0.0,0.0,0.0,0.0,0.0,0.0,0.0,0.0,0.0,0.0,0.0,0.0,0.0,0.0,0.0,0.0,0.6836,0.7263,0.773,0.8161,0.7243,0.6662,0.0,0.0,0.0,0.0,0.0,0.0,0.0,0.0,0.0,0.0,0.0,0.0,0.0,0.0,0.0,0.0,0.0,0.0,0.0,0.0,0.0,0.0,0.0,0.0,0.0,0.0,0.0,0.0,0.0,0.0,0.0,0.0,0.0,0.0,0.0,0.0,0.0,0.0,0.0,0.0,0.0,0.0,0.0,0.0,0.0,0.0,0.0,0.0,0.0,0.0,0.0,0.0,0.0,0.0,0.0,0.0,0.0,0.0,0.0,0.0,0.0,0.0,0.0,0.0,0.0,0.0,0.0,0.0,0.0,0.0,0.0,0.0,0.0,0.0,0.0,0.0,0.0,0.0,0.0,0.0,0.0,0.0,0.0,0.0,0.0,0.0,0.0,0.0,0.0,0.0,0.0,0.0,0.0,0.0,0.0,0.0,0.0,0.0,0.0,0.0,0.0,0.0,0.0,0.0,0.0,0.0,0.0,0.0,0.0,0.6811,0.7462,0.7988,0.841,0.7471,0.6835,0.65,0.0,0.0,0.0,0.0,0.0,0.0,0.0,0.0,0.0,0.0,0.0,0.0,0.0,0.0,0.0,0.0,0.0,0.0,0.0,0.0,0.0,0.0,0.0,0.0,0.0,0.0,0.0,0.0,0.0,0.0,0.0,0.0,0.0,0.0,0.0,0.0,0.0,0.0,0.0,0.0,0.0,0.0,0.0,0.0,0.0,0.0,0.0,0.0,0.0,0.0,0.0,0.0,0.0,0.0,0.0,0.0,0.0,0.0,0.0,0.0,0.0,0.0,0.0,0.0,0.0,0.0,0.0,0.0,0.0,0.0,0.0,0.0,0.0,0.0,0.0,0.0,0.0,0.0,0.0,0.0,0.0,0.0,0.0,0.0,0.0,0.0,0.0,0.0,0.0,0.0,0.0,0.0,0.0,0.0,0.0,0.0,0.0,0.0,0.0,0.0,0.0,0.0,0.0,0.0,0.0,0.0,0.0,0.0,0.7279,0.829,0.8608,0.8184,0.7891,0.7067,0.0,0.0,0.0,0.0,0.0,0.0,0.0,0.0,0.0,0.0,0.0,0.0,0.0,0.0,0.0,0.0,0.0,0.0,0.0,0.0,0.0,0.0,0.0,0.0,0.0,0.0,0.0,0.0,0.0,0.0,0.0,0.0,0.0,0.0,0.0,0.0,0.0,0.0,0.0,0.0,0.0,0.0,0.0,0.0,0.0,0.0,0.0,0.0,0.0,0.0,0.0,0.0,0.0,0.0,0.0,0.0,0.0,0.0,0.0,0.0,0.0,0.0,0.0,0.0,0.0,0.0,0.0,0.0,0.0,0.0,0.0,0.0,0.0,0.0,0.0,0.0,0.0,0.0,0.0,0.0,0.0,0.0,0.0,0.0,0.0,0.0,0.0,0.0,0.0,0.0,0.0,0.0,0.0,0.0,0.0,0.0,0.0,0.0,0.0,0.0,0.0,0.0,0.0,0.0,0.0,0.0,0.0,0.0,0.0,0.7159,0.8424,0.9041,0.8904,0.7847,0.7243,0.0,0.0,0.0,0.0,0.0,0.0,0.0,0.0,0.0,0.0,0.0,0.0,0.0,0.0,0.0,0.0,0.0,0.0,0.0,0.0,0.0,0.0,0.0,0.0,0.0,0.0,0.0,0.0,0.0,0.0,0.0,0.0,0.0,0.0,0.0,0.0,0.0,0.0,0.0,0.0,0.0,0.0,0.0,0.0,0.0,0.0,0.0,0.0,0.0,0.0,0.0,0.0,0.0,0.0,0.0,0.0,0.0,0.0,0.0,0.0,0.0,0.0,0.0,0.0,0.0,0.0,0.0,0.0,0.0,0.0,0.0,0.0,0.0,0.0,0.0,0.0,0.0,0.0,0.0,0.0,0.0,0.0,0.0,0.0,0.0,0.0,0.0,0.0,0.0,0.0,0.0,0.0,0.0,0.0,0.0,0.0,0.0,0.0,0.0,0.0,0.0,0.0,0.0,0.0,0.0,0.0,0.0,0.0,0.6407,0.7337,0.8437,0.903,0.9031,0.8432,0.7809,0.0,0.0,0.0,0.0,0.0,0.0,0.0,0.0,0.0,0.0,0.0,0.0,0.0,0.0,0.0,0.0,0.0,0.0,0.0,0.0,0.0,0.0,0.0,0.0,0.0,0.0,0.0,0.0,0.0,0.0,0.0,0.0,0.0,0.0,0.0,0.0,0.0,0.0,0.0,0.0,0.0,0.0,0.0,0.0,0.0,0.0,0.0,0.0,0.0,0.0,0.0,0.0,0.0,0.0,0.0,0.0,0.0,0.0,0.0,0.0,0.0,0.0,0.0,0.0,0.0,0.0,0.0,0.0,0.0,0.0,0.0,0.0,0.0,0.0,0.0,0.0,0.0,0.0,0.0,0.0,0.0,0.0,0.0,0.0,0.0,0.0,0.0,0.0,0.0,0.0,0.0,0.0,0.0,0.0,0.0,0.0,0.0,0.0,0.0,0.0,0.0,0.0,0.0,0.0,0.0,0.0,0.0,0.0,0.67,0.7629,0.8423,0.8851,0.8868,0.9186,0.8469,0.0,0.0,0.0,0.0,0.0,0.0,0.0,0.0,0.0,0.0,0.0,0.0,0.0,0.0,0.0,0.0,0.0,0.0,0.0,0.0,0.0,0.0,0.0,0.0,0.0,0.0,0.0,0.0,0.0,0.0,0.0,0.0,0.0,0.0,0.0,0.0,0.0,0.0,0.0,0.0,0.0,0.0,0.0,0.0,0.0,0.0,0.0,0.0,0.0,0.0,0.0,0.0,0.0,0.0,0.0,0.0,0.0,0.0,0.0,0.0,0.0,0.0,0.0,0.0,0.0,0.0,0.0,0.0,0.0,0.0,0.0,0.0,0.0,0.0,0.0,0.0,0.0,0.0,0.0,0.0,0.0,0.0,0.0,0.0,0.0,0.0,0.0,0.0,0.0,0.0,0.0,0.0,0.0,0.0,0.0,0.0,0.0,0.0,0.0,0.0,0.0,0.0,0.0,0.0,0.0,0.0,0.0,0.0,0.6812,0.7311,0.854,0.9192,0.9197,0.8732,0.8,0.0,0.0,0.0,0.0,0.0,0.0,0.0,0.0,0.0,0.0,0.0,0.0,0.0,0.0,0.0,0.0,0.0,0.0,0.0,0.0,0.0,0.0,0.0,0.0,0.0,0.0,0.0,0.0,0.0,0.0,0.0,0.0,0.0,0.0,0.0,0.0,0.0,0.0,0.0,0.0,0.0,0.0,0.0,0.0,0.0,0.0,0.0,0.0,0.6931,0.0,0.0,0.0,0.0,0.0,0.0,0.0,0.0,0.0,0.0,0.0,0.0,0.0,0.0,0.0,0.0,0.0,0.0,0.0,0.0,0.0,0.0,0.0,0.0,0.0,0.0,0.0,0.0,0.0,0.0,0.0,0.0,0.0,0.0,0.0,0.0,0.0,0.0,0.0,0.0,0.0,0.0,0.0,0.0,0.0,0.0,0.0,0.0,0.0,0.0,0.0,0.0,0.0,0.0,0.0,0.0,0.0,0.0,0.0,0.6966,0.7611,0.8507,0.9055,0.921,0.8754,0.8016,0.0,0.0,0.0,0.0,0.0,0.0,0.0,0.0,0.0,0.0,0.0,0.0,0.0,0.0,0.0,0.0,0.0,0.0,0.0,0.0,0.0,0.0,0.0,0.0,0.0,0.0,0.0,0.0,0.0,0.0,0.0,0.0,0.0,0.0,0.0,0.0,0.0,0.0,0.0,0.0,0.0,0.0,0.0,0.0,0.0,0.0,0.0,0.0,0.0,0.0,0.0,0.0,0.0,0.0,0.0,0.0,0.0,0.0,0.0,0.0,0.0,0.0,0.0,0.0,0.0,0.0,0.0,0.0,0.0,0.0,0.0,0.0,0.0,0.0,0.0,0.0,0.0,0.0,0.0,0.0,0.0,0.0,0.0,0.0,0.0,0.0,0.0,0.0,0.0,0.0,0.0,0.0,0.0,0.0,0.0,0.0,0.0,0.0,0.0,0.0,0.0,0.0,0.0,0.0,0.0,0.0,0.0,0.6375,0.7025,0.7985,0.8397,0.8758,0.9093,0.8909,0.8155,0.6839,0.0,0.0,0.0,0.0,0.0,0.0,0.0,0.0,0.0,0.0,0.0,0.0,0.0,0.0,0.0,0.0,0.0,0.0,0.0,0.0,0.0,0.0,0.0,0.0,0.0,0.0,0.0,0.0,0.0,0.0,0.0,0.0,0.0,0.0,0.0,0.0,0.0,0.0,0.6183,0.6667,0.0,0.0,0.0,0.0,0.0,0.0,0.0,0.0,0.7031,0.0,0.0,0.0,0.0,0.0,0.0,0.0,0.0,0.0,0.0,0.0,0.0,0.0,0.0,0.0,0.0,0.0,0.0,0.0,0.0,0.0,0.0,0.0,0.0,0.0,0.0,0.0,0.0,0.0,0.0,0.0,0.0,0.0,0.0,0.0,0.0,0.0,0.0,0.0,0.0,0.0,0.0,0.0,0.0,0.0,0.0,0.0,0.0,0.0,0.0,0.0,0.0,0.0,0.0,0.0,0.0,0.6365,0.6375,0.6774,0.7653,0.83,0.8626,0.8699,0.8768,0.8138,0.6802,0.0,0.0,0.0,0.0,0.0,0.0,0.0,0.0,0.0,0.0,0.0,0.0,0.0,0.0,0.0,0.0,0.0,0.0,0.0,0.0,0.0,0.0,0.0,0.0,0.0,0.0,0.0,0.0,0.0,0.0,0.0,0.0,0.0,0.0,0.0,0.0,0.0,0.0,0.0,0.6178,0.6296,0.0,0.0,0.0,0.0,0.0,0.0,0.0,0.0,0.7075,0.0,0.0,0.0,0.0,0.0,0.0,0.0,0.0,0.0,0.0,0.0,0.0,0.0,0.0,0.0,0.0,0.0,0.0,0.0,0.0,0.0,0.0,0.0,0.0,0.0,0.0,0.0,0.0,0.0,0.0,0.0,0.0,0.0,0.0,0.0,0.0,0.0,0.0,0.0,0.0,0.0,0.0,0.0,0.0,0.0,0.0,0.0,0.0,0.0,0.0,0.0,0.0,0.0,0.0,0.0,0.5683,0.613,0.6672,0.7324,0.7791,0.8123,0.8336,0.807,0.7541,0.0,0.0,0.0,0.0,0.0,0.0,0.0,0.0,0.0,0.0,0.0,0.0,0.0,0.0,0.0,0.0,0.0,0.0,0.0,0.0,0.0,0.0,0.0,0.0,0.0,0.0,0.0,0.0,0.0,0.0,0.0,0.0,0.0,0.0,0.0,0.0,0.0,0.0,0.0,0.0,0.7036,0.7336,0.7405,0.0,0.0,0.0,0.0,0.0,0.0,0.7257,0.7036,0.0,0.0,0.0,0.0,0.0,0.0,0.0,0.0,0.0,0.0,0.0,0.0,0.0,0.0,0.0,0.0,0.0,0.0,0.0,0.0,0.0,0.0,0.0,0.0,0.0,0.0,0.0,0.0,0.0,0.0,0.0,0.0,0.0,0.0,0.0,0.0,0.0,0.0,0.0,0.0,0.0,0.0,0.0,0.0,0.0,0.0,0.0,0.0,0.0,0.0,0.0,0.0,0.0,0.0,0.0,0.4997,0.5831,0.6533,0.7079,0.7306,0.7576,0.7874,0.7388,0.6925,0.0,0.0,0.0,0.0,0.0,0.0,0.0,0.0,0.0,0.0,0.0,0.0,0.0,0.0,0.0,0.0,0.0,0.0,0.0,0.0,0.0,0.0,0.0,0.0,0.0,0.0,0.0,0.0,0.0,0.0,0.0,0.0,0.0,0.0,0.0,0.0,0.0,0.0,0.0,0.0,0.0,0.827,0.7977,0.8082,0.0,0.0,0.0,0.0,0.8082,0.7715,0.0,0.0,0.0,0.0,0.0,0.0,0.0,0.0,0.0,0.0,0.0,0.0,0.0,0.0,0.0,0.0,0.0,0.0,0.0,0.0,0.0,0.0,0.0,0.0,0.0,0.0,0.0,0.0,0.0,0.0,0.0,0.0,0.0,0.0,0.0,0.0,0.0,0.0,0.0,0.0,0.0,0.0,0.0,0.0,0.0,0.0,0.0,0.0,0.0,0.0,0.0,0.0,0.0,0.0,0.0,0.0,0.497,0.5455,0.615,0.7058,0.7139,0.7166,0.7208,0.7191,0.6721,0.0,0.0,0.0,0.0,0.0,0.0,0.0,0.0,0.0,0.0,0.0,0.0,0.0,0.0,0.0,0.0,0.0,0.0,0.0,0.0,0.0,0.0,0.0,0.0,0.0,0.0,0.0,0.0,0.0,0.0,0.0,0.0,0.0,0.0,0.0,0.0,0.0,0.0,0.0,0.0,0.0,0.7655,0.7714,0.7356,0.738,0.0,0.0,0.7997,0.8749,0.8814,0.0,0.0,0.0,0.0,0.0,0.0,0.0,0.0,0.0,0.0,0.0,0.0,0.0,0.0,0.0,0.0,0.0,0.0,0.0,0.0,0.0,0.0,0.0,0.0,0.0,0.0,0.0,0.0,0.0,0.0,0.0,0.0,0.0,0.0,0.0,0.0,0.0,0.0,0.0,0.0,0.0,0.0,0.0,0.0,0.0,0.0,0.0,0.0,0.0,0.0,0.0,0.0,0.0,0.0,0.0,0.3896,0.4642,0.5277,0.5935,0.656,0.6774,0.6877,0.6877,0.6558,0.6108,0.0,0.0,0.0,0.0,0.0,0.0,0.0,0.0,0.0,0.0,0.0,0.0,0.0,0.0,0.0,0.0,0.0,0.0,0.0,0.0,0.0,0.0,0.0,0.0,0.0,0.0,0.0,0.0,0.0,0.0,0.0,0.0,0.0,0.0,0.0,0.0,0.0,0.0,0.0,0.0,0.0,0.0,0.8544,0.8863,0.0,0.0,0.0,0.9582,0.9772,0.0,0.0,0.0,0.0,0.0,0.0,0.0,0.0,0.0,0.0,0.0,0.0,0.0,0.0,0.0,0.0,0.0,0.0,0.0,0.0,0.0,0.0,0.0,0.0,0.0,0.0,0.0,0.0,0.0,0.0,0.0,0.0,0.0,0.0,0.0,0.0,0.0,0.0,0.0,0.0,0.0,0.0,0.0,0.0,0.0,0.0,0.0,0.0,0.0,0.0,0.0,0.0,0.0,0.0,0.0,0.0,0.0,0.4409,0.5188,0.5799,0.6173,0.644,0.6571,0.6575,0.6086,0.0,0.0,0.0,0.0,0.0,0.0,0.0,0.0,0.0,0.0,0.0,0.0,0.0,0.0,0.0,0.0,0.0,0.0,0.0,0.0,0.0,0.0,0.0,0.0,0.0,0.0,0.0,0.2995,0.0,0.0,0.0,0.0,0.0,0.0,0.0,0.0,0.0,0.0,0.0,0.0,0.0,0.0,0.956,0.9072,0.9804,1.0146,0.0,0.0,1.0416,1.0354,1.0306,0.9812,0.0,0.0,0.0,0.0,0.0,0.0,0.0,0.0,0.0,0.0,0.0,0.0,0.0,0.0,0.0,0.0,0.0,0.0,0.0,0.0,0.0,0.0,0.0,0.0,0.0,0.0,0.0,0.0,0.0,0.0,0.0,0.0,0.0,0.0,0.0,0.0,0.0,0.0,0.0,0.0,0.0,0.0,0.0,0.0,0.0,0.0,0.0,0.0,0.0,0.0,0.0,0.0,0.0,0.0,0.0,0.4418,0.5188,0.5799,0.6173,0.6219,0.6232,0.6236,0.6021,0.5619,0.0,0.0,0.0,0.0,0.0,0.0,0.0,0.0,0.0,0.0,0.0,0.0,0.0,0.0,0.0,0.0,0.0,0.0,0.0,0.0,0.0,0.0,0.0,0.0,0.0,0.0,0.0,0.0,0.0,0.0,0.0,0.0,0.0,0.0,0.0,0.0,0.0,0.0,0.0,0.0,0.0,0.8362,0.8676,0.8901,0.9235,0.0,0.0,0.9445,1.0124,1.0221,0.9677,0.809,0.0,0.0,0.0,0.0,0.0,0.0,0.0,0.0,0.0,0.0,0.0,0.0,0.0,0.0,0.0,0.0,0.0,0.0,0.0,0.0,0.0,0.0,0.0,0.0,0.0,0.0,0.0,0.0,0.0,0.0,0.0,0.0,0.0,0.0,0.0,0.0,0.0,0.0,0.0,0.0,0.0,0.0,0.0,0.0,0.0,0.0,0.0,0.0,0.0,0.0,0.0,0.0,0.0,0.3937,0.4399,0.5199,0.5799,0.6182,0.6187,0.6187,0.6187,0.589,0.5457,0.0,0.0,0.0,0.0,0.0,0.0,0.0,0.0,0.0,0.0,0.0,0.0,0.0,0.0,0.0,0.0,0.0,0.0,0.0,0.0,0.0,0.0,0.0,0.0,0.0,0.0,0.0,0.0,0.3743,0.3802,0.4154,0.0,0.0,0.0,0.0,0.0,0.0,0.0,0.0,0.0,0.0,0.9261,0.953,0.9926,0.0,0.0,1.0403,1.0369,1.0655,1.0552,1.0044,0.8908,0.8574,0.0,0.0,0.0,0.0,0.0,0.0,0.0,0.0,0.0,0.0,0.0,0.0,0.0,0.0,0.0,0.0,0.0,0.0,0.0,0.0,0.0,0.0,0.0,0.0,0.0,0.0,0.0,0.0,0.0,0.0,0.0,0.0,0.0,0.0,0.0,0.0,0.0,0.0,0.0,0.0,0.0,0.0,0.0,0.0,0.0,0.0,0.0,0.0,0.0,0.0,0.0,0.0,0.3788,0.4164,0.4926,0.5465,0.5818,0.5814,0.5873,0.6014,0.5685,0.5318,0.0,0.0,0.0,0.0,0.0,0.0,0.0,0.0,0.0,0.0,0.0,0.0,0.0,0.0,0.0,0.0,0.0,0.0,0.0,0.0,0.0,0.0,0.0,0.0,0.0,0.0,0.0,0.0,0.3571,0.3597,0.3858,0.0,0.0,0.0,0.0,0.0,0.0,0.0,0.0,0.0,0.0,0.9473,0.9896,1.0304,1.0611,1.0653,1.0647,1.0615,1.0562,1.0302,0.9887,0.9171,0.0,0.0,0.0,0.0,0.0,0.0,0.0,0.0,0.0,0.0,0.0,0.0,0.0,0.0,0.0,0.0,0.0,0.0,0.0,0.0,0.0,0.0,0.0,0.0,0.0,0.0,0.0,0.4385,0.0,0.0,0.3794,0.0,0.0,0.0,0.0,0.0,0.0,0.0,0.0,0.0,0.0,0.0,0.0,0.0,0.0,0.0,0.0,0.0,0.0,0.0,0.0,0.0,0.0,0.3465,0.3619,0.4279,0.472,0.4934,0.4928,0.5166,0.5577,0.5399,0.5272,0.5171,0.0,0.0,0.0,0.0,0.0,0.0,0.0,0.0,0.0,0.0,0.0,0.0,0.0,0.0,0.0,0.0,0.0,0.0,0.0,0.0,0.0,0.0,0.0,0.0,0.0,0.0,0.3517,0.3372,0.3389,0.0,0.0,0.0,0.0,0.0,0.0,0.0,0.0,0.0,0.0,0.8239,0.8573,0.9446,0.9605,0.969,0.9879,0.9857,0.9755,0.9588,0.9276,0.8921,0.0,0.0,0.0,0.0,0.0,0.0,0.0,0.0,0.0,0.0,0.0,0.0,0.0,0.0,0.0,0.0,0.0,0.0,0.0,0.0,0.0,0.0,0.0,0.0,0.0,0.0,0.0,0.5049,0.48,0.0,0.0,0.0,0.0,0.0,0.0,0.0,0.0,0.0,0.0,0.0,0.4303,0.438,0.0,0.0,0.0,0.0,0.0,0.0,0.0,0.0,0.0,0.0,0.0,0.0,0.307,0.3333,0.3776,0.4204,0.4622,0.4639,0.4791,0.5117,0.4944,0.4743,0.4535,0.0,0.0,0.0,0.0,0.0,0.0,0.0,0.0,0.0,0.0,0.0,0.0,0.0,0.0,0.0,0.0,0.0,0.0,0.0,0.0,0.0,0.0,0.0,0.0,0.0,0.356,0.0,0.0,0.0,0.0,0.0,0.0,0.0,0.0,0.0,0.0,0.0,0.6251,0.7469,0.766,0.7877,0.8391,0.8475,0.8646,0.0,0.0,0.0,0.0,0.0,0.0,0.0,0.0,0.0,0.0,0.0,0.0,0.0,0.0,0.8374,0.781,0.7569,0.7425,0.7433,0.0,0.0,0.0,0.0,0.0,0.0,0.0,0.0,0.0,0.0,0.0,0.0,0.0,0.0,0.4998,0.0,0.4527,0.0,0.0,0.0,0.0,0.0,0.0,0.0,0.0,0.4271,0.4415,0.4481,0.4565,0.4312,0.0,0.3856,0.3605,0.0,0.0,0.0,0.0,0.0,0.0,0.0,0.0,0.2766,0.2904,0.3193,0.3523,0.3849,0.3879,0.4087,0.4512,0.4571,0.4493,0.4241,0.388,0.3697,0.0,0.0,0.0,0.0,0.0,0.0,0.0,0.0,0.0,0.0,0.0,0.0,0.0,0.0,0.0,0.0,0.0,0.0,0.0,0.0,0.0,0.0,0.0,0.3205,0.0,0.0,0.0,0.0,0.0,0.0,0.0,0.0,0.0,0.5555,0.5948,0.6523,0.749,0.759,0.7674,0.7961,0.0,0.0,0.0,0.0,0.0,0.0,0.0,0.8264,0.8731,0.8607,0.8492,0.8606,0.9007,0.9173,0.8672,0.0,0.0,0.8343,0.7959,0.7724,0.7732,0.7915,0.8045,0.8062,0.835,0.8609,0.0,0.0,0.0,0.0,0.0,0.0,0.0,0.0,0.4535,0.4427,0.0,0.4024,0.0,0.0,0.0,0.0,0.0,0.3509,0.0,0.0,0.4932,0.5041,0.4914,0.4675,0.4225,0.3652,0.4092,0.4002,0.3369,0.3048,0.0,0.0,0.0,0.0,0.0,0.0,0.2555,0.2309,0.2552,0.2675,0.2691,0.2705,0.3023,0.3738,0.4264,0.4426,0.4285,0.4182,0.4092,0.3923,0.3409,0.0,0.0,0.0,0.0,0.0,0.0,0.0,0.0,0.0,0.0,0.0,0.0,0.0,0.0,0.0,0.0,0.0,0.0,0.0,0.0,0.2826,0.0,0.0,0.0,0.0,0.0,0.0,0.0,0.0,0.0,0.0,0.6113,0.6371,0.6923,0.8005,0.0,0.0,0.0,0.0,0.786,0.7888,0.7872,0.7881,0.7928,0.7639,0.7549,0.7873,0.0,0.0,0.7884,0.8812,0.8937,0.7147,0.8281,0.9451,0.9151,0.8445,0.7926,0.7903,0.7761,0.7509,0.7516,0.7946,0.8235,0.6571,0.0,0.0,0.0,0.0,0.5787,0.5752,0.5664,0.5618,0.5371,0.4989,0.4902,0.0,0.0,0.0,0.0,0.0,0.0,0.371,0.4087,0.4136,0.4201,0.4223,0.4132,0.387,0.3468,0.3615,0.3473,0.304,0.2807,0.2834,0.3098,0.0,0.0,0.0,0.0,0.1994,0.2008,0.2032,0.216,0.2338,0.2352,0.2547,0.3009,0.331,0.3546,0.3726,0.3656,0.3774,0.4076,0.3825,0.0,0.0,0.0,0.0,0.0,0.0,0.0,0.0,0.0,0.0,0.0,0.0,0.0,0.0,0.0,0.0,0.0,0.0,0.0,0.3063,0.2886,0.2919,0.0,0.0,0.0,0.0,0.0,0.0,0.0,0.0,0.0,0.6166,0.636,0.6775,0.0,0.0,0.7072,0.7005,0.7046,0.7258,0.7683,0.7394,0.0,0.829,0.7963,0.7747,0.8115,0.798,0.7951,0.8333,0.8357,0.8211,0.7858,0.7967,0.8112,0.8221,0.8713,0.9011,0.9075,0.9021,0.897,0.8989,0.9063,0.9058,0.512,0.4902,0.578,0.6032,0.5853,0.5878,0.5786,0.5551,0.563,0.5443,0.5067,0.5067,0.4747,0.418,0.4088,0.0,0.0,0.0,0.3357,0.3545,0.3227,0.3122,0.3181,0.3136,0.2991,0.274,0.2644,0.2489,0.2276,0.2371,0.2487,0.2663,0.0,0.0,0.2224,0.1984,0.1866,0.1859,0.1827,0.188,0.2032,0.2156,0.2296,0.2493,0.2743,0.2983,0.3181,0.3345,0.3595,0.3914,0.3938,0.3785,0.0,0.0,0.0,0.0,0.0,0.0,0.0,0.0,0.0,0.0,0.0,0.247,0.0,0.0,0.0,0.0,0.2911,0.3125,0.3319,0.3404,0.0,0.0,0.0,0.0,0.0,0.0,0.0,0.5129,0.5667,0.6087,0.6294,0.6431,0.6687,0.7248,0.7027,0.6788,0.6785,0.0,0.6911,0.7225,0.6962,0.6947,0.7562,0.7463,0.7364,0.7647,0.775,0.77,0.7676,0.7723,0.7778,0.774,0.7616,0.7517,0.7542,0.8335,0.8923,0.8831,0.881,0.8889,0.9132,0.9208,0.9136,0.2853,0.3046,0.5246,0.5842,0.5379,0.5559,0.5198,0.4532,0.4769,0.4717,0.4502,0.4502,0.4342,0.4084,0.3963,0.0,0.3866,0.3184,0.2931,0.3032,0.2299,0.2005,0.2052,0.1951,0.1807,0.1659,0.1466,0.132,0.1273,0.1729,0.1917,0.1788,0.2033,0.2134,0.2101,0.211,0.201,0.1823,0.1821,0.1802,0.1797,0.2046,0.217,0.2184,0.2493,0.2661,0.2675,0.3149,0.3437,0.3464,0.3741,0.3694,0.3261,0.0,0.0,0.0,0.0,0.0,0.0,0.0,0.0,0.0,0.0,0.0,0.0,0.0,0.0,0.0,0.3221,0.0,0.3632,0.4049,0.0,0.0,0.0,0.3998,0.3891,0.4479,0.5013,0.5326,0.0,0.0,0.635,0.6411,0.6578,0.6954,0.6878,0.6872,0.7106,0.6933,0.6739,0.6696,0.6627,0.6566,0.6572,0.6608,0.6734,0.6891,0.7095,0.7095,0.6634,0.7085,0.7423,0.7038,0.7196,0.7374,0.719,0.7594,0.7839,0.7633,0.7653,0.7869,0.8424,0.858,0.861,0.2602,0.2636,0.3221,0.3343,0.3222,0.3891,0.3638,0.2785,0.3484,0.3385,0.2737,0.2737,0.2602,0.239,0.2357,0.2262,0.2103,0.1944,0.188,0.1889,0.1702,0.1666,0.1714,0.1696,0.1518,0.1248,0.118,0.1011,0.0707,0.0773,0.0793,0.0755,0.083,0.1287,0.2131,0.2075,0.2004,0.1961,0.1899,0.1855,0.1798,0.1866,0.1894,0.1908,0.2172,0.231,0.2324,0.2639,0.287,0.3041,0.3117,0.305,0.2771,0.2559,0.0,0.0,0.0,0.0,0.0,0.0,0.0,0.0,0.0,0.3245,0.2416,0.0,0.3024,0.0,0.2606,0.2872,0.3066,0.337,0.0,0.0,0.4207,0.4348,0.4608,0.4795,0.4919,0.5011,0.5566,0.5769,0.5265,0.5596,0.5708,0.5304,0.6056,0.664,0.6584,0.6687,0.6764,0.6753,0.6763,0.681,0.6708,0.6705,0.6696,0.6854,0.6749,0.6652,0.674,0.6851,0.6911,0.6781,0.6898,0.6966,0.6852,0.7005,0.7113,0.7116,0.7506,0.7942,0.8115,0.8149,0.824,0.1386,0.1385,0.1265,0.1182,0.1263,0.2601,0.2818,0.2331,0.2789,0.2734,0.2275,0.2198,0.2048,0.1842,0.1841,0.1784,0.1652,0.1263,0.109,0.1072,0.0731,0.0595,0.0623,0.0534,0.0389,0.0209,0.0155,0.0017,-0.0205,-0.0017,0.0098,0.0098,0.0323,0.078,0.1422,0.1564,0.1771,0.2002,0.1943,0.1896,0.185,0.1825,0.1797,0.1797,0.195,0.2018,0.2018,0.2277,0.2462,0.2575,0.2774,0.2741,0.2407,0.2357,0.2208,0.0,0.0,0.0,0.0,0.0,0.0,0.0,0.0,0.0,0.0,0.0,0.2704,0.2315,0.2631,0.2929,0.3097,0.3452,0.3714,0.3835,0.388,0.3928,0.4019,0.4161,0.4291,0.4314,0.4821,0.5028,0.4654,0.4891,0.4951,0.4445,0.4999,0.5476,0.5593,0.5697,0.5775,0.5792,0.5792,0.5786,0.5815,0.6061,0.626,0.6408,0.6511,0.6609,0.6802,0.6691,0.656,0.6572,0.6558,0.6527,0.6496,0.6449,0.6454,0.6503,0.6768,0.727,0.7869,0.8001,0.8078,-0.0066,-0.0109,-0.0342,-0.0446,-0.0318,0.1376,0.2106,0.2097,0.2239,0.2211,0.2083,0.1907,0.1706,0.1545,0.1545,0.1525,0.1445,0.0708,0.036,0.0322,-0.0372,-0.0679,-0.0677,-0.0842,-0.095,-0.0929,-0.1051,-0.1092,-0.1108,-0.0634,-0.0405,-0.0388,0.005,0.0319,0.0419,0.0799,0.1274,0.1797,0.181,0.1823,0.1793,0.1805,0.1805,0.1798,0.1797,0.1797,0.181,0.2033,0.2141,0.2136,0.2523,0.2532,0.2064,0.2126,0.2101,0.0,0.181,0.0,0.0,0.0,0.0,0.0,0.0,0.0,0.0,0.2288,0.2158,0.2417,0.2853,0.3141,0.3253,0.3672,0.3756,0.3319,0.3302,0.3239,0.2962,0.3212,0.3453,0.3526,0.3939,0.4209,0.4081,0.4183,0.4183,0.3867,0.3799,0.3931,0.423,0.4439,0.4548,0.4363,0.4372,0.4556,0.4615,0.5035,0.5453,0.5669,0.5948,0.6429,0.6465,0.6326,0.6223,0.6323,0.6236,0.615,0.6154,0.6024,0.592,0.5947,0.5991,0.6367,0.7315,0.7601,0.7757,-0.0424,-0.058,-0.0622,-0.0643,-0.0598,-0.0244,-0.0087,-0.0042,0.0835,0.0721,-0.0081,-0.0141,-0.024,-0.0353,-0.0392,-0.0471,-0.0706,-0.0879,-0.0936,-0.0955,-0.1087,-0.1131,-0.1091,-0.1128,-0.1153,-0.1149,-0.116,-0.1194,-0.1194,-0.1021,-0.0956,-0.0955,-0.085,-0.0571,-0.0168,0.0,0.0,0.0,0.1174,0.1347,0.1269,0.1653,0.1858,0.1798,0.1797,0.0,0.1794,0.1805,0.1786,0.1796,0.1828,0.0,0.0,0.0,0.0,0.0,0.0,0.0,0.0,0.0,0.0,0.0,0.1634,0.1721,0.2048,0.1929,0.1925,0.2091,0.2373,0.253,0.2509,0.2896,0.3071,0.2998,0.3029,0.3043,0.2985,0.3043,0.3116,0.3113,0.3511,0.3578,0.307,0.3257,0.3266,0.2761,0.2556,0.2564,0.2675,0.3425,0.3969,0.413,0.4062,0.4129,0.4185,0.4291,0.4407,0.4467,0.4539,0.4858,0.5235,0.5305,0.5526,0.5973,0.6139,0.6045,0.5953,0.5928,0.5868,0.5888,0.5884,0.5984,0.6245,0.6297,0.6331,-0.1109,0.0,-0.083,-0.0897,0.0,-0.0897,-0.0953,-0.0999,-0.0236,-0.0253,-0.0849,-0.0849,-0.0946,-0.1099,-0.1099,-0.1172,-0.1319,-0.1319,-0.1312,-0.1317,-0.1317,-0.1288,-0.1254,-0.1254,-0.1245,-0.1249,-0.1215,-0.1189,-0.1187,-0.1158,-0.1162,-0.116,-0.1112,-0.096,-0.0686,-0.0694,-0.0334,0.0444,0.073,0.0825,0.0771,0.1017,0.114,0.1122,0.1103,0.0,0.0,0.0,0.0,0.0,0.0,0.0,0.0,0.0,0.0,0.1552,0.1524,0.1492,0.1495,0.1513,0.1583,0.1684,0.1715,0.1728,0.1798,0.1858,0.1902,0.1954,0.2125,0.224,0.221,0.2405,0.2559,0.2561,0.2576,0.2593,0.2606,0.2626,0.2646,0.2632,0.287,0.2905,0.2551,0.2707,0.2745,0.2377,0.2278,0.2233,0.2246,0.2651,0.3031,0.3055,0.3057,0.3038,0.3075,0.3365,0.3546,0.3587,0.3884,0.4336,0.4825,0.4749,0.4812,0.5236,0.5517,0.5618,0.5384,0.5448,0.5599,0.561,0.561,0.561,0.5622,0.5777,0.5915,-0.223,-0.1427,-0.1624,-0.1689,-0.1689,-0.1504,-0.1412,-0.1366,0.0,0.0,0.0,-0.1059,-0.1162,-0.1306,-0.1306,-0.1314,-0.1311,-0.1305,-0.1309,-0.1305,-0.1318,-0.1317,-0.1317,-0.1317,-0.1317,-0.1295,-0.1251,-0.1219,-0.1219,-0.1208,-0.1193,-0.119,-0.1144,-0.1092,-0.1102,-0.1091,-0.0655,0.0168,0.0246,0.0291,0.0257,0.0353,0.0403,0.0401,0.0403,0.0396,0.0396,0.0397,0.0551,0.0873,0.0836,0.099,0.135,0.1389,0.1461,0.1569,0.1588,0.1645,0.1724,0.1783,0.1784,0.1713,0.1661,0.1701,0.1746,0.1923,0.1987,0.1932,0.2039,0.2124,0.2114,0.2178,0.2168,0.2066,0.217,0.2217,0.21,0.2239,0.2346,0.2272,0.2403,0.2416,0.2451,0.2488,0.2474,0.2441,0.2372,0.2333,0.2257,0.2276,0.2272,0.2207,0.2241,0.2101,0.2091,0.2467,0.2807,0.2876,0.332,0.3859,0.4183,0.412,0.4024,0.4238,0.4549,0.4597,0.4679,0.495,0.5181,0.5274,0.5315,0.5315,0.5339,0.5559,0.577,-0.4109,-0.4143,-0.4047,-0.4017,-0.3945,-0.3045,-0.2174,-0.1412,-0.1341,-0.1301,-0.134,-0.134,-0.1327,-0.1306,-0.1306,-0.1304,-0.1319,-0.1314,-0.1321,-0.1315,-0.1309,-0.1317,-0.1317,-0.1317,-0.1317,-0.1316,-0.1292,-0.129,-0.1267,-0.122,-0.1186,-0.1202,-0.1193,-0.1165,-0.1103,-0.1091,-0.1041,-0.0873,-0.0435,-0.0231,-0.0275,0.016,0.0393,0.0399,0.0387,0.0395,0.0395,0.0383,0.0418,0.0487,0.0471,0.0512,0.0566,0.058,0.0762,0.1127,0.1184,0.1382,0.1824,0.1865,0.171,0.1304,0.0919,0.1065,0.1947,0.2017,0.2022,0.2066,0.2079,0.218,0.219,0.2205,0.2031,0.1641,0.2026,0.2149,0.1591,0.2026,0.2342,0.2283,0.2426,0.2452,0.2424,0.2456,0.2458,0.2474,0.2443,0.2452,0.2406,0.2305,0.2213,0.2182,0.2179,0.2175,0.2162,0.2168,0.2279,0.2226,0.232,0.249,0.2549,0.2547,0.2733,0.327,0.2979,0.3061,0.4117,0.4565,0.48,0.5129,0.5258,0.5278,0.5314,0.5412,0.5438,-0.5179,-0.4726,-0.4635,-0.4593,-0.4563,-0.4015,-0.3458,-0.2975,-0.2975,-0.2672,-0.2298,-0.2756,-0.2678,-0.2201,-0.2177,-0.1862,-0.1349,-0.1356,-0.1341,-0.1347,-0.1843,-0.2084,-0.2058,-0.2516,-0.2481,-0.1983,-0.1943,-0.1728,-0.1334,-0.1281,-0.1352,-0.158,-0.1787,-0.1762,-0.1488,-0.1486,-0.1361,-0.1117,-0.0847,-0.0752,-0.0775,-0.0504,-0.0352,-0.0364,-0.0353,-0.0363,-0.0363,-0.0358,-0.0237,0.0,0.0015,0.0148,0.0384,0.0399,0.0488,0.0695,0.0725,0.0827,0.1074,0.1106,0.1057,0.0832,0.0591,0.066,0.1177,0.1217,0.1173,0.1189,0.1214,0.1265,0.132,0.1366,0.1276,0.1038,0.1307,0.1343,0.1133,0.1279,0.1488,0.1489,0.1508,0.1641,0.1924,0.1961,0.2094,0.2304,0.2401,0.244,0.2444,0.2402,0.2322,0.2283,0.2225,0.2206,0.2196,0.2167,0.2164,0.2145,0.2094,0.2009,0.1891,0.1911,0.2187,0.253,0.2269,0.247,0.352,0.3912,0.4328,0.4861,0.502,0.5125,0.5463,0.5563,0.5456,-0.6244,-0.5437,-0.541,-0.527,-0.5029,-0.4927,-0.4701,-0.4367,-0.4566,-0.4243,-0.3671,-0.4111,-0.3888,-0.3245,-0.3001,-0.2464,-0.1773,-0.1501,-0.1528,-0.1802,-0.2524,-0.2948,-0.3187,-0.3897,-0.3692,-0.285,-0.2765,-0.2346,-0.167,-0.1571,-0.1726,-0.2034,-0.2334,-0.2266,-0.1803,-0.1792,-0.157,-0.1149,-0.1126,-0.1123,-0.1092,-0.1054,-0.1027,-0.1025,-0.0991,-0.1003,-0.1003,-0.0991,-0.0802,-0.0453,-0.0438,-0.0287,0.0091,0.0106,0.0151,0.0242,0.0259,0.0304,0.0392,0.0369,0.0343,0.0327,0.016,0.0083,0.0121,0.0123,0.0227,0.0377,0.0496,0.0527,0.0631,0.0653,0.0601,0.0528,0.0638,0.0665,0.0515,0.0615,0.0688,0.0683,0.0705,0.0912,0.1203,0.133,0.1461,0.1815,0.2077,0.2192,0.2218,0.2355,0.2425,0.2364,0.2288,0.228,0.2257,0.2261,0.2257,0.2247,0.2171,0.2093,0.198,0.1978,0.2039,0.2196,0.2225,0.2425,0.2828,0.3265,0.3813,0.4372,0.4517,0.4763,0.5378,0.5687,0.5606,-0.7756,-0.7705,-0.7477,-0.6942,-0.6104,-0.6038,-0.5474,-0.4716,-0.5372,-0.5656,-0.5371,-0.4645,-0.4312,-0.4067,-0.3334,-0.2906,-0.2696,-0.1818,-0.2015,-0.2931,-0.3043,-0.3637,-0.4608,-0.4813,-0.439,-0.3702,-0.3611,-0.3215,-0.242,-0.2414,-0.2413,-0.2464,-0.2488,-0.2327,-0.1884,-0.1829,-0.1603,-0.1199,-0.1196,-0.1167,-0.1096,-0.109,-0.1106,-0.1088,-0.1034,-0.1003,-0.1007,-0.0949,-0.0907,-0.0849,-0.084,-0.0809,-0.0768,-0.078,-0.0582,-0.0171,-0.0204,-0.006,0.0301,0.0064,-0.0144,-0.0177,-0.0626,-0.0907,-0.0916,-0.0972,-0.0592,0.0159,0.0502,0.0488,0.06,0.0593,0.0383,-0.0055,0.0291,0.0475,-0.0018,0.0329,0.068,0.0612,0.0514,0.071,0.0726,0.0798,0.0816,0.0975,0.1345,0.1572,0.1612,0.196,0.2293,0.2343,0.2403,0.243,0.2431,0.2408,0.2386,0.2376,0.228,0.2221,0.2193,0.2109,0.2044,0.2186,0.2202,0.2394,0.2725,0.3033,0.3182,0.3781,0.4002,0.4146,0.4786,0.5453,0.5683,-0.7988,-0.7985,-0.7946,-0.7636,-0.7176,-0.7139,-0.6851,-0.6406,-0.6729,-0.684,-0.6676,-0.6299,-0.5759,-0.5095,-0.4716,-0.4271,-0.3708,-0.3301,-0.342,-0.4056,-0.4604,-0.5161,-0.5654,-0.6265,-0.6047,-0.5217,-0.5067,-0.4366,-0.3414,-0.3353,-0.3641,-0.393,-0.3876,-0.3457,-0.278,-0.2373,-0.1873,-0.125,-0.1436,-0.1539,-0.1487,-0.1251,-0.1094,-0.1092,-0.1068,-0.104,-0.1054,-0.1031,-0.1018,-0.1034,-0.1019,-0.1034,-0.1018,-0.1018,-0.0956,-0.0736,-0.0717,-0.0629,-0.0435,-0.0622,-0.0743,-0.0727,-0.095,-0.111,-0.1144,-0.1155,-0.0944,-0.0611,-0.0477,-0.0461,-0.0451,-0.044,-0.0538,-0.0732,-0.0565,-0.0526,-0.0773,-0.0572,-0.0391,-0.0446,-0.0405,-0.021,0.0088,0.0386,0.0557,0.0592,0.0828,0.0965,0.0999,0.1219,0.1513,0.18,0.1929,0.2124,0.2399,0.2474,0.2455,0.2459,0.2386,0.2352,0.2391,0.2293,0.221,0.2298,0.2257,0.2272,0.2433,0.2551,0.2677,0.3216,0.3896,0.4204,0.4477,0.5408,0.5946,-0.8113,-0.8088,-0.8038,-0.7952,-0.7851,-0.7851,-0.779,-0.7668,-0.7658,-0.7573,-0.7457,-0.7413,-0.6947,-0.6199,-0.5847,-0.5317,-0.469,-0.4401,-0.4599,-0.5112,-0.5866,-0.6433,-0.6893,-0.754,-0.7389,-0.6624,-0.637,-0.5607,-0.4429,-0.4427,-0.473,-0.5079,-0.5026,-0.456,-0.3873,-0.3347,-0.2622,-0.1761,-0.1874,-0.1871,-0.1623,-0.1302,-0.1181,-0.1245,-0.1147,-0.1089,-0.1081,-0.1073,-0.1085,-0.1068,-0.1052,-0.1068,-0.1085,-0.1084,-0.1072,-0.1079,-0.1036,-0.1033,-0.104,-0.1084,-0.1114,-0.1092,-0.1116,-0.1143,-0.1194,-0.1164,-0.1166,-0.1157,-0.1199,-0.1161,-0.1193,-0.1187,-0.1188,-0.1187,-0.1184,-0.1198,-0.1174,-0.116,-0.1115,-0.1183,-0.1037,-0.1008,-0.0586,-0.023,-0.0053,-0.0035,0.0178,0.0355,0.0405,0.0537,0.0856,0.1194,0.131,0.1662,0.2299,0.2499,0.2506,0.2483,0.2443,0.2454,0.2501,0.2404,0.233,0.2353,0.2289,0.228,0.2334,0.2319,0.2301,0.2807,0.3334,0.3796,0.3905,0.4806,0.5269,-0.8382,-0.8354,-0.8113,-0.801,-0.8003,-0.8,-0.7915,-0.7804,-0.7801,-0.7723,-0.7604,-0.7471,-0.737,-0.7184,-0.625,-0.57,-0.5539,-0.4845,-0.5176,-0.6259,-0.6416,-0.7173,-0.8442,-0.853,-0.8125,-0.74,-0.7289,-0.6788,-0.5819,-0.5617,-0.5544,-0.5609,-0.5586,-0.5354,-0.4904,-0.4591,-0.3964,-0.2846,-0.2614,-0.2128,-0.1423,-0.1264,-0.1399,-0.1579,-0.1297,-0.1085,-0.1026,-0.1011,-0.1013,-0.1011,-0.1002,-0.1014,-0.1011,-0.1014,-0.1014,-0.1023,-0.1062,-0.1104,-0.1112,-0.1158,-0.1165,-0.1127,-0.1162,-0.1183,-0.1187,-0.1182,-0.1192,-0.1188,-0.1192,-0.1202,-0.12,-0.1202,-0.1198,-0.1212,-0.1189,-0.1197,-0.1194,-0.1217,-0.1194,-0.1213,-0.1202,-0.1159,-0.1128,-0.1132,-0.1012,-0.0918,-0.064,-0.0334,-0.0215,0.0198,0.0487,0.0605,0.0755,0.1105,0.2112,0.2327,0.2399,0.2408,0.2344,0.25,0.2506,0.2479,0.2445,0.2429,0.2436,0.2401,0.2325,0.2267,0.2245,0.2419,0.2444,0.2739,0.3202,0.2693,0.3142,-0.8651,-0.8627,-0.8382,-0.8258,-0.8237,-0.8088,-0.8054,-0.8178,-0.7978,-0.7948,-0.7941,-0.775,-0.755,-0.7366,-0.6973,-0.6809,-0.6821,-0.6498,-0.6801,-0.7507,-0.7551,-0.7933,-0.8524,-0.8612,-0.8474,-0.8194,-0.8037,-0.7718,-0.723,-0.6657,-0.6603,-0.6865,-0.6466,-0.6012,-0.558,-0.5115,-0.4513,-0.3867,-0.3618,-0.3235,-0.2593,-0.2226,-0.1969,-0.175,-0.1371,-0.1147,-0.1119,-0.1142,-0.111,-0.1074,-0.1074,-0.1064,-0.1065,-0.1062,-0.1087,-0.1133,-0.1163,-0.1148,-0.1108,-0.1149,-0.1198,-0.1171,-0.1196,-0.1194,-0.1187,-0.1198,-0.1197,-0.1207,-0.1251,-0.1259,-0.1269,-0.1256,-0.1263,-0.1263,-0.1263,-0.1266,-0.1271,-0.1267,-0.1273,-0.1276,-0.1277,-0.1272,-0.1263,-0.1261,-0.126,-0.126,-0.1086,-0.0953,-0.0909,-0.0685,-0.0386,-0.0105,0.0088,0.0381,0.1077,0.1665,0.1923,0.2046,0.2115,0.2331,0.2431,0.247,0.2444,0.2361,0.2404,0.2458,0.237,0.2322,0.2286,0.2249,0.2241,0.2297,0.2503,0.2368,0.248,-0.8878,-0.8775,-0.8606,-0.8531,-0.8506,-0.8333,-0.8357,-0.8506,-0.8333,-0.8301,-0.8331,-0.8153,-0.7961,-0.7762,-0.7653,-0.7682,-0.776,-0.7598,-0.7746,-0.8179,-0.8201,-0.834,-0.8568,-0.8616,-0.8616,-0.8558,-0.8403,-0.824,-0.8052,-0.7491,-0.7455,-0.7789,-0.7265,-0.6853,-0.6484,-0.5977,-0.5467,-0.4974,-0.4688,-0.4319,-0.3717,-0.2976,-0.2452,-0.2085,-0.1532,-0.1212,-0.1176,-0.1172,-0.1146,-0.1092,-0.1106,-0.1097,-0.1097,-0.1095,-0.1133,-0.117,-0.1163,-0.1166,-0.1142,-0.1164,-0.1181,-0.1199,-0.1182,-0.1191,-0.1189,-0.1193,-0.122,-0.1234,-0.1278,-0.1304,-0.1305,-0.1298,-0.1307,-0.1307,-0.1306,-0.1306,-0.1307,-0.1306,-0.1316,-0.1309,-0.1314,-0.1309,-0.1324,-0.1343,-0.1323,-0.1321,-0.132,-0.132,-0.1291,-0.1248,-0.1143,-0.0756,-0.0612,-0.0401,0.0054,0.0517,0.1094,0.1282,0.1503,0.184,0.2115,0.2212,0.2314,0.2273,0.2322,0.2397,0.242,0.2372,0.2327,0.2308,0.2271,0.2304,0.2344,0.2291,0.2404,-0.9059,-0.885,-0.88,-0.88,-0.8775,-0.8754,-0.8775,-0.8775,-0.8779,-0.8743,-0.8756,-0.8644,-0.8518,-0.8466,-0.8144,-0.8162,-0.828,-0.7864,-0.7827,-0.8201,-0.8226,-0.8362,-0.859,-0.8616,-0.8616,-0.8608,-0.8407,-0.8326,-0.828,-0.8047,-0.7954,-0.7963,-0.7825,-0.7637,-0.774,-0.7231,-0.6706,-0.606,-0.5712,-0.5193,-0.4411,-0.348,-0.2947,-0.274,-0.1983,-0.1439,-0.1227,-0.1141,-0.1115,-0.1107,-0.1104,-0.1096,-0.1105,-0.1108,-0.1103,-0.1137,-0.1115,-0.1122,-0.1184,-0.1193,-0.1188,-0.1188,-0.119,-0.119,-0.1197,-0.1215,-0.1215,-0.128,-0.13,-0.1315,-0.132,-0.1306,-0.1302,-0.1304,-0.1316,-0.1316,-0.1318,-0.1324,-0.1306,-0.1308,-0.1311,-0.1341,-0.138,-0.1402,-0.1398,-0.1378,-0.1378,-0.1377,-0.1334,-0.1313,-0.1286,-0.1238,-0.1109,-0.0901,-0.0796,-0.0641,-0.0037,0.0469,0.0711,0.0994,0.1247,0.1423,0.1607,0.1647,0.2038,0.2158,0.2449,0.2408,0.2391,0.237,0.2335,0.2309,0.2307,0.2286,0.2255,-0.943,-0.9327,-0.9154,-0.9084,-0.9059,-0.8878,-0.8903,-0.9059,-0.8878,-0.8903,-0.9019,-0.885,-0.8694,-0.8601,-0.8462,-0.8493,-0.8602,-0.8321,-0.8281,-0.8452,-0.8476,-0.8502,-0.8568,-0.8616,-0.8616,-0.8586,-0.8537,-0.8505,-0.8464,-0.8313,-0.8203,-0.8191,-0.8024,-0.7935,-0.7923,-0.7704,-0.7434,-0.7179,-0.6594,-0.6009,-0.5422,-0.4705,-0.4093,-0.365,-0.3299,-0.2942,-0.2426,-0.1655,-0.1244,-0.1186,-0.117,-0.117,-0.1168,-0.1169,-0.1198,-0.1236,-0.1247,-0.1225,-0.1198,-0.1187,-0.1193,-0.1193,-0.1193,-0.1223,-0.1259,-0.1282,-0.1281,-0.1321,-0.1321,-0.1325,-0.1351,-0.1375,-0.1346,-0.131,-0.1306,-0.1304,-0.132,-0.1353,-0.1357,-0.136,-0.1364,-0.1391,-0.1396,-0.1398,-0.1396,-0.1397,-0.1397,-0.1378,-0.1363,-0.1361,-0.1373,-0.1369,-0.1311,-0.1269,-0.11,-0.1049,-0.0818,-0.0343,-0.0077,0.0097,0.035,0.0546,0.0764,0.1158,0.155,0.1955,0.2271,0.2392,0.2317,0.2405,0.2402,0.2375,0.2364,0.2339,0.2319,-0.9599,-0.9579,-0.9406,-0.9331,-0.9331,-0.915,-0.92,-0.9307,-0.9179,-0.9179,-0.9282,-0.9179,-0.9047,-0.8966,-0.8878,-0.8875,-0.895,-0.8761,-0.8688,-0.8652,-0.8606,-0.8616,-0.8616,-0.8616,-0.8616,-0.8616,-0.8616,-0.8616,-0.8608,-0.8476,-0.8415,-0.8361,-0.8211,-0.8113,-0.8101,-0.7967,-0.7874,-0.7785,-0.7328,-0.6903,-0.6507,-0.5782,-0.5137,-0.4724,-0.428,-0.385,-0.3373,-0.2643,-0.197,-0.1523,-0.1288,-0.1195,-0.1195,-0.1194,-0.1204,-0.1256,-0.1261,-0.1255,-0.1212,-0.1192,-0.1199,-0.1225,-0.1229,-0.1242,-0.1306,-0.1314,-0.131,-0.1351,-0.1331,-0.1353,-0.1403,-0.14,-0.1394,-0.1343,-0.1361,-0.1332,-0.1345,-0.1382,-0.1405,-0.1404,-0.141,-0.1413,-0.1413,-0.1413,-0.1413,-0.1413,-0.1413,-0.1413,-0.141,-0.1395,-0.1402,-0.1393,-0.1316,-0.1294,-0.1313,-0.1374,-0.1492,-0.1188,-0.0853,-0.0738,-0.0583,-0.0469,-0.0294,0.0392,0.0883,0.1452,0.1793,0.199,0.2022,0.2194,0.234,0.2441,0.2433,0.2408,0.2402,-0.9599,-0.9599,-0.9599,-0.9579,-0.9579,-0.9575,-0.9554,-0.9579,-0.9575,-0.9579,-0.9579,-0.9554,-0.955,-0.9521,-0.9275,-0.9266,-0.934,-0.9128,-0.8969,-0.8839,-0.8725,-0.8623,-0.8616,-0.8616,-0.8616,-0.8616,-0.8616,-0.8616,-0.8612,-0.8596,-0.8608,-0.8549,-0.8407,-0.833,-0.8293,-0.8101,-0.8028,-0.7987,-0.7841,-0.7732,-0.7645,-0.6693,-0.6032,-0.5922,-0.5026,-0.4436,-0.424,-0.3841,-0.3146,-0.2068,-0.1644,-0.1407,-0.1305,-0.1246,-0.1201,-0.1225,-0.1194,-0.1214,-0.121,-0.12,-0.1228,-0.1269,-0.1297,-0.131,-0.1313,-0.1303,-0.1325,-0.1394,-0.1384,-0.1399,-0.1402,-0.1412,-0.141,-0.1412,-0.1403,-0.138,-0.1388,-0.1409,-0.1409,-0.1411,-0.1413,-0.1413,-0.1413,-0.1413,-0.1413,-0.1413,-0.1413,-0.1413,-0.1412,-0.1408,-0.1434,-0.1457,-0.1514,-0.148,-0.154,-0.1386,-0.1512,-0.1648,-0.1403,-0.1362,-0.1251,-0.1156,-0.1022,-0.0353,0.0255,0.0824,0.1256,0.1431,0.1647,0.1799,0.2012,0.2352,0.2382,0.2246,0.2347,-0.9599,-0.9599,-0.9599,-0.9599,-0.9599,-0.9599,-0.9599,-0.9599,-0.9599,-0.9599,-0.9599,-0.9599,-0.9599,-0.9599,-0.9525,-0.9522,-0.9478,-0.9373,-0.9284,-0.9205,-0.8908,-0.8708,-0.8611,-0.8616,-0.8616,-0.8616,-0.8616,-0.8616,-0.8616,-0.8616,-0.8616,-0.8608,-0.8537,-0.8509,-0.8492,-0.8326,-0.8223,-0.8191,-0.8036,-0.7967,-0.7918,-0.7631,-0.73,-0.6988,-0.6509,-0.5959,-0.5426,-0.4654,-0.3997,-0.3312,-0.2539,-0.2156,-0.2131,-0.167,-0.1381,-0.14,-0.1307,-0.1274,-0.13,-0.1303,-0.1289,-0.1297,-0.132,-0.1314,-0.1322,-0.1303,-0.1331,-0.1382,-0.1412,-0.1403,-0.1406,-0.1413,-0.1413,-0.1413,-0.1413,-0.1413,-0.1413,-0.1413,-0.1413,-0.1413,-0.1413,-0.1436,-0.1413,-0.148,-0.148,-0.1458,-0.148,-0.1503,-0.1592,-0.1592,-0.1682,-0.1838,-0.1906,-0.1838,-0.1734,-0.1528,-0.1575,-0.1869,-0.1879,-0.1847,-0.1658,-0.1456,-0.1298,-0.0962,-0.0412,0.0137,0.055,0.0844,0.108,0.1295,0.1315,0.1452,0.1685,0.1696,0.2047,-0.9599,-0.9599,-0.9599,-0.9599,-0.9599,-0.9599,-0.9599,-0.9599,-0.9599,-0.9599,-0.9599,-0.9599,-0.9599,-0.9599,-0.9599,-0.9599,-0.9587,-0.9518,-0.9453,-0.9335,-0.9087,-0.8834,-0.8651,-0.8616,-0.8616,-0.8616,-0.8616,-0.8616,-0.8616,-0.8616,-0.8616,-0.8612,-0.8616,-0.8616,-0.86,-0.8497,-0.8423,-0.8395,-0.8231,-0.813,-0.813,-0.8028,-0.7906,-0.7631,-0.7373,-0.688,-0.6146,-0.5525,-0.481,-0.3947,-0.3326,-0.3095,-0.3095,-0.2469,-0.2098,-0.2157,-0.1962,-0.1831,-0.179,-0.1674,-0.1582,-0.1577,-0.1478,-0.1326,-0.1339,-0.1357,-0.1355,-0.1405,-0.1408,-0.1396,-0.1408,-0.1413,-0.1413,-0.1413,-0.1413,-0.1413,-0.1413,-0.1413,-0.1413,-0.1436,-0.157,-0.1615,-0.148,-0.1726,-0.1861,-0.1861,-0.204,-0.2062,-0.2108,-0.2041,-0.2062,-0.2285,-0.233,-0.2277,-0.2095,-0.1889,-0.1745,-0.2029,-0.1939,-0.1992,-0.1989,-0.1724,-0.147,-0.1249,-0.0927,-0.0571,-0.0099,0.0276,0.0491,0.0609,0.053,0.0667,0.0961,0.1077,0.147,-0.9599,-0.9599,-0.9599,-0.9599,-0.9599,-0.9599,-0.9599,-0.9599,-0.9599,-0.9599,-0.9599,-0.9599,-0.9599,-0.9599,-0.9599,-0.9599,-0.9599,-0.9579,-0.9498,-0.938,-0.9197,-0.8989,-0.8729,-0.8663,-0.8647,-0.8635,-0.8611,-0.8616,-0.8616,-0.8616,-0.8616,-0.8616,-0.8616,-0.8616,-0.8612,-0.8574,-0.8612,-0.8567,-0.8419,-0.8342,-0.83,-0.8203,-0.8093,-0.7966,-0.7564,-0.7135,-0.6659,-0.6298,-0.5712,-0.4237,-0.4027,-0.4034,-0.409,-0.3561,-0.3243,-0.3175,-0.2827,-0.2587,-0.2539,-0.2203,-0.2054,-0.2085,-0.1744,-0.149,-0.1616,-0.1628,-0.158,-0.1583,-0.1457,-0.1411,-0.1412,-0.1413,-0.1413,-0.1413,-0.1413,-0.1413,-0.1413,-0.1413,-0.1413,-0.1413,-0.184,-0.1817,-0.1884,-0.2152,-0.2667,-0.2308,-0.2443,-0.251,-0.2533,-0.2532,-0.2643,-0.2888,-0.2844,-0.2711,-0.2509,-0.2259,-0.2165,-0.2161,-0.1915,-0.1899,-0.2115,-0.1947,-0.1647,-0.139,-0.1357,-0.107,-0.0582,-0.03,-0.0139,-0.0079,-0.0138,0.0158,0.0452,0.0412,0.0627,-0.9599,-0.9599,-0.9599,-0.9599,-0.9599,-0.9599,-0.9599,-0.9599,-0.9599,-0.9599,-0.9599,-0.9599,-0.9599,-0.9599,-0.9599,-0.9599,-0.9599,-0.9616,-0.9527,-0.9416,-0.9375,-0.9213,-0.9001,-0.8857,-0.8775,-0.8747,-0.8651,-0.8598,-0.8598,-0.8624,-0.8616,-0.8616,-0.8616,-0.8616,-0.8616,-0.8616,-0.8616,-0.8608,-0.8563,-0.8517,-0.8513,-0.8468,-0.8353,-0.8176,-0.771,-0.7295,-0.7049,-0.6944,-0.6739,-0.6241,-0.5485,-0.5019,-0.4939,-0.441,-0.3989,-0.3704,-0.3465,-0.3149,-0.2815,-0.2673,-0.2616,-0.2575,-0.2441,-0.2483,-0.2472,-0.2184,-0.2049,-0.1952,-0.166,-0.1525,-0.1524,-0.1436,-0.148,-0.1503,-0.1503,-0.148,-0.1413,-0.1413,-0.1413,-0.1458,-0.1548,-0.1682,-0.1974,-0.213,-0.2489,-0.2667,-0.2801,-0.289,-0.2935,-0.2957,-0.3159,-0.3381,-0.3291,-0.3159,-0.2959,-0.2668,-0.2422,-0.2355,-0.2136,-0.2079,-0.2299,-0.2265,-0.2015,-0.1962,-0.1966,-0.1598,-0.1186,-0.1037,-0.093,-0.0863,-0.0757,-0.0476,-0.0277,-0.0295,-0.0118,-0.9599,-0.9599,-0.9599,-0.9599,-0.9599,-0.9599,-0.9599,-0.9599,-0.9599,-0.9599,-0.9599,-0.9599,-0.9599,-0.9599,-0.9599,-0.9599,-0.9599,-0.9599,-0.9555,-0.9498,-0.9482,-0.9433,-0.9336,-0.9161,-0.9039,-0.8946,-0.8771,-0.8694,-0.8674,-0.8631,-0.8616,-0.8616,-0.8616,-0.8616,-0.8616,-0.8616,-0.8616,-0.8616,-0.8616,-0.8616,-0.8616,-0.859,-0.847,-0.8272,-0.7891,-0.7584,-0.7367,-0.7262,-0.7219,-0.7092,-0.6664,-0.6332,-0.6263,-0.5776,-0.5295,-0.5009,-0.4216,-0.3867,-0.3486,-0.2841,-0.251,-0.2836,-0.2674,-0.2682,-0.2757,-0.263,-0.2552,-0.2489,-0.2308,-0.2107,-0.2084,-0.2129,-0.204,-0.1861,-0.1973,-0.2017,-0.1794,-0.157,-0.1525,-0.1682,-0.1817,-0.193,-0.2109,-0.2377,-0.2399,-0.2667,-0.289,-0.3002,-0.3291,-0.3358,-0.3561,-0.3715,-0.3693,-0.3583,-0.3384,-0.3093,-0.2667,-0.2599,-0.2527,-0.2611,-0.2812,-0.267,-0.2444,-0.2344,-0.2197,-0.2275,-0.1956,-0.1823,-0.1631,-0.1522,-0.1367,-0.1147,-0.0857,-0.0576,-0.0474,-0.9599,-0.9599,-0.9599,-0.9599,-0.9599,-0.9599,-0.9599,-0.9599,-0.9599,-0.9599,-0.9599,-0.9599,-0.9599,-0.9599,-0.9599,-0.9599,-0.9599,-0.9599,-0.9579,-0.9575,-0.9571,-0.9559,-0.951,-0.9429,-0.9315,-0.9165,-0.8966,-0.8846,-0.8779,-0.8686,-0.8639,-0.8629,-0.8616,-0.8616,-0.8616,-0.8616,-0.8616,-0.8616,-0.8616,-0.8616,-0.8616,-0.8594,-0.8486,-0.8311,-0.8094,-0.7908,-0.7728,-0.7628,-0.7545,-0.7533,-0.7675,-0.7766,-0.7668,-0.7306,-0.6864,-0.6675,-0.549,-0.481,-0.4279,-0.3404,-0.2835,-0.3045,-0.271,-0.2598,-0.282,-0.2774,-0.2732,-0.2822,-0.2755,-0.2755,-0.2889,-0.2755,-0.2622,-0.2466,-0.2667,-0.2668,-0.2354,-0.1884,-0.1973,-0.2175,-0.231,-0.2399,-0.2578,-0.2825,-0.269,-0.2645,-0.2913,-0.3179,-0.347,-0.3715,-0.3896,-0.4007,-0.3985,-0.3762,-0.3564,-0.3452,-0.3047,-0.2846,-0.2823,-0.2913,-0.3093,-0.2868,-0.2615,-0.2419,-0.2332,-0.2441,-0.247,-0.227,-0.2116,-0.2086,-0.1834,-0.1499,-0.1157,-0.0802,-0.0778,-0.9599,-0.9599,-0.9599,-0.9599,-0.9599,-0.9599,-0.9599,-0.9599,-0.9599,-0.9599,-0.9599,-0.9599,-0.9599,-0.9599,-0.9599,-0.9599,-0.9599,-0.9599,-0.9599,-0.9599,-0.9599,-0.9599,-0.9608,-0.9575,-0.951,-0.9437,-0.9234,-0.9011,-0.8881,-0.8765,-0.8737,-0.8631,-0.8629,-0.8629,-0.8594,-0.8616,-0.8616,-0.8616,-0.8616,-0.8616,-0.8616,-0.8568,-0.8568,-0.845,-0.8263,-0.8142,-0.8124,-0.8083,-0.8071,-0.8101,-0.8307,-0.8382,-0.8291,-0.7932,-0.7516,-0.7071,-0.6542,-0.5834,-0.5181,-0.4709,-0.4101,-0.3695,-0.3385,-0.3138,-0.2957,-0.2691,-0.2805,-0.2877,-0.2967,-0.2942,-0.2911,-0.3042,-0.2941,-0.285,-0.2904,-0.2946,-0.2807,-0.274,-0.267,-0.2869,-0.2892,-0.2868,-0.3024,-0.3138,-0.3048,-0.3047,-0.3248,-0.3496,-0.3765,-0.3942,-0.4099,-0.4188,-0.4253,-0.3965,-0.3654,-0.3609,-0.3406,-0.3159,-0.3069,-0.2981,-0.3048,-0.2913,-0.2738,-0.2802,-0.2691,-0.2645,-0.263,-0.261,-0.2468,-0.2308,-0.2063,-0.1821,-0.1514,-0.1213,-0.1122,-0.9599,-0.9599,-0.9599,-0.9599,-0.9599,-0.9599,-0.9599,-0.9599,-0.9599,-0.9599,-0.9599,-0.9599,-0.9599,-0.9599,-0.9599,-0.9599,-0.9599,-0.9599,-0.9599,-0.9599,-0.9599,-0.9599,-0.9599,-0.9599,-0.9599,-0.9559,-0.9413,-0.9263,-0.9124,-0.9003,-0.8869,-0.8739,-0.8698,-0.8658,-0.8606,-0.8616,-0.8598,-0.8598,-0.8616,-0.8616,-0.8568,-0.8502,-0.8454,-0.8502,-0.8384,-0.8292,-0.8406,-0.841,-0.8406,-0.8424,-0.8542,-0.8594,-0.8524,-0.8366,-0.8076,-0.765,-0.7139,-0.6583,-0.5916,-0.5403,-0.4668,-0.4227,-0.4121,-0.3963,-0.3695,-0.3497,-0.327,-0.3232,-0.3342,-0.3375,-0.3404,-0.3579,-0.3653,-0.3514,-0.358,-0.3585,-0.3472,-0.3552,-0.3558,-0.3493,-0.3192,-0.3145,-0.3339,-0.3406,-0.3384,-0.3472,-0.3606,-0.3808,-0.4013,-0.408,-0.4168,-0.4255,-0.4297,-0.4166,-0.392,-0.3875,-0.3808,-0.3585,-0.3449,-0.3339,-0.3317,-0.3315,-0.3449,-0.3571,-0.3358,-0.3002,-0.297,-0.3003,-0.2782,-0.2576,-0.2428,-0.2245,-0.1933,-0.1687,-0.1591,-0.9797,-0.9599,-0.9599,-0.9599,-0.9599,-0.9599,-0.9599,-0.9599,-0.9599,-0.9599,-0.9599,-0.9599,-0.9599,-0.9599,-0.9599,-0.9599,-0.9599,-0.9599,-0.9599,-0.9599,-0.9599,-0.9599,-0.9599,-0.9599,-0.9599,-0.9595,-0.9575,-0.9531,-0.9343,-0.9225,-0.9079,-0.8926,-0.885,-0.8816,-0.8745,-0.87,-0.8655,-0.8631,-0.8598,-0.8616,-0.8546,-0.841,-0.8362,-0.8568,-0.8384,-0.8384,-0.8546,-0.8568,-0.8568,-0.8568,-0.8594,-0.8616,-0.8616,-0.8616,-0.8502,-0.8204,-0.7511,-0.7019,-0.6536,-0.6086,-0.5522,-0.5008,-0.4773,-0.4621,-0.456,-0.4383,-0.4186,-0.3834,-0.3854,-0.3956,-0.3996,-0.4299,-0.4322,-0.4224,-0.4291,-0.4452,-0.414,-0.4063,-0.4208,-0.3969,-0.3519,-0.3498,-0.374,-0.3786,-0.3784,-0.3741,-0.3875,-0.3896,-0.4056,-0.4011,-0.4101,-0.4233,-0.4297,-0.4297,-0.421,-0.4188,-0.4121,-0.403,-0.3963,-0.3918,-0.3896,-0.392,-0.4009,-0.3987,-0.3784,-0.3494,-0.3449,-0.3361,-0.3166,-0.3014,-0.2903,-0.2688,-0.2371,-0.2143,-0.2022,-1.0473,-0.9628,-0.9624,-0.9599,-0.9599,-0.9599,-0.9599,-0.9599,-0.9599,-0.9599,-0.9599,-0.9599,-0.9599,-0.9599,-0.9599,-0.9599,-0.9599,-0.9599,-0.9599,-0.9599,-0.9599,-0.9599,-0.9599,-0.9599,-0.9599,-0.9599,-0.9599,-0.9522,-0.9433,-0.9368,-0.9258,-0.9096,-0.906,-0.9039,-0.8958,-0.8848,-0.8792,-0.8767,-0.8676,-0.8624,-0.8602,-0.8554,-0.8524,-0.8568,-0.8546,-0.8524,-0.8568,-0.8616,-0.8616,-0.8616,-0.8616,-0.8616,-0.8616,-0.8616,-0.8616,-0.8476,-0.8204,-0.7823,-0.7436,-0.7152,-0.6671,-0.6002,-0.5527,-0.526,-0.5269,-0.5137,-0.4757,-0.3953,-0.429,-0.4594,-0.4649,-0.4681,-0.4601,-0.4613,-0.4729,-0.4691,-0.4488,-0.4342,-0.4511,-0.448,-0.4048,-0.4078,-0.4225,-0.4191,-0.4186,-0.4143,-0.4123,-0.4127,-0.4099,-0.4076,-0.4076,-0.4233,-0.4297,-0.4297,-0.4297,-0.4297,-0.4304,-0.4302,-0.4302,-0.4302,-0.4231,-0.4166,-0.4208,-0.4164,-0.3985,-0.3851,-0.3741,-0.363,-0.354,-0.3395,-0.3216,-0.3044,-0.2854,-0.2661,-0.2505,-1.2004,-1.0473,-0.9846,-0.9599,-0.9599,-0.9599,-0.9599,-0.9599,-0.9599,-0.9599,-0.9599,-0.9599,-0.9599,-0.9599,-0.9599,-0.9599,-0.9599,-0.9599,-0.9599,-0.9599,-0.9599,-0.9599,-0.9599,-0.9599,-0.9599,-0.9599,-0.9599,-0.9579,-0.9514,-0.9482,-0.9417,-0.929,-0.9258,-0.9177,-0.9145,-0.9027,-0.8986,-0.893,-0.882,-0.8723,-0.8664,-0.851,-0.8436,-0.8576,-0.8488,-0.8514,-0.8584,-0.8616,-0.8616,-0.8616,-0.8616,-0.8643,-0.8708,-0.8727,-0.8751,-0.8873,-0.8778,-0.8548,-0.8297,-0.8291,-0.7838,-0.735,-0.6836,-0.669,-0.6384,-0.6011,-0.571,-0.5329,-0.5487,-0.5584,-0.5681,-0.5916,-0.5723,-0.5574,-0.5304,-0.4962,-0.4826,-0.4673,-0.4634,-0.4628,-0.4597,-0.4541,-0.4498,-0.4469,-0.44,-0.4355,-0.4306,-0.4272,-0.4267,-0.4255,-0.4255,-0.4277,-0.4297,-0.4297,-0.4297,-0.43,-0.4312,-0.4314,-0.4312,-0.431,-0.43,-0.4297,-0.4302,-0.4302,-0.4188,-0.4076,-0.3967,-0.3741,-0.3518,-0.3494,-0.347,-0.3269,-0.3112,-0.3263,-0.2953,-1.3221,-1.1512,-1.0424,-0.9846,-0.9599,-0.9599,-0.9599,-0.9599,-0.9599,-0.9599,-0.9599,-0.9599,-0.9599,-0.9599,-0.9599,-0.9599,-0.9599,-0.9599,-0.9599,-0.9599,-0.9599,-0.9599,-0.9599,-0.9599,-0.9599,-0.9599,-0.9599,-0.9587,-0.9595,-0.9579,-0.9539,-0.9449,-0.9425,-0.9368,-0.9263,-0.9185,-0.9141,-0.906,-0.8958,-0.8897,-0.8846,-0.8614,-0.8615,-0.8621,-0.8587,-0.8512,-0.8698,-0.8737,-0.8741,-0.8749,-0.8757,-0.8826,-0.8877,-0.8901,-0.8938,-0.9043,-0.9061,-0.9065,-0.8946,-0.8925,-0.8832,-0.8573,-0.8255,-0.7904,-0.7059,-0.6782,-0.6632,-0.6461,-0.6473,-0.655,-0.6672,-0.6918,-0.6702,-0.6327,-0.6036,-0.5579,-0.5149,-0.4908,-0.4753,-0.4716,-0.4692,-0.4673,-0.4643,-0.464,-0.4614,-0.4591,-0.4533,-0.444,-0.442,-0.4402,-0.4396,-0.4414,-0.4418,-0.442,-0.4414,-0.44,-0.4388,-0.4373,-0.4373,-0.4385,-0.4381,-0.4342,-0.4293,-0.4312,-0.432,-0.4255,-0.4121,-0.3808,-0.3518,-0.3473,-0.3449,-0.3427,-0.3382,-0.3558,-0.36,-1.3637,-1.2514,-1.1541,-1.0522,-0.9624,-0.9599,-0.9628,-0.9747,-0.9698,-0.9649,-0.9599,-0.9599,-0.9599,-0.9599,-0.9599,-0.9599,-0.9599,-0.9599,-0.9599,-0.9599,-0.9599,-0.9599,-0.9599,-0.9599,-0.9599,-0.9599,-0.9599,-0.9599,-0.9599,-0.9599,-0.9591,-0.9583,-0.9563,-0.9559,-0.9518,-0.9388,-0.9307,-0.9198,-0.9104,-0.908,-0.9072,-0.8985,-0.8988,-0.8996,-0.9016,-0.9056,-0.9075,-0.9011,-0.8995,-0.8991,-0.9005,-0.9038,-0.9083,-0.9076,-0.9112,-0.9194,-0.9287,-0.9327,-0.9331,-0.9307,-0.9328,-0.9336,-0.9203,-0.8749,-0.7754,-0.8023,-0.7862,-0.7418,-0.7468,-0.7378,-0.731,-0.721,-0.7459,-0.711,-0.6786,-0.6346,-0.5745,-0.5007,-0.4852,-0.4812,-0.4771,-0.4734,-0.4728,-0.4714,-0.4712,-0.4663,-0.4606,-0.4536,-0.4541,-0.4536,-0.4555,-0.4548,-0.4556,-0.456,-0.4564,-0.4543,-0.45,-0.4492,-0.4494,-0.4513,-0.4535,-0.4453,-0.4383,-0.4373,-0.4385,-0.434,-0.4285,-0.4019,-0.3777,-0.355,-0.3473,-0.354,-0.3518,-0.3582,-0.3849,-1.4604,-1.3655,-1.327,-1.1741,-0.9649,-1.0306,-1.0592,-1.0567,-1.0571,-1.0183,-0.9599,-0.9599,-0.9599,-0.9599,-0.9599,-0.9599,-0.9599,-0.9599,-0.9599,-0.9599,-0.9599,-0.9599,-0.9599,-0.9599,-0.9599,-0.9599,-0.9599,-0.9599,-0.9599,-0.9599,-0.9599,-0.9599,-0.9599,-0.9599,-0.9583,-0.9551,-0.9474,-0.9405,-0.9311,-0.9282,-0.9258,-0.9141,-0.9096,-0.9096,-0.9096,-0.9096,-0.9088,-0.9092,-0.9092,-0.9104,-0.9112,-0.9197,-0.927,-0.9278,-0.9327,-0.9376,-0.9474,-0.9498,-0.951,-0.9514,-0.9522,-0.9506,-0.9514,-0.9307,-0.8531,-0.8977,-0.9006,-0.8779,-0.8581,-0.8457,-0.8655,-0.8655,-0.8602,-0.8031,-0.7506,-0.7055,-0.6481,-0.5734,-0.5233,-0.53,-0.5002,-0.4789,-0.4766,-0.4772,-0.4765,-0.4753,-0.4694,-0.4643,-0.4644,-0.4628,-0.4638,-0.4642,-0.4644,-0.4634,-0.4634,-0.4617,-0.4601,-0.4609,-0.4615,-0.4617,-0.4624,-0.4582,-0.4523,-0.4507,-0.4498,-0.4492,-0.4402,-0.4252,-0.3993,-0.3664,-0.3666,-0.3808,-0.3764,-0.3606,-0.3717,-1.5207,-1.4346,-1.4322,-1.2859,-1.0768,-1.1321,-1.1663,-1.1585,-1.1292,-1.0592,-0.9628,-0.9599,-0.9599,-0.9599,-0.9599,-0.9599,-0.9599,-0.9599,-0.9599,-0.9599,-0.9599,-0.9599,-0.9599,-0.9599,-0.9599,-0.9599,-0.9599,-0.9599,-0.9599,-0.9599,-0.9599,-0.9599,-0.9599,-0.9599,-0.9599,-0.9599,-0.9599,-0.9587,-0.9522,-0.9461,-0.9417,-0.9336,-0.9251,-0.9279,-0.9291,-0.9291,-0.9275,-0.9283,-0.9295,-0.9291,-0.9299,-0.9336,-0.9421,-0.9478,-0.9506,-0.9575,-0.9599,-0.9599,-0.9599,-0.9599,-0.9599,-0.9583,-0.9587,-0.9603,-0.9599,-0.9599,-0.9426,-0.9476,-0.9525,-0.9599,-0.9599,-0.9402,-0.9253,-0.8705,-0.818,-0.7705,-0.7301,-0.6678,-0.6157,-0.5832,-0.5484,-0.516,-0.4809,-0.4809,-0.4795,-0.4773,-0.4748,-0.4708,-0.4718,-0.4702,-0.4694,-0.4694,-0.4689,-0.4675,-0.4659,-0.4677,-0.4696,-0.4702,-0.47,-0.4673,-0.4661,-0.4656,-0.464,-0.4598,-0.4596,-0.4636,-0.4547,-0.4408,-0.4085,-0.3707,-0.3753,-0.3819,-0.3723,-0.3564,-0.3384,-1.5231,-1.4346,-1.4346,-1.3679,-1.2678,-1.2635,-1.2654,-1.2557,-1.1707,-1.0739,-0.9846,-0.9702,-0.9599,-0.9599,-0.9599,-0.9599,-0.9599,-0.9599,-0.9599,-0.9599,-0.9599,-0.9599,-0.9599,-0.9599,-0.9599,-0.9599,-0.9599,-0.9599,-0.9599,-0.9599,-0.9599,-0.9599,-0.9599,-0.9599,-0.9599,-0.9599,-0.9599,-0.9599,-0.9587,-0.9571,-0.9555,-0.9522,-0.9506,-0.9502,-0.9498,-0.9486,-0.9482,-0.9486,-0.9478,-0.9482,-0.9494,-0.9543,-0.9567,-0.9579,-0.96,-0.962,-0.9599,-0.9599,-0.9599,-0.9599,-0.9599,-0.9599,-0.9599,-0.9599,-0.9599,-0.9599,-0.9599,-0.9599,-0.9599,-0.9599,-0.9599,-0.9599,-0.9525,-0.9327,-0.8754,-0.8453,-0.8049,-0.7475,-0.693,-0.6634,-0.6212,-0.5739,-0.5186,-0.4809,-0.4809,-0.4778,-0.478,-0.4793,-0.4769,-0.4755,-0.4736,-0.4732,-0.4728,-0.4728,-0.4724,-0.4765,-0.4787,-0.4793,-0.4773,-0.4732,-0.473,-0.4732,-0.4712,-0.4685,-0.4683,-0.4716,-0.4651,-0.4599,-0.428,-0.4013,-0.3704,-0.3673,-0.3599,-0.3433,-0.3163,-1.5611,-1.5296,-1.5302,-1.5081,-1.4669,-1.4022,-1.3757,-1.3559,-1.2659,-1.1609,-1.0641,-0.999,-0.9599,-0.9599,-0.9599,-0.9599,-0.9599,-0.9599,-0.9599,-0.9599,-0.9599,-0.9599,-0.9599,-0.9599,-0.9599,-0.9599,-0.9599,-0.9599,-0.9599,-0.9599,-0.9599,-0.9599,-0.9599,-0.9599,-0.9599,-0.9599,-0.9599,-0.9599,-0.9599,-0.9599,-0.9599,-0.9599,-0.9599,-0.9599,-0.9599,-0.9599,-0.9599,-0.9599,-0.9599,-0.9599,-0.9599,-0.9599,-0.9599,-0.9599,-0.9599,-0.9599,-0.9599,-0.9599,-0.9599,-0.9599,-0.9599,-0.9599,-0.9599,-0.9599,-0.9599,-0.9599,-0.9599,-0.9599,-0.9599,-0.9599,-0.9599,-0.9599,-0.9575,-0.955,-0.9249,-0.9249,-0.8899,-0.8149,-0.7602,-0.7556,-0.726,-0.6439,-0.5762,-0.516,-0.501,-0.4834,-0.4782,-0.4782,-0.4791,-0.4791,-0.4783,-0.4785,-0.4785,-0.477,-0.4782,-0.4782,-0.4782,-0.4801,-0.4799,-0.4787,-0.4774,-0.4782,-0.4768,-0.4746,-0.4771,-0.4787,-0.4741,-0.4673,-0.4566,-0.4332,-0.4053,-0.3813,-0.3779,-0.3338,-0.2693,-1.5801,-1.5801,-1.5801,-1.5801,-1.5713,-1.5088,-1.4651,-1.4172,-1.3167,-1.2145,-1.1126,-1.0088,-0.9599,-0.9599,-0.9599,-0.9599,-0.9599,-0.9599,-0.9599,-0.9599,-0.9599,-0.9599,-0.9599,-0.9599,-0.9599,-0.9599,-0.9599,-0.9599,-0.9599,-0.9599,-0.9599,-0.9599,-0.9599,-0.9599,-0.9599,-0.9599,-0.9599,-0.9599,-0.9599,-0.9599,-0.9599,-0.9599,-0.9599,-0.9599,-0.9599,-0.9599,-0.9599,-0.9599,-0.9599,-0.9599,-0.9599,-0.9599,-0.9599,-0.9599,-0.9599,-0.9599,-0.9599,-0.9599,-0.9599,-0.9599,-0.9599,-0.9599,-0.9599,-0.9599,-0.9599,-0.9599,-0.9599,-0.9599,-0.9599,-0.9599,-0.9599,-0.9599,-0.9599,-0.9599,-0.9575,-0.955,-0.9398,-0.8651,-0.8326,-0.828,-0.7982,-0.7135,-0.6314,-0.5714,-0.5263,-0.501,-0.4782,-0.4809,-0.4809,-0.4782,-0.4782,-0.4782,-0.4782,-0.4782,-0.4782,-0.4782,-0.4782,-0.4782,-0.4782,-0.4782,-0.4782,-0.4782,-0.4782,-0.4782,-0.478,-0.4799,-0.4795,-0.4724,-0.4667,-0.4566,-0.4393,-0.4171,-0.4031,-0.3485,-0.2842,-1.5801,-1.5801,-1.5801,-1.5801,-1.5801,-1.5706,-1.5207,-1.4292,-1.327,-1.229,-1.1292,-1.0306,-0.9797,-0.9702,-0.9653,-0.9599,-0.9599,-0.9599,-0.9599,-0.9599,-0.9599,-0.9599,-0.9599,-0.9599,-0.9599,-0.9599,-0.9599,-0.9599,-0.9599,-0.9599,-0.9599,-0.9599,-0.9599,-0.9599,-0.9599,-0.9599,-0.9599,-0.9599,-0.9599,-0.9599,-0.9599,-0.9599,-0.9599,-0.9599,-0.9599,-0.9599,-0.9599,-0.9599,-0.9599,-0.9599,-0.9599,-0.9599,-0.9599,-0.9599,-0.9599,-0.9599,-0.9599,-0.9599,-0.9599,-0.9599,-0.9599,-0.9599,-0.9599,-0.9599,-0.9599,-0.9599,-0.9599,-0.9599,-0.9599,-0.9599,-0.9599,-0.9599,-0.9599,-0.9599,-0.9599,-0.9599,-0.9599,-0.9278,-0.9027,-0.8779,-0.8457,-0.7761,-0.6864,-0.6189,-0.5837,-0.5363,-0.516,-0.4935,-0.491,-0.4782,-0.4782,-0.4782,-0.4782,-0.4782,-0.4782,-0.4782,-0.4782,-0.4782,-0.4782,-0.4782,-0.4782,-0.4782,-0.4782,-0.4782,-0.4782,-0.478,-0.4801,-0.4801,-0.4766,-0.4666,-0.4561,-0.4512,-0.4333,-0.4027,-0.356,-1.5801,-1.5801,-1.5801,-1.5801,-1.5801,-1.5801,-1.5611,-1.5255,-1.4286,-1.3414,-1.2732,-1.1346,-1.0478,-1.0167,-0.9776,-0.9653,-0.9599,-0.9599,-0.9599,-0.9599,-0.9599,-0.9599,-0.9599,-0.9599,-0.9599,-0.9599,-0.9599,-0.9599,-0.9599,-0.9599,-0.9599,-0.9599,-0.9599,-0.9599,-0.9599,-0.9599,-0.9599,-0.9599,-0.9599,-0.9599,-0.9599,-0.9599,-0.9599,-0.9599,-0.9599,-0.9599,-0.9599,-0.9599,-0.9599,-0.9599,-0.9599,-0.9599,-0.9599,-0.9599,-0.9599,-0.9599,-0.9599,-0.9599,-0.9599,-0.9599,-0.9599,-0.9599,-0.9599,-0.9599,-0.9599,-0.9599,-0.9599,-0.9599,-0.9599,-0.9599,-0.9599,-0.9599,-0.9599,-0.9599,-0.9599,-0.9599,-0.9599,-0.955,-0.9303,-0.9204,-0.8857,-0.8357,-0.7462,-0.7039,-0.6637,-0.6014,-0.5589,-0.5388,-0.5087,-0.496,-0.4782,-0.4782,-0.4782,-0.4782,-0.4782,-0.4782,-0.4782,-0.4782,-0.4782,-0.4782,-0.4782,-0.4782,-0.4782,-0.4782,-0.4782,-0.4782,-0.4782,-0.4782,-0.4782,-0.4782,-0.4711,-0.4691,-0.4618,-0.4334,-0.416,-1.5801,-1.5801,-1.5903,-1.6028,-1.6116,-1.6116,-1.6069,-1.5761,-1.4771,-1.4004,-1.3342,-1.1853,-1.0886,-1.0339,-0.9871,-0.9599,-0.9599,-0.9599,-0.9599,-0.9599,-0.9599,-0.9599,-0.9599,-0.9599,-0.9599,-0.9599,-0.9599,-0.9599,-0.9599,-0.9599,-0.9599,-0.9599,-0.9599,-0.9599,-0.9599,-0.9599,-0.9599,-0.9599,-0.9599,-0.9599,-0.9599,-0.9599,-0.9599,-0.9599,-0.9599,-0.9599,-0.9599,-0.9599,-0.9599,-0.9599,-0.9599,-0.9599,-0.9599,-0.9599,-0.9599,-0.9599,-0.9599,-0.9599,-0.9599,-0.9599,-0.9599,-0.9599,-0.9599,-0.9599,-0.9599,-0.9599,-0.9599,-0.9599,-0.9599,-0.9599,-0.9599,-0.9599,-0.9599,-0.9599,-0.9599,-0.9599,-0.9599,-0.9599,-0.9554,-0.9505,-0.9204,-0.8804,-0.8304,-0.7932,-0.7434,-0.6811,-0.6439,-0.6339,-0.5787,-0.5236,-0.496,-0.4782,-0.4782,-0.4782,-0.4782,-0.4782,-0.4782,-0.4782,-0.4782,-0.4782,-0.4782,-0.4782,-0.4782,-0.4782,-0.4782,-0.4782,-0.4782,-0.4782,-0.4782,-0.4782,-0.4782,-0.4773,-0.474,-0.4642,-0.4543,-1.5801,-1.5872,-1.613,-1.6353,-1.6565,-1.6565,-1.6423,-1.6082,-1.5016,-1.4172,-1.3511,-1.2169,-1.1419,-1.1066,-1.0359,-0.9965,-0.9871,-0.9797,-0.9599,-0.9599,-0.9599,-0.9599,-0.9599,-0.9599,-0.9599,-0.9599,-0.9599,-0.9599,-0.9599,-0.9599,-0.9599,-0.9599,-0.9599,-0.9599,-0.9599,-0.9599,-0.9599,-0.9599,-0.9599,-0.9599,-0.9599,-0.9599,-0.9599,-0.9599,-0.9599,-0.9599,-0.9599,-0.9599,-0.9599,-0.9599,-0.9599,-0.9599,-0.9599,-0.9599,-0.9599,-0.9599,-0.9599,-0.9599,-0.9599,-0.9599,-0.9599,-0.9599,-0.9599,-0.9599,-0.9599,-0.9599,-0.9599,-0.9599,-0.9599,-0.9599,-0.9599,-0.9599,-0.9599,-0.9599,-0.9599,-0.9599,-0.9599,-0.9599,-0.9603,-0.9579,-0.9476,-0.9101,-0.8882,-0.8482,-0.8184,-0.7584,-0.7285,-0.7213,-0.6686,-0.5862,-0.5461,-0.5133,-0.4857,-0.4857,-0.4782,-0.4782,-0.4782,-0.4782,-0.4857,-0.4782,-0.4782,-0.4782,-0.4782,-0.4782,-0.4782,-0.4782,-0.4782,-0.4782,-0.4782,-0.4782,-0.4782,-0.4782,-0.4772,-0.4756,-0.4765,-1.5927,-1.6123,-1.64,-1.6565,-1.6612,-1.6612,-1.6447,-1.6194,-1.591,-1.5333,-1.4682,-1.4064,-1.3336,-1.2422,-1.1277,-1.0788,-1.0592,-1.0084,-0.9698,-0.9599,-0.9599,-0.9599,-0.9599,-0.9599,-0.9599,-0.9599,-0.9599,-0.9599,-0.9599,-0.9599,-0.9599,-0.9599,-0.9599,-0.9599,-0.9599,-0.9599,-0.9599,-0.9599,-0.9599,-0.9599,-0.9599,-0.9599,-0.9599,-0.9599,-0.9599,-0.9599,-0.9599,-0.9599,-0.9599,-0.9599,-0.9599,-0.9599,-0.9599,-0.9599,-0.9599,-0.9599,-0.9599,-0.9599,-0.9599,-0.9599,-0.9599,-0.9599,-0.9599,-0.9599,-0.9599,-0.9599,-0.9599,-0.9599,-0.9599,-0.9599,-0.9599,-0.9599,-0.9599,-0.9599,-0.9599,-0.9599,-0.9599,-0.9599,-0.9599,-0.9599,-0.9599,-0.9476,-0.9282,-0.908,-0.8829,-0.8531,-0.8233,-0.796,-0.7462,-0.6811,-0.6437,-0.5987,-0.5108,-0.4958,-0.4935,-0.5133,-0.5334,-0.5208,-0.5208,-0.5058,-0.4832,-0.4782,-0.4782,-0.4782,-0.4782,-0.4782,-0.4782,-0.4782,-0.4782,-0.4782,-0.4782,-0.4782,-0.4759,-0.4722,-0.4751,-1.595,-1.6248,-1.6619,-1.6824,-1.6911,-1.6911,-1.6777,-1.6579,-1.6555,-1.6201,-1.5506,-1.4843,-1.416,-1.3487,-1.2315,-1.1512,-1.1243,-1.0616,-1.006,-0.9747,-0.9599,-0.9599,-0.9599,-0.9599,-0.9599,-0.9599,-0.9599,-0.9599,-0.9599,-0.9599,-0.9599,-0.9599,-0.9599,-0.9599,-0.9599,-0.9599,-0.9599,-0.9599,-0.9599,-0.9599,-0.9599,-0.9599,-0.9599,-0.9599,-0.9599,-0.9599,-0.9599,-0.9599,-0.9599,-0.9599,-0.9599,-0.9599,-0.9599,-0.9599,-0.9599,-0.9599,-0.9599,-0.9599,-0.9599,-0.9599,-0.9599,-0.9599,-0.9599,-0.9599,-0.9599,-0.9599,-0.9599,-0.9599,-0.9599,-0.9599,-0.9599,-0.9599,-0.9599,-0.9599,-0.9599,-0.9599,-0.9599,-0.9599,-0.9599,-0.9599,-0.9599,-0.9575,-0.9455,-0.943,-0.9229,-0.9204,-0.8952,-0.8853,-0.8357,-0.7811,-0.7437,-0.7064,-0.6309,-0.5609,-0.5514,-0.5812,-0.6159,-0.5984,-0.5684,-0.5359,-0.5158,-0.4908,-0.4782,-0.4782,-0.4782,-0.4782,-0.4782,-0.4782,-0.4782,-0.4782,-0.4782,-0.4782,-0.4734,-0.4661,-0.4583,-1.6028,-1.6366,-1.6831,-1.7129,-1.7279,-1.7286,-1.7153,-1.6925,-1.6909,-1.6626,-1.6004,-1.4992,-1.4244,-1.3752,-1.3119,-1.2266,-1.156,-1.1101,-1.0498,-0.9821,-0.9624,-0.9599,-0.9599,-0.9599,-0.9599,-0.9599,-0.9599,-0.9599,-0.9599,-0.9599,-0.9599,-0.9599,-0.9599,-0.9599,-0.9599,-0.9599,-0.9599,-0.9599,-0.9599,-0.9599,-0.9599,-0.9599,-0.9599,-0.9599,-0.9599,-0.9599,-0.9599,-0.9599,-0.9599,-0.9599,-0.9599,-0.9599,-0.9599,-0.9599,-0.9599,-0.9599,-0.9599,-0.9599,-0.9599,-0.9599,-0.9599,-0.9599,-0.9599,-0.9599,-0.9599,-0.9599,-0.9599,-0.9599,-0.9599,-0.9599,-0.9599,-0.9599,-0.9599,-0.9599,-0.9599,-0.9599,-0.9599,-0.9599,-0.9599,-0.9599,-0.9599,-0.9599,-0.9599,-0.9599,-0.9599,-0.9599,-0.9599,-0.9599,-0.9426,-0.8878,-0.8407,-0.8233,-0.7829,-0.716,-0.6389,-0.6437,-0.6861,-0.6736,-0.6409,-0.5909,-0.5484,-0.5286,-0.506,-0.4782,-0.4782,-0.4834,-0.4809,-0.4782,-0.4782,-0.4782,-0.4782,-0.4784,-0.4684,-0.4583,-0.4334,-1.6407,-1.6885,-1.7129,-1.7263,-1.7309,-1.7309,-1.7075,-1.673,-1.6683,-1.6376,-1.595,-1.5761,-1.5415,-1.5296,-1.4358,-1.336,-1.2193,-1.1658,-1.0621,-0.9723,-0.9624,-0.9599,-0.9599,-0.9599,-0.9599,-0.9599,-0.9599,-0.9599,-0.9599,-0.9599,-0.9599,-0.9599,-0.9599,-0.9599,-0.9599,-0.9599,-0.9599,-0.9599,-0.9599,-0.9599,-0.9599,-0.9599,-0.9599,-0.9599,-0.9599,-0.9599,-0.9599,-0.9599,-0.9599,-0.9599,-0.9599,-0.9599,-0.9599,-0.9599,-0.9599,-0.9599,-0.9599,-0.9599,-0.9599,-0.9599,-0.9599,-0.9599,-0.9599,-0.9599,-0.9599,-0.9599,-0.9599,-0.9599,-0.9599,-0.9599,-0.9599,-0.9599,-0.9599,-0.9599,-0.9599,-0.9599,-0.9599,-0.9599,-0.9599,-0.9599,-0.9599,-0.9599,-0.9599,-0.9599,-0.9599,-0.9599,-0.9599,-0.9599,-0.9599,-0.9451,-0.9278,-0.913,-0.8977,-0.8255,-0.7285,-0.7185,-0.7409,-0.7335,-0.7185,-0.6783,-0.6309,-0.5739,-0.5463,-0.496,-0.486,-0.491,-0.486,-0.4782,-0.4782,-0.4782,-0.4782,-0.4759,-0.4659,-0.4435,-0.4135]},{"header":{"parameterUnit":"m.s-1","parameterCategory":1,"la1":31.0,"la2":29.5877,"lo1":-88.7671,"lo2":-86.6584,"dy":0.0162,"dx":0.0185,"nx":115,"ny":88,"refTime":"2024-08-30T12:00:00:Z","depth":0,"parameterNumber":3,"parameterNumberName":"V-component_of_WINDS"},"data":[0.0,0.0,0.0,0.0,0.0,0.0,0.0,0.0,0.0,0.0,0.0,0.0,0.0,0.0,0.0,0.0,0.0,0.0,0.0,0.0,0.0,0.0,0.0,0.0,0.0,0.0,0.0,0.0,0.0,0.0,0.0,0.0,0.0,0.0,0.0,0.0,0.0,0.0,0.0,0.0,0.0,0.0,0.0,0.0,0.0,0.0,0.0,0.0,0.0,0.0,0.0,0.0,0.0,0.0,0.0,0.0,0.0,0.0,0.0,0.0,0.0,0.0,0.0,0.0,0.0,0.0,0.0,0.0,0.0,0.0,0.0,0.0,0.0,0.0,0.0,0.0,0.0,0.0,0.0,0.0,0.0,0.0,0.0,0.0,0.0,0.0,0.0,0.0,0.0,0.0,0.0,0.0,0.0,0.0,0.0,0.0,0.0,0.0,0.0,0.0,0.0,0.0,0.0,0.0,0.0,0.0,0.0,0.0,0.0,0.0,0.0,0.0,0.0,0.0,0.0,0.0,0.0,0.0,0.0,0.0,0.0,0.0,0.0,0.0,0.0,0.0,0.0,0.0,0.0,0.0,0.0,0.0,0.0,0.0,0.0,0.0,0.0,0.0,0.0,0.0,0.0,0.0,0.0,0.0,0.0,0.0,0.0,0.0,0.0,0.0,0.0,0.0,0.0,0.0,0.0,0.0,0.0,0.0,0.0,0.0,0.0,0.0,0.0,0.0,0.0,0.0,0.0,0.0,0.0,0.0,0.0,0.0,0.0,0.0,0.0,0.0,0.0,0.0,0.0,0.0,0.0,0.0,0.0,0.0,0.0,0.0,0.0,0.0,0.0,0.0,0.0,0.0,0.0,0.0,0.0,0.0,0.0,0.0,0.0,0.0,0.0,0.0,0.0,0.0,0.0,0.0,0.0,0.0,0.0,0.0,0.0,0.0,0.0,0.0,0.0,0.0,0.0,0.0,0.0,0.0,0.0,0.0,0.0,0.0,0.0,0.0,0.0,0.0,0.0,0.0,0.0,0.0,0.0,0.0,0.0,0.0,0.0,0.0,0.0,0.0,0.0,0.0,0.0,0.0,0.0,0.0,0.0,0.0,0.0,0.0,0.0,0.0,0.0,0.0,0.0,0.0,0.0,0.0,0.0,0.0,0.0,0.0,0.0,0.0,0.0,0.0,0.0,0.0,0.0,0.0,0.0,0.0,0.0,0.0,0.0,0.0,0.0,0.0,0.0,0.0,0.0,0.0,0.0,0.0,0.0,0.0,0.0,0.0,0.0,0.0,0.0,0.0,0.0,0.0,0.0,0.0,0.0,0.0,0.0,0.0,0.0,0.0,0.0,0.0,0.0,0.0,0.0,0.0,0.0,0.0,0.0,0.0,0.0,0.0,0.0,0.0,0.0,0.0,0.0,0.0,0.0,0.0,0.0,0.0,0.0,0.0,0.0,0.0,0.0,0.0,0.0,0.0,0.0,0.0,0.0,0.0,0.0,0.0,0.0,0.0,0.0,0.0,0.0,0.0,0.0,0.0,0.0,0.0,0.0,0.0,0.0,0.0,0.0,0.0,0.0,0.0,0.0,0.0,0.0,0.0,0.0,0.0,0.0,0.0,0.0,0.0,0.0,0.0,0.0,0.0,0.0,0.0,0.0,0.0,0.0,0.0,0.0,0.0,0.0,0.0,0.0,0.0,0.0,0.0,0.0,0.0,0.0,0.0,0.0,0.0,0.0,0.0,0.0,0.0,0.0,0.0,0.0,0.0,0.0,0.0,0.0,0.0,0.0,0.0,0.0,0.0,0.0,0.0,0.0,0.0,0.0,0.0,0.0,0.0,0.0,0.0,0.0,0.0,0.0,0.0,0.0,0.0,0.0,0.0,0.0,0.0,0.0,0.0,0.0,0.0,0.0,0.0,0.0,0.0,0.0,0.0,0.0,0.0,0.0,0.0,0.0,0.0,0.0,0.0,0.0,0.0,0.0,0.0,0.0,0.0,0.0,0.0,0.0,0.0,0.0,0.0,0.0,0.0,0.0,0.0,0.0,0.0,0.0,0.0,0.0,0.0,0.0,0.0,0.0,0.0,0.0,0.0,0.0,0.0,0.0,0.0,0.0,0.0,0.0,0.0,0.0,0.0,0.0,0.0,0.0,0.0,0.0,0.0,0.0,0.0,0.0,0.0,0.0,0.0,0.0,0.0,0.0,0.0,0.0,0.0,0.0,0.0,0.0,0.0,0.0,0.0,0.0,0.0,0.0,0.0,0.0,0.0,0.0,0.0,0.0,0.0,0.0,0.0,0.0,0.0,0.0,0.0,0.0,0.0,0.0,0.0,0.0,0.0,0.0,0.0,0.0,0.0,0.0,0.0,0.0,0.0,0.0,0.0,0.0,0.0,0.0,0.0,0.0,0.0,0.0,0.0,0.0,0.0,0.0,0.0,0.0,0.0,0.0,0.0,0.0,0.0,0.0,0.0,0.0,0.0,0.0,0.0,0.0,0.0,0.0,0.0,0.0,0.0,0.0,0.0,0.0,0.0,0.0,0.0,0.0,0.0,0.0,0.0,0.0,0.0,0.0,0.0,0.0,0.0,0.0,0.0,0.0,0.0,0.0,0.0,0.0,0.0,0.0,0.0,0.0,0.0,0.0,0.0,0.0,0.0,0.0,0.0,0.0,0.0,0.0,0.0,0.0,0.0,0.0,0.0,0.0,0.0,0.0,0.0,0.0,0.0,0.0,0.0,0.0,0.0,0.0,0.0,0.0,0.0,0.0,0.0,0.0,0.0,0.0,0.0,0.0,0.0,0.0,0.0,0.0,0.0,0.0,0.0,0.0,0.0,0.0,0.0,0.0,0.0,0.0,0.0,0.0,0.0,0.0,0.0,0.0,0.0,0.0,0.0,0.0,0.0,0.0,0.0,0.0,0.0,0.0,0.0,0.0,0.0,0.0,0.0,0.0,0.0,0.0,0.0,0.0,0.0,0.0,0.0,0.0,0.0,0.0,0.0,0.0,0.0,0.0,0.0,0.0,0.0,0.0,0.0,0.0,0.0,0.0,0.0,0.0,0.0,0.0,0.0,0.0,0.0,0.0,0.0,0.0,0.0,0.0,0.0,0.0,0.0,0.0,0.0,0.0,0.0,0.0,0.0,0.0,0.0,0.0,0.0,0.0,0.0,0.0,0.0,0.0,0.0,0.0,0.0,0.0,0.0,0.0,0.0,0.0,0.0,0.0,0.0,0.0,0.0,0.0,0.0,0.0,0.0,0.0,0.0,0.0,0.0,0.0,0.0,0.0,0.0,0.0,0.0,0.0,0.0,0.0,0.0,0.0,0.0,0.0,0.0,0.0,0.0,0.0,0.0,0.0,0.0,0.0,0.0,0.0,0.0,0.0,0.0,0.0,0.0,0.0,0.0,0.0,0.0,0.0,0.0,0.0,0.0,0.0,0.0,0.0,0.0,0.0,0.0,0.0,0.0,0.0,0.0,0.0,0.0,0.0,0.0,0.0,0.0,0.0,0.0,0.0,0.0,0.0,0.0,0.0,0.0,0.0,0.0,0.0,0.0,0.0,0.0,0.0,0.0,0.0,0.0,0.0,0.0,0.0,0.0,0.0,0.0,0.0,0.0,0.0,0.0,0.0,0.0,0.0,0.0,0.0,0.0,0.0,0.0,0.0,0.0,0.0,0.0,0.0,0.0,0.0,0.0,0.0,0.0,0.0,0.0,0.0,0.0,0.0,0.0,0.0,0.0,0.0,0.0,0.0,0.0,0.0,0.0,0.0,0.0,0.0,0.0,0.0,0.0,0.0,0.0,0.0,0.0,0.0,0.0,0.0,0.0,0.0,0.0,0.0,0.0,0.0,0.0,0.0,0.0,0.0,0.0,0.0,0.0,0.0,0.0,0.0,0.0,0.0,0.0,0.0,0.0,0.0,0.0,0.0,0.0,0.0,0.0,0.0,0.0,0.0,0.0,0.0,0.0,0.0,0.0,0.0,0.0,0.0,0.0,0.0,0.0,0.0,0.0,0.0,0.0,0.0,0.0,0.0,0.0,0.0,0.0,0.0,0.0,0.0,0.0,0.0,0.0,0.0,0.0,0.0,0.0,0.0,0.0,0.0,0.0,0.0,0.0,0.0,0.0,0.0,0.0,0.0,0.0,0.0,0.0,0.0,0.0,0.0,0.0,0.0,0.0,0.0,0.0,0.0,0.0,0.0,0.0,0.0,0.0,0.0,0.0,0.0,0.0,0.0,0.0,0.0,0.0,0.0,0.0,0.0,0.0,0.807,0.0,0.0,0.0,0.0,0.0,0.0,0.0,0.0,0.0,0.0,0.0,0.0,0.0,0.0,0.0,0.0,0.0,0.0,0.0,0.0,0.0,0.0,0.0,0.0,0.0,0.0,0.0,0.0,0.0,0.0,0.0,0.0,0.0,0.0,0.0,0.0,0.0,0.0,0.0,0.0,0.0,0.0,0.0,0.0,0.0,0.0,0.0,0.0,0.0,0.0,0.0,0.0,0.0,0.0,0.0,0.0,0.0,0.0,0.0,0.0,0.0,0.0,0.0,0.0,0.0,0.0,0.0,0.0,0.0,0.0,0.0,0.0,0.0,0.0,0.0,0.0,0.0,0.0,0.0,0.0,0.0,0.0,0.0,0.0,0.0,0.0,0.0,0.0,0.0,0.0,0.0,0.0,0.0,0.0,0.0,0.0,0.0,0.0,0.0,0.0,0.0,0.0,0.0,0.0,0.0,0.0,0.0,0.0,0.0,0.0,0.7863,0.7856,0.7989,0.8101,0.821,0.0,0.0,0.0,0.0,0.0,0.0,0.0,0.0,0.0,0.0,0.0,0.0,0.0,0.0,0.0,0.0,0.0,0.0,0.0,0.0,0.0,0.0,0.0,0.0,0.0,0.0,0.0,0.0,0.0,0.0,0.0,0.0,0.0,0.0,0.0,0.0,0.0,0.0,0.0,0.0,0.0,0.0,0.0,0.0,0.0,0.0,0.0,0.0,0.0,0.0,0.0,0.0,0.0,0.0,0.0,0.0,0.0,0.0,0.0,0.0,0.0,0.0,0.0,0.0,0.0,0.0,0.0,0.0,0.0,0.0,0.0,0.0,0.0,0.0,0.0,0.0,0.0,0.0,0.0,0.0,0.0,0.0,0.0,0.0,0.0,0.0,0.0,0.0,0.0,0.0,0.0,0.0,0.0,0.0,0.0,0.0,0.0,0.0,0.0,0.0,0.0,0.0,0.0,0.0,0.0,0.0,0.0,0.0,0.0,0.0,0.0,0.0,0.8323,0.8531,0.8593,0.0,0.0,0.0,0.0,0.0,0.0,0.0,0.0,0.0,0.0,0.0,0.0,0.0,0.0,0.0,0.0,0.0,0.0,0.0,0.0,0.0,0.0,0.0,0.0,0.0,0.0,0.0,0.0,0.0,0.0,0.0,0.0,0.0,0.0,0.0,0.0,0.0,0.0,0.0,0.0,0.0,0.0,0.0,0.0,0.0,0.0,0.0,0.0,0.0,0.0,0.0,0.0,0.0,0.0,0.0,0.0,0.0,0.0,0.0,0.0,0.0,0.0,0.0,0.0,0.0,0.0,0.0,0.0,0.0,0.0,0.0,0.0,0.0,0.0,0.0,0.0,0.0,0.0,0.0,0.0,0.0,0.0,0.0,0.0,0.0,0.0,0.0,0.0,0.0,0.0,0.0,0.0,0.0,0.0,0.0,0.0,0.0,0.0,0.0,0.0,0.0,0.0,0.0,0.0,0.0,0.0,0.0,0.0,0.0,0.0,0.8205,0.8282,0.8998,0.0,0.947,0.0,0.0,0.0,0.0,0.0,0.0,0.0,0.0,0.0,0.0,0.0,0.0,0.0,0.0,0.0,0.0,0.0,0.0,0.0,0.0,0.0,0.0,0.0,0.0,0.0,0.0,0.0,0.0,0.0,0.0,0.0,0.0,0.0,0.0,0.0,0.0,0.0,0.0,0.0,0.0,0.0,0.0,0.0,0.0,0.0,0.0,0.0,0.0,0.0,0.0,0.0,0.0,0.0,0.0,0.0,0.0,0.0,0.0,0.0,0.0,0.0,0.0,0.0,0.0,0.0,0.0,0.0,0.0,0.0,0.0,0.0,0.0,0.0,0.0,0.0,0.0,0.0,0.0,0.0,0.0,0.0,0.0,0.0,0.0,0.0,0.0,0.0,0.0,0.0,0.0,0.0,0.0,0.0,0.0,0.0,0.0,0.0,0.0,0.0,0.0,0.0,0.0,0.0,0.0,0.0,0.0,0.0,0.0,0.0,0.0,0.0,0.8892,0.9317,0.9575,0.0,0.0,0.0,0.0,0.0,0.0,0.0,0.0,0.0,0.0,0.0,0.0,0.0,0.0,0.0,0.0,0.0,0.0,0.0,0.0,0.0,0.0,0.0,0.0,0.0,0.0,0.0,0.0,0.0,0.0,0.0,0.0,0.0,0.0,0.0,0.0,0.0,0.0,0.0,0.0,0.0,0.0,0.0,0.0,0.0,0.0,0.0,0.0,0.0,0.0,0.0,0.0,0.0,0.0,0.0,0.0,0.0,0.0,0.0,0.0,0.0,0.0,0.0,0.0,0.0,0.0,0.0,0.0,0.0,0.0,0.0,0.0,0.0,0.0,0.0,0.0,0.0,0.0,0.0,0.0,0.0,0.0,0.0,0.0,0.0,0.0,0.0,0.0,0.0,0.0,0.0,0.0,0.0,0.0,0.0,0.0,0.0,0.0,0.0,0.0,0.0,0.0,0.0,0.0,0.0,0.0,0.0,0.0,0.0,0.0,0.9011,0.0,0.963,0.9803,0.9811,0.96,0.0,0.0,0.0,0.0,0.0,0.0,0.0,0.0,0.0,0.0,0.0,0.0,0.0,0.0,0.0,0.0,0.0,0.0,0.0,0.0,0.0,0.0,0.0,0.0,0.0,0.0,0.0,0.0,0.0,0.0,0.0,0.0,0.0,0.0,0.0,0.0,0.0,0.0,0.0,0.0,0.0,0.0,0.0,0.0,0.0,0.0,0.0,0.0,0.0,0.0,0.0,0.0,0.0,0.0,0.0,0.0,0.0,0.0,0.0,0.0,0.0,0.0,0.0,0.0,0.0,0.0,0.0,0.0,0.0,0.0,0.0,0.0,0.0,0.0,0.0,0.0,0.0,0.0,0.0,0.0,0.0,0.0,0.0,0.0,0.0,0.0,0.0,0.0,0.0,0.0,0.0,0.0,0.0,0.0,0.0,0.0,0.0,0.0,0.0,0.0,0.0,0.0,0.0,0.0,0.0,0.0,0.0,0.0,0.0,0.921,0.962,1.0415,1.0595,1.0322,0.0,0.0,0.0,0.0,0.0,0.0,0.0,0.0,0.0,0.0,0.0,0.0,0.0,0.0,0.0,0.0,0.0,0.0,0.0,0.0,0.0,0.0,0.0,0.0,0.0,0.0,0.0,0.0,0.0,0.0,0.0,0.0,0.0,0.0,0.0,0.0,0.0,0.0,0.0,0.0,0.0,0.0,0.0,0.0,0.0,0.0,0.0,0.0,0.0,0.0,0.0,0.0,0.0,0.0,0.0,0.0,0.0,0.0,0.0,0.0,0.0,0.0,0.0,0.0,0.0,0.0,0.0,0.0,0.0,0.0,0.0,0.0,0.0,0.0,0.0,0.0,0.0,0.0,0.0,0.0,0.0,0.0,0.0,0.0,0.0,0.0,0.0,0.0,0.0,0.0,0.0,0.0,0.0,0.0,0.0,0.0,0.0,0.0,0.0,0.0,0.0,0.0,0.0,0.0,0.0,0.0,0.0,0.0,0.0,0.8723,0.9145,0.9985,1.1163,1.0436,0.9872,0.0,0.0,0.0,0.0,0.0,0.0,0.0,0.0,0.0,0.0,0.0,0.0,0.0,0.0,0.0,0.0,0.0,0.0,0.0,0.0,0.0,0.0,0.0,0.0,0.0,0.0,0.0,0.0,0.0,0.0,0.0,0.0,0.0,0.0,0.0,0.0,0.0,0.0,0.0,0.0,0.0,0.0,0.0,0.0,0.0,0.0,0.0,0.0,0.0,0.0,0.0,0.0,0.0,0.0,0.0,0.0,0.0,0.0,0.0,0.0,0.0,0.0,0.0,0.0,0.0,0.0,0.0,0.0,0.0,0.0,0.0,0.0,0.0,0.0,0.0,0.0,0.0,0.0,0.0,0.0,0.0,0.0,0.0,0.0,0.0,0.0,0.0,0.0,0.0,0.0,0.0,0.0,0.0,0.0,0.0,0.0,0.0,0.0,0.0,0.0,0.0,0.0,0.0,0.0,0.0,0.0,0.0,0.0,0.0,0.9055,0.0,1.0535,0.0,1.044,0.9643,0.0,0.0,0.0,0.0,0.0,0.0,0.0,0.0,0.0,0.0,0.0,0.0,0.0,0.0,0.0,0.0,0.0,0.0,0.0,0.0,0.0,0.0,0.0,0.0,0.0,0.0,0.0,0.0,0.0,0.0,0.0,0.0,0.0,0.0,0.0,0.0,0.0,0.0,0.0,0.0,0.0,0.0,0.0,0.0,0.0,0.0,0.0,0.0,0.0,0.0,0.0,0.0,0.0,0.0,0.0,0.0,0.0,0.0,0.0,0.0,0.0,0.0,0.0,0.0,0.0,0.0,0.0,0.0,0.0,0.0,0.0,0.0,0.0,0.0,0.0,0.0,0.0,0.0,0.0,0.0,0.0,0.0,0.0,0.0,0.0,0.0,0.0,0.0,0.0,0.0,0.0,0.0,0.0,0.0,0.0,0.0,0.0,0.0,0.0,0.0,0.0,0.0,0.0,0.0,0.0,0.0,0.0,0.0,0.9077,1.0326,1.1109,1.1208,1.0591,1.0607,0.9697,0.0,0.0,0.0,0.0,0.0,0.0,0.0,0.0,0.0,0.0,0.0,0.0,0.0,0.0,0.0,0.0,0.0,0.0,0.0,0.0,0.0,0.0,0.0,0.0,0.0,0.0,0.0,0.0,0.0,0.0,0.0,0.0,0.0,0.0,0.0,0.0,0.0,0.0,0.0,0.0,0.0,0.0,0.0,0.0,0.0,0.0,0.0,0.0,0.0,0.0,0.0,0.0,0.0,0.0,0.0,0.0,0.0,0.0,0.0,0.0,0.0,0.0,0.0,0.0,0.0,0.0,0.0,0.0,0.0,0.0,0.0,0.0,0.0,0.0,0.0,0.0,0.0,0.0,0.0,0.0,0.0,0.0,0.0,0.0,0.0,0.0,0.0,0.0,0.0,0.0,0.0,0.0,0.0,0.0,0.0,0.0,0.0,0.0,0.0,0.0,0.0,0.0,0.0,0.0,0.0,0.0,0.0,0.0,0.0,0.9877,1.0531,1.13,1.2,1.0687,0.9877,0.0,0.0,0.0,0.0,0.0,0.0,0.0,0.0,0.0,0.0,0.0,0.0,0.0,0.0,0.0,0.0,0.0,0.0,0.0,0.0,0.0,0.0,0.0,0.0,0.0,0.0,0.0,0.0,0.0,0.0,0.0,0.0,0.0,0.0,0.0,0.0,0.0,0.0,0.0,0.0,0.0,0.0,0.0,0.0,0.0,0.0,0.0,0.0,0.0,0.0,0.0,0.0,0.0,0.0,0.0,0.0,0.0,0.0,0.0,0.0,0.0,0.0,0.0,0.0,0.0,0.0,0.0,0.0,0.0,0.0,0.0,0.0,0.0,0.0,0.0,0.0,0.0,0.0,0.0,0.0,0.0,0.0,0.0,0.0,0.0,0.0,0.0,0.0,0.0,0.0,0.0,0.0,0.0,0.0,0.0,0.0,0.0,0.0,0.0,0.0,0.0,0.0,0.0,0.0,0.0,0.0,0.0,0.0,0.0,1.1128,1.1642,1.2256,1.2889,1.1287,1.0278,0.9938,0.0,0.0,0.0,0.0,0.0,0.0,0.0,0.0,0.0,0.0,0.0,0.0,0.0,0.0,0.0,0.0,0.0,0.0,0.0,0.0,0.0,0.0,0.0,0.0,0.0,0.0,0.0,0.0,0.0,0.0,0.0,0.0,0.0,0.0,0.0,0.0,0.0,0.0,0.0,0.0,0.0,0.0,0.0,0.0,0.0,0.0,0.0,0.0,0.0,0.0,0.0,0.0,0.0,0.0,0.0,0.0,0.0,0.0,0.0,0.0,0.0,0.0,0.0,0.0,0.0,0.0,0.0,0.0,0.0,0.0,0.0,0.0,0.0,0.0,0.0,0.0,0.0,0.0,0.0,0.0,0.0,0.0,0.0,0.0,0.0,0.0,0.0,0.0,0.0,0.0,0.0,0.0,0.0,0.0,0.0,0.0,0.0,0.0,0.0,0.0,0.0,0.0,0.0,0.0,0.0,0.0,0.0,0.0,1.3671,1.418,1.4081,1.3356,1.2341,1.0921,0.0,0.0,0.0,0.0,0.0,0.0,0.0,0.0,0.0,0.0,0.0,0.0,0.0,0.0,0.0,0.0,0.0,0.0,0.0,0.0,0.0,0.0,0.0,0.0,0.0,0.0,0.0,0.0,0.0,0.0,0.0,0.0,0.0,0.0,0.0,0.0,0.0,0.0,0.0,0.0,0.0,0.0,0.0,0.0,0.0,0.0,0.0,0.0,0.0,0.0,0.0,0.0,0.0,0.0,0.0,0.0,0.0,0.0,0.0,0.0,0.0,0.0,0.0,0.0,0.0,0.0,0.0,0.0,0.0,0.0,0.0,0.0,0.0,0.0,0.0,0.0,0.0,0.0,0.0,0.0,0.0,0.0,0.0,0.0,0.0,0.0,0.0,0.0,0.0,0.0,0.0,0.0,0.0,0.0,0.0,0.0,0.0,0.0,0.0,0.0,0.0,0.0,0.0,0.0,0.0,0.0,0.0,0.0,0.0,1.4719,1.64,1.6871,1.5899,1.3421,1.2099,0.0,0.0,0.0,0.0,0.0,0.0,0.0,0.0,0.0,0.0,0.0,0.0,0.0,0.0,0.0,0.0,0.0,0.0,0.0,0.0,0.0,0.0,0.0,0.0,0.0,0.0,0.0,0.0,0.0,0.0,0.0,0.0,0.0,0.0,0.0,0.0,0.0,0.0,0.0,0.0,0.0,0.0,0.0,0.0,0.0,0.0,0.0,0.0,0.0,0.0,0.0,0.0,0.0,0.0,0.0,0.0,0.0,0.0,0.0,0.0,0.0,0.0,0.0,0.0,0.0,0.0,0.0,0.0,0.0,0.0,0.0,0.0,0.0,0.0,0.0,0.0,0.0,0.0,0.0,0.0,0.0,0.0,0.0,0.0,0.0,0.0,0.0,0.0,0.0,0.0,0.0,0.0,0.0,0.0,0.0,0.0,0.0,0.0,0.0,0.0,0.0,0.0,0.0,0.0,0.0,0.0,0.0,0.0,1.4891,1.6723,1.8649,1.9365,1.8803,1.6154,1.4161,0.0,0.0,0.0,0.0,0.0,0.0,0.0,0.0,0.0,0.0,0.0,0.0,0.0,0.0,0.0,0.0,0.0,0.0,0.0,0.0,0.0,0.0,0.0,0.0,0.0,0.0,0.0,0.0,0.0,0.0,0.0,0.0,0.0,0.0,0.0,0.0,0.0,0.0,0.0,0.0,0.0,0.0,0.0,0.0,0.0,0.0,0.0,0.0,0.0,0.0,0.0,0.0,0.0,0.0,0.0,0.0,0.0,0.0,0.0,0.0,0.0,0.0,0.0,0.0,0.0,0.0,0.0,0.0,0.0,0.0,0.0,0.0,0.0,0.0,0.0,0.0,0.0,0.0,0.0,0.0,0.0,0.0,0.0,0.0,0.0,0.0,0.0,0.0,0.0,0.0,0.0,0.0,0.0,0.0,0.0,0.0,0.0,0.0,0.0,0.0,0.0,0.0,0.0,0.0,0.0,0.0,0.0,0.0,1.6715,1.8973,2.0653,2.1533,2.1442,1.9313,1.6465,0.0,0.0,0.0,0.0,0.0,0.0,0.0,0.0,0.0,0.0,0.0,0.0,0.0,0.0,0.0,0.0,0.0,0.0,0.0,0.0,0.0,0.0,0.0,0.0,0.0,0.0,0.0,0.0,0.0,0.0,0.0,0.0,0.0,0.0,0.0,0.0,0.0,0.0,0.0,0.0,0.0,0.0,0.0,0.0,0.0,0.0,0.0,0.0,0.0,0.0,0.0,0.0,0.0,0.0,0.0,0.0,0.0,0.0,0.0,0.0,0.0,0.0,0.0,0.0,0.0,0.0,0.0,0.0,0.0,0.0,0.0,0.0,0.0,0.0,0.0,0.0,0.0,0.0,0.0,0.0,0.0,0.0,0.0,0.0,0.0,0.0,0.0,0.0,0.0,0.0,0.0,0.0,0.0,0.0,0.0,0.0,0.0,0.0,0.0,0.0,0.0,0.0,0.0,0.0,0.0,0.0,0.0,0.0,1.7322,1.9139,2.1238,2.2364,2.2341,1.9244,1.6633,0.0,0.0,0.0,0.0,0.0,0.0,0.0,0.0,0.0,0.0,0.0,0.0,0.0,0.0,0.0,0.0,0.0,0.0,0.0,0.0,0.0,0.0,0.0,0.0,0.0,0.0,0.0,0.0,0.0,0.0,0.0,0.0,0.0,0.0,0.0,0.0,0.0,0.0,0.0,0.0,0.0,0.0,0.0,0.0,0.0,0.0,0.0,0.0,0.8812,0.0,0.0,0.0,0.0,0.0,0.0,0.0,0.0,0.0,0.0,0.0,0.0,0.0,0.0,0.0,0.0,0.0,0.0,0.0,0.0,0.0,0.0,0.0,0.0,0.0,0.0,0.0,0.0,0.0,0.0,0.0,0.0,0.0,0.0,0.0,0.0,0.0,0.0,0.0,0.0,0.0,0.0,0.0,0.0,0.0,0.0,0.0,0.0,0.0,0.0,0.0,0.0,0.0,0.0,0.0,0.0,0.0,0.0,0.0,1.8977,2.0945,2.2529,2.3323,2.3158,2.0685,1.8003,0.0,0.0,0.0,0.0,0.0,0.0,0.0,0.0,0.0,0.0,0.0,0.0,0.0,0.0,0.0,0.0,0.0,0.0,0.0,0.0,0.0,0.0,0.0,0.0,0.0,0.0,0.0,0.0,0.0,0.0,0.0,0.0,0.0,0.0,0.0,0.0,0.0,0.0,0.0,0.0,0.0,0.0,0.0,0.0,0.0,0.0,0.0,0.0,0.0,0.0,0.0,0.0,0.0,0.0,0.0,0.0,0.0,0.0,0.0,0.0,0.0,0.0,0.0,0.0,0.0,0.0,0.0,0.0,0.0,0.0,0.0,0.0,0.0,0.0,0.0,0.0,0.0,0.0,0.0,0.0,0.0,0.0,0.0,0.0,0.0,0.0,0.0,0.0,0.0,0.0,0.0,0.0,0.0,0.0,0.0,0.0,0.0,0.0,0.0,0.0,0.0,0.0,0.0,0.0,0.0,0.0,0.0,1.8193,2.051,2.2947,2.3796,2.4144,2.3999,2.2331,1.9538,1.5704,0.0,0.0,0.0,0.0,0.0,0.0,0.0,0.0,0.0,0.0,0.0,0.0,0.0,0.0,0.0,0.0,0.0,0.0,0.0,0.0,0.0,0.0,0.0,0.0,0.0,0.0,0.0,0.0,0.0,0.0,0.0,0.0,0.0,0.0,0.0,0.0,0.0,0.0,0.8131,0.8572,0.0,0.0,0.0,0.0,0.0,0.0,0.0,0.0,0.9277,0.0,0.0,0.0,0.0,0.0,0.0,0.0,0.0,0.0,0.0,0.0,0.0,0.0,0.0,0.0,0.0,0.0,0.0,0.0,0.0,0.0,0.0,0.0,0.0,0.0,0.0,0.0,0.0,0.0,0.0,0.0,0.0,0.0,0.0,0.0,0.0,0.0,0.0,0.0,0.0,0.0,0.0,0.0,0.0,0.0,0.0,0.0,0.0,0.0,0.0,0.0,0.0,0.0,0.0,0.0,0.0,1.7699,1.8193,1.9956,2.3081,2.3851,2.4192,2.4103,2.2366,1.9862,1.6653,0.0,0.0,0.0,0.0,0.0,0.0,0.0,0.0,0.0,0.0,0.0,0.0,0.0,0.0,0.0,0.0,0.0,0.0,0.0,0.0,0.0,0.0,0.0,0.0,0.0,0.0,0.0,0.0,0.0,0.0,0.0,0.0,0.0,0.0,0.0,0.0,0.0,0.0,0.0,0.833,0.8919,0.0,0.0,0.0,0.0,0.0,0.0,0.0,0.0,0.9464,0.0,0.0,0.0,0.0,0.0,0.0,0.0,0.0,0.0,0.0,0.0,0.0,0.0,0.0,0.0,0.0,0.0,0.0,0.0,0.0,0.0,0.0,0.0,0.0,0.0,0.0,0.0,0.0,0.0,0.0,0.0,0.0,0.0,0.0,0.0,0.0,0.0,0.0,0.0,0.0,0.0,0.0,0.0,0.0,0.0,0.0,0.0,0.0,0.0,0.0,0.0,0.0,0.0,0.0,0.0,1.7622,1.9406,2.1488,2.3862,2.4248,2.4365,2.421,2.1692,1.9176,0.0,0.0,0.0,0.0,0.0,0.0,0.0,0.0,0.0,0.0,0.0,0.0,0.0,0.0,0.0,0.0,0.0,0.0,0.0,0.0,0.0,0.0,0.0,0.0,0.0,0.0,0.0,0.0,0.0,0.0,0.0,0.0,0.0,0.0,0.0,0.0,0.0,0.0,0.0,0.0,1.0118,1.0624,1.0599,0.0,0.0,0.0,0.0,0.0,0.0,1.0559,1.0166,0.0,0.0,0.0,0.0,0.0,0.0,0.0,0.0,0.0,0.0,0.0,0.0,0.0,0.0,0.0,0.0,0.0,0.0,0.0,0.0,0.0,0.0,0.0,0.0,0.0,0.0,0.0,0.0,0.0,0.0,0.0,0.0,0.0,0.0,0.0,0.0,0.0,0.0,0.0,0.0,0.0,0.0,0.0,0.0,0.0,0.0,0.0,0.0,0.0,0.0,0.0,0.0,0.0,0.0,0.0,1.7321,2.0211,2.2691,2.4587,2.4663,2.4541,2.4324,2.1418,1.8867,0.0,0.0,0.0,0.0,0.0,0.0,0.0,0.0,0.0,0.0,0.0,0.0,0.0,0.0,0.0,0.0,0.0,0.0,0.0,0.0,0.0,0.0,0.0,0.0,0.0,0.0,0.0,0.0,0.0,0.0,0.0,0.0,0.0,0.0,0.0,0.0,0.0,0.0,0.0,0.0,0.0,1.2232,1.1367,1.1912,0.0,0.0,0.0,0.0,1.2124,1.1781,0.0,0.0,0.0,0.0,0.0,0.0,0.0,0.0,0.0,0.0,0.0,0.0,0.0,0.0,0.0,0.0,0.0,0.0,0.0,0.0,0.0,0.0,0.0,0.0,0.0,0.0,0.0,0.0,0.0,0.0,0.0,0.0,0.0,0.0,0.0,0.0,0.0,0.0,0.0,0.0,0.0,0.0,0.0,0.0,0.0,0.0,0.0,0.0,0.0,0.0,0.0,0.0,0.0,0.0,0.0,0.0,1.7227,1.914,2.1582,2.4512,2.4692,2.4684,2.4631,2.2676,2.0159,0.0,0.0,0.0,0.0,0.0,0.0,0.0,0.0,0.0,0.0,0.0,0.0,0.0,0.0,0.0,0.0,0.0,0.0,0.0,0.0,0.0,0.0,0.0,0.0,0.0,0.0,0.0,0.0,0.0,0.0,0.0,0.0,0.0,0.0,0.0,0.0,0.0,0.0,0.0,0.0,0.0,1.2236,1.2682,1.1801,1.197,0.0,0.0,1.2343,1.3601,1.3768,0.0,0.0,0.0,0.0,0.0,0.0,0.0,0.0,0.0,0.0,0.0,0.0,0.0,0.0,0.0,0.0,0.0,0.0,0.0,0.0,0.0,0.0,0.0,0.0,0.0,0.0,0.0,0.0,0.0,0.0,0.0,0.0,0.0,0.0,0.0,0.0,0.0,0.0,0.0,0.0,0.0,0.0,0.0,0.0,0.0,0.0,0.0,0.0,0.0,0.0,0.0,0.0,0.0,0.0,0.0,1.5031,1.7399,1.9999,2.2492,2.4751,2.4794,2.4746,2.4746,2.2094,1.9557,0.0,0.0,0.0,0.0,0.0,0.0,0.0,0.0,0.0,0.0,0.0,0.0,0.0,0.0,0.0,0.0,0.0,0.0,0.0,0.0,0.0,0.0,0.0,0.0,0.0,0.0,0.0,0.0,0.0,0.0,0.0,0.0,0.0,0.0,0.0,0.0,0.0,0.0,0.0,0.0,0.0,0.0,1.4325,1.4498,0.0,0.0,0.0,1.5131,1.5265,0.0,0.0,0.0,0.0,0.0,0.0,0.0,0.0,0.0,0.0,0.0,0.0,0.0,0.0,0.0,0.0,0.0,0.0,0.0,0.0,0.0,0.0,0.0,0.0,0.0,0.0,0.0,0.0,0.0,0.0,0.0,0.0,0.0,0.0,0.0,0.0,0.0,0.0,0.0,0.0,0.0,0.0,0.0,0.0,0.0,0.0,0.0,0.0,0.0,0.0,0.0,0.0,0.0,0.0,0.0,0.0,0.0,1.752,2.0808,2.3313,2.4931,2.4903,2.4849,2.4808,2.1945,0.0,0.0,0.0,0.0,0.0,0.0,0.0,0.0,0.0,0.0,0.0,0.0,0.0,0.0,0.0,0.0,0.0,0.0,0.0,0.0,0.0,0.0,0.0,0.0,0.0,0.0,0.0,0.5663,0.0,0.0,0.0,0.0,0.0,0.0,0.0,0.0,0.0,0.0,0.0,0.0,0.0,0.0,1.6129,1.5894,1.6938,1.7484,0.0,0.0,1.7552,1.7042,1.7026,1.6229,0.0,0.0,0.0,0.0,0.0,0.0,0.0,0.0,0.0,0.0,0.0,0.0,0.0,0.0,0.0,0.0,0.0,0.0,0.0,0.0,0.0,0.0,0.0,0.0,0.0,0.0,0.0,0.0,0.0,0.0,0.0,0.0,0.0,0.0,0.0,0.0,0.0,0.0,0.0,0.0,0.0,0.0,0.0,0.0,0.0,0.0,0.0,0.0,0.0,0.0,0.0,0.0,0.0,0.0,0.0,1.7558,2.0808,2.3313,2.4931,2.5,2.4996,2.4955,2.3176,2.0656,0.0,0.0,0.0,0.0,0.0,0.0,0.0,0.0,0.0,0.0,0.0,0.0,0.0,0.0,0.0,0.0,0.0,0.0,0.0,0.0,0.0,0.0,0.0,0.0,0.0,0.0,0.0,0.0,0.0,0.0,0.0,0.0,0.0,0.0,0.0,0.0,0.0,0.0,0.0,0.0,0.0,1.6367,1.7236,1.7975,1.8856,0.0,0.0,1.8511,1.9016,1.9097,1.8081,1.5076,0.0,0.0,0.0,0.0,0.0,0.0,0.0,0.0,0.0,0.0,0.0,0.0,0.0,0.0,0.0,0.0,0.0,0.0,0.0,0.0,0.0,0.0,0.0,0.0,0.0,0.0,0.0,0.0,0.0,0.0,0.0,0.0,0.0,0.0,0.0,0.0,0.0,0.0,0.0,0.0,0.0,0.0,0.0,0.0,0.0,0.0,0.0,0.0,0.0,0.0,0.0,0.0,0.0,1.5826,1.7523,2.0805,2.3313,2.4908,2.4988,2.4988,2.4988,2.3351,2.1103,0.0,0.0,0.0,0.0,0.0,0.0,0.0,0.0,0.0,0.0,0.0,0.0,0.0,0.0,0.0,0.0,0.0,0.0,0.0,0.0,0.0,0.0,0.0,0.0,0.0,0.0,0.0,0.0,0.8189,0.8527,0.9289,0.0,0.0,0.0,0.0,0.0,0.0,0.0,0.0,0.0,0.0,1.8473,1.9299,2.0018,0.0,0.0,2.1329,2.0517,2.0744,2.0379,1.9345,1.725,1.619,0.0,0.0,0.0,0.0,0.0,0.0,0.0,0.0,0.0,0.0,0.0,0.0,0.0,0.0,0.0,0.0,0.0,0.0,0.0,0.0,0.0,0.0,0.0,0.0,0.0,0.0,0.0,0.0,0.0,0.0,0.0,0.0,0.0,0.0,0.0,0.0,0.0,0.0,0.0,0.0,0.0,0.0,0.0,0.0,0.0,0.0,0.0,0.0,0.0,0.0,0.0,0.0,1.6244,1.7901,2.1233,2.3614,2.5016,2.5057,2.5063,2.499,2.3622,2.1682,0.0,0.0,0.0,0.0,0.0,0.0,0.0,0.0,0.0,0.0,0.0,0.0,0.0,0.0,0.0,0.0,0.0,0.0,0.0,0.0,0.0,0.0,0.0,0.0,0.0,0.0,0.0,0.0,0.8689,0.8932,0.9458,0.0,0.0,0.0,0.0,0.0,0.0,0.0,0.0,0.0,0.0,2.0171,2.1375,2.2004,2.2658,2.3649,2.2964,2.2224,2.1989,2.1269,2.0298,1.9039,0.0,0.0,0.0,0.0,0.0,0.0,0.0,0.0,0.0,0.0,0.0,0.0,0.0,0.0,0.0,0.0,0.0,0.0,0.0,0.0,0.0,0.0,0.0,0.0,0.0,0.0,0.0,1.0635,0.0,0.0,0.9526,0.0,0.0,0.0,0.0,0.0,0.0,0.0,0.0,0.0,0.0,0.0,0.0,0.0,0.0,0.0,0.0,0.0,0.0,0.0,0.0,0.0,0.0,1.7173,1.8895,2.2209,2.4351,2.5165,2.5206,2.5179,2.5091,2.423,2.2556,1.9906,0.0,0.0,0.0,0.0,0.0,0.0,0.0,0.0,0.0,0.0,0.0,0.0,0.0,0.0,0.0,0.0,0.0,0.0,0.0,0.0,0.0,0.0,0.0,0.0,0.0,0.0,0.9549,0.9622,0.9636,0.0,0.0,0.0,0.0,0.0,0.0,0.0,0.0,0.0,0.0,2.0201,2.1119,2.3379,2.3736,2.3722,2.3813,2.3759,2.3442,2.2622,2.1821,2.1017,0.0,0.0,0.0,0.0,0.0,0.0,0.0,0.0,0.0,0.0,0.0,0.0,0.0,0.0,0.0,0.0,0.0,0.0,0.0,0.0,0.0,0.0,0.0,0.0,0.0,0.0,0.0,1.4332,1.3301,0.0,0.0,0.0,0.0,0.0,0.0,0.0,0.0,0.0,0.0,0.0,1.9211,1.9755,0.0,0.0,0.0,0.0,0.0,0.0,0.0,0.0,0.0,0.0,0.0,0.0,1.7248,1.9027,2.2339,2.4466,2.5244,2.5261,2.5233,2.5149,2.4367,2.2434,1.9258,0.0,0.0,0.0,0.0,0.0,0.0,0.0,0.0,0.0,0.0,0.0,0.0,0.0,0.0,0.0,0.0,0.0,0.0,0.0,0.0,0.0,0.0,0.0,0.0,0.0,0.9616,0.0,0.0,0.0,0.0,0.0,0.0,0.0,0.0,0.0,0.0,0.0,1.8153,2.0144,2.1446,2.2675,2.3902,2.4142,2.4164,0.0,0.0,0.0,0.0,0.0,0.0,0.0,0.0,0.0,0.0,0.0,0.0,0.0,0.0,1.9403,1.6702,1.5757,1.5393,1.5389,0.0,0.0,0.0,0.0,0.0,0.0,0.0,0.0,0.0,0.0,0.0,0.0,0.0,0.0,1.7503,0.0,1.6256,0.0,0.0,0.0,0.0,0.0,0.0,0.0,0.0,2.0816,2.1943,2.2786,2.3347,2.3057,0.0,2.1731,1.9811,0.0,0.0,0.0,0.0,0.0,0.0,0.0,0.0,1.8644,2.042,2.3179,2.4869,2.5374,2.5389,2.5356,2.5264,2.4439,2.2784,2.0224,1.7685,1.5623,0.0,0.0,0.0,0.0,0.0,0.0,0.0,0.0,0.0,0.0,0.0,0.0,0.0,0.0,0.0,0.0,0.0,0.0,0.0,0.0,0.0,0.0,0.0,0.972,0.0,0.0,0.0,0.0,0.0,0.0,0.0,0.0,0.0,1.5499,1.807,2.0572,2.2105,2.306,2.3793,2.4275,0.0,0.0,0.0,0.0,0.0,0.0,0.0,2.3056,2.3197,2.2533,2.1908,2.1779,2.2292,2.292,2.3427,0.0,0.0,1.899,1.7772,1.7171,1.7189,1.7342,1.7475,1.7489,1.8087,1.8462,0.0,0.0,0.0,0.0,0.0,0.0,0.0,0.0,2.03,2.0284,0.0,1.9451,0.0,0.0,0.0,0.0,0.0,2.0027,0.0,0.0,2.5225,2.6954,2.7692,2.7753,2.7055,2.5679,2.6206,2.4915,2.1733,1.8461,0.0,0.0,0.0,0.0,0.0,0.0,2.1292,2.2931,2.4673,2.5583,2.5601,2.56,2.5544,2.539,2.4495,2.3592,2.2705,2.0216,1.8458,1.7515,1.3643,0.0,0.0,0.0,0.0,0.0,0.0,0.0,0.0,0.0,0.0,0.0,0.0,0.0,0.0,0.0,0.0,0.0,0.0,0.0,0.0,0.9897,0.0,0.0,0.0,0.0,0.0,0.0,0.0,0.0,0.0,0.0,1.9841,2.0518,2.2126,2.5245,0.0,0.0,0.0,0.0,2.4554,2.4688,2.4591,2.4527,2.4491,2.3866,2.3628,2.4365,0.0,0.0,2.2817,2.3375,2.3745,2.3242,2.363,2.365,2.2866,2.0771,1.9253,1.9199,1.8708,1.8072,1.809,1.8948,1.9759,2.6603,0.0,0.0,0.0,0.0,2.4281,2.473,2.5352,2.5342,2.4736,2.3659,2.3438,0.0,0.0,0.0,0.0,0.0,0.0,2.419,2.5534,2.6298,2.7098,2.7944,2.7958,2.7759,2.7379,2.7576,2.7181,2.6172,2.4055,2.108,1.7402,0.0,0.0,0.0,0.0,2.196,2.3096,2.478,2.5651,2.5597,2.5595,2.5577,2.5546,2.4622,2.3997,2.3693,2.1845,2.0058,1.8482,1.6736,0.0,0.0,0.0,0.0,0.0,0.0,0.0,0.0,0.0,0.0,0.0,0.0,0.0,0.0,0.0,0.0,0.0,0.0,0.0,1.0683,1.0793,1.1571,0.0,0.0,0.0,0.0,0.0,0.0,0.0,0.0,0.0,2.3421,2.4157,2.4956,0.0,0.0,2.6393,2.5804,2.6238,2.6565,2.6466,2.6548,0.0,2.6241,2.6097,2.6101,2.6235,2.6051,2.5856,2.5694,2.5625,2.5651,2.5803,2.5708,2.5437,2.493,2.3578,2.248,2.2391,2.2223,2.2096,2.211,2.2291,2.2314,3.1877,2.9894,2.7864,2.735,2.7908,2.8183,2.8441,2.8726,2.9049,2.8668,2.7764,2.7764,2.675,2.5064,2.5277,0.0,0.0,0.0,2.6979,2.8235,2.7919,2.8226,2.9045,2.907,2.8908,2.8619,2.8608,2.8446,2.8131,2.7103,2.4837,2.1397,0.0,0.0,2.0407,2.1981,2.3226,2.4128,2.5148,2.5673,2.5642,2.5612,2.56,2.5601,2.5046,2.4743,2.4679,2.3336,2.2072,2.0926,1.909,1.6986,0.0,0.0,0.0,0.0,0.0,0.0,0.0,0.0,0.0,0.0,0.0,1.0835,0.0,0.0,0.0,0.0,1.123,1.174,1.2577,1.3282,0.0,0.0,0.0,0.0,0.0,0.0,0.0,2.1888,2.3325,2.4529,2.5363,2.5913,2.6392,2.6932,2.7293,2.7414,2.7214,0.0,2.7464,2.7322,2.7411,2.7415,2.7211,2.7258,2.7306,2.7228,2.7138,2.7132,2.7159,2.7044,2.7292,2.7911,2.7581,2.6879,2.6466,2.5652,2.4811,2.4222,2.4084,2.4055,2.3984,2.3641,2.3082,3.6,3.571,3.2212,3.0679,3.0605,3.1327,3.127,3.0781,3.1556,3.1919,3.191,3.191,3.1519,3.0765,2.9973,0.0,2.9612,2.9673,3.0092,3.0788,3.0049,3.0089,3.0791,3.0798,3.0356,2.9504,2.9514,2.913,2.8448,2.8267,2.7844,2.705,2.4623,2.3791,2.448,2.4578,2.5017,2.5873,2.5834,2.5777,2.5699,2.5641,2.5611,2.561,2.5601,2.5585,2.5583,2.4643,2.4072,2.3891,2.0819,1.8622,1.765,0.0,0.0,0.0,0.0,0.0,0.0,0.0,0.0,0.0,0.0,0.0,0.0,0.0,0.0,0.0,1.3548,0.0,1.5237,1.6704,0.0,0.0,0.0,1.9816,2.1586,2.2388,2.3395,2.4925,0.0,0.0,2.6134,2.626,2.6883,2.8419,2.7975,2.7756,2.8502,2.8002,2.7607,2.7758,2.7735,2.7749,2.7909,2.786,2.785,2.7831,2.7558,2.7619,2.7834,2.8025,2.8704,2.9745,2.9064,2.8132,2.7614,2.7384,2.6787,2.5361,2.4885,2.4674,2.4552,2.398,2.3221,3.7801,3.7701,3.6812,3.4918,3.2536,3.2719,3.2728,3.2655,3.2804,3.2893,3.2933,3.2933,3.2827,3.2647,3.2434,3.2343,3.2354,3.2363,3.2485,3.2641,3.2475,3.2125,3.1711,3.1693,3.1252,3.0502,3.0465,3.0374,3.0148,2.9502,2.9071,2.8838,2.7644,2.6785,2.634,2.6932,2.7368,2.7606,2.6945,2.6321,2.5718,2.5674,2.5672,2.5671,2.5631,2.5599,2.5598,2.4723,2.391,2.32,2.175,1.9964,1.7872,1.5553,0.0,0.0,0.0,0.0,0.0,0.0,0.0,0.0,0.0,1.5025,1.2463,0.0,1.5469,0.0,1.6336,1.7164,1.7963,1.8405,0.0,0.0,2.1646,2.2434,2.4055,2.4456,2.473,2.505,2.5633,2.6088,2.6394,2.6905,2.744,2.7938,2.7745,2.7591,2.7825,2.8262,2.8726,2.925,2.9368,2.9497,2.9421,2.9482,2.9443,2.9467,2.9451,2.9473,2.9413,2.9528,2.9715,3.0045,2.9878,2.9582,2.9387,2.9391,2.9205,2.8741,2.753,2.6389,2.6337,2.6347,2.6134,3.9077,3.9038,3.8651,3.7364,3.5603,3.553,3.5317,3.4981,3.4947,3.4736,3.4417,3.4402,3.4412,3.4423,3.4404,3.4407,3.4394,3.4039,3.3869,3.387,3.3508,3.3081,3.2631,3.2613,3.238,3.1952,3.1562,3.1387,3.1327,3.0508,3.0078,3.0078,2.9647,2.9169,2.8637,2.8355,2.8206,2.8191,2.7353,2.6691,2.6243,2.5893,2.5699,2.5699,2.5668,2.5643,2.5643,2.4778,2.4054,2.3512,2.2289,2.0816,1.9087,1.7321,1.5961,0.0,0.0,0.0,0.0,0.0,0.0,0.0,0.0,0.0,0.0,0.0,1.7567,1.7661,1.9097,2.0199,2.0648,2.1719,2.2805,2.3794,2.4242,2.4887,2.5921,2.6274,2.653,2.6764,2.7253,2.7632,2.7717,2.8371,2.8717,2.8464,2.7995,2.7686,2.7723,2.808,2.8543,2.9037,2.9117,2.9257,2.957,2.9959,3.0178,3.0147,3.0145,3.0123,3.006,3.0105,3.0134,3.0111,2.9735,2.9441,2.9528,2.9239,2.9037,2.8886,2.8123,2.7614,2.8078,2.8488,2.8466,4.0039,3.998,3.9237,3.8904,3.8905,3.8804,3.8184,3.7285,3.7276,3.6809,3.5994,3.6004,3.5936,3.5826,3.5826,3.5827,3.5772,3.509,3.4783,3.4745,3.406,3.3665,3.3567,3.3564,3.3502,3.3385,3.2639,3.2267,3.2227,3.14,3.0974,3.0955,3.0859,3.0799,3.072,2.9286,2.8468,2.8361,2.7616,2.7126,2.6913,2.6227,2.5816,2.5718,2.5699,2.5699,2.5678,2.48,2.432,2.4262,2.2692,2.1492,2.0836,1.912,1.818,0.0,1.7308,0.0,0.0,0.0,0.0,0.0,0.0,0.0,0.0,2.0085,1.9903,1.9775,2.2043,2.3463,2.3329,2.542,2.6513,2.5862,2.6534,2.7112,2.732,2.7921,2.864,2.9379,2.9425,2.9368,2.9386,3.0003,3.0121,2.9494,2.8853,2.8421,2.82,2.7931,2.7735,2.7844,2.7902,2.8268,2.8832,2.9495,2.9877,2.9857,2.9902,3.0003,3.0095,3.0164,3.0166,2.9825,2.9105,2.8624,2.8723,2.8192,2.7775,2.7829,2.7739,2.7996,2.8933,2.9324,2.9727,4.0877,4.0875,4.0698,4.0639,4.0621,4.0605,3.9726,3.832,3.8253,3.7766,3.7031,3.7011,3.662,3.5975,3.5955,3.5954,3.595,3.5809,3.573,3.571,3.5589,3.5138,3.4475,3.4454,3.4082,3.3418,3.3222,3.3162,3.3143,3.2269,3.1861,3.1841,3.116,3.0795,3.0781,0.0,0.0,0.0,2.9078,2.8366,2.704,2.6785,2.636,2.5718,2.5699,0.0,2.566,2.4837,2.4388,2.4348,2.3386,0.0,0.0,0.0,0.0,0.0,0.0,0.0,0.0,0.0,0.0,0.0,2.1207,2.071,2.0562,2.2907,2.4122,2.3462,2.5672,2.6893,2.6208,2.7131,2.776,2.765,2.8374,2.8647,2.8104,2.9256,3.078,3.2331,3.1268,3.0376,3.049,3.051,3.0588,3.0598,3.0361,3.0263,3.0194,2.8407,2.7271,2.7741,2.7909,2.7939,2.8108,2.829,2.8529,2.8401,2.8963,2.9525,3.0075,3.0281,2.9725,2.8562,2.8347,2.8287,2.8007,2.7813,2.7606,2.7701,2.7682,2.7781,2.8024,2.8112,2.8264,4.1469,0.0,4.1105,4.1103,0.0,4.1103,4.0614,3.9812,3.9374,3.873,3.794,3.794,3.7683,3.7288,3.7288,3.7052,3.6636,3.6636,3.6422,3.6011,3.6011,3.5758,3.5349,3.5349,3.5115,3.4684,3.4256,3.4042,3.4003,3.3163,3.2753,3.2714,3.1856,3.1431,3.1438,3.1008,3.0584,3.0133,2.9718,2.909,2.8251,2.7403,2.6773,2.6363,2.5914,0.0,0.0,0.0,0.0,0.0,0.0,0.0,0.0,0.0,0.0,2.2368,2.1626,2.1335,2.1726,2.2155,2.2992,2.4278,2.4334,2.3785,2.2526,2.5185,2.6573,2.5727,2.7574,2.8663,2.8273,2.8943,2.944,2.9459,3.0203,3.0397,2.9788,3.0983,3.2706,3.4156,3.3432,3.2586,3.2635,3.3014,3.3031,3.2707,3.2322,3.1934,3.1384,2.9922,2.8688,2.8175,2.8057,2.7882,2.7524,2.7785,2.7999,2.8072,2.8309,2.9014,3.0144,3.0413,2.9651,2.7255,2.6742,2.686,2.7067,2.6776,2.6485,2.6463,2.6463,2.6463,2.652,2.7106,2.7755,4.2109,4.1499,4.1335,4.1274,4.1254,4.1144,4.1089,4.1051,0.0,0.0,0.0,3.8814,3.8713,3.8611,3.8611,3.822,3.7536,3.736,3.691,3.6226,3.605,3.6011,3.6011,3.6011,3.6011,3.5973,3.5271,3.492,3.4901,3.4061,3.3631,3.3553,3.2773,3.2267,3.2071,3.1231,3.0794,3.0761,3.0097,2.9647,2.9491,2.8162,2.738,2.7224,2.6384,2.5934,2.5915,2.5094,2.4623,2.4613,2.395,2.3553,2.3555,2.3553,2.3881,2.4559,2.4636,2.4691,2.4843,2.5504,2.5915,2.592,2.6687,2.6625,2.537,2.708,2.7976,2.7412,2.8932,2.9905,2.9769,3.0665,3.1253,3.126,3.2036,3.2209,3.1512,3.2795,3.4354,3.5552,3.5191,3.4819,3.4777,3.5303,3.5656,3.4915,3.4195,3.363,3.2793,3.1559,3.0129,2.9057,2.8878,2.8477,2.793,2.8017,2.8338,2.8409,2.8184,2.847,2.9529,3.0031,2.898,2.6855,2.5714,2.5745,2.6286,2.5918,2.5255,2.5216,2.5207,2.5207,2.5322,2.6294,2.7147,4.3164,4.3024,4.2268,4.1956,4.1924,4.1274,4.1056,4.1089,4.0974,4.0428,3.9626,3.9626,3.9235,3.8611,3.8611,3.8533,3.8376,3.7633,3.7242,3.7086,3.6344,3.6011,3.6011,3.6011,3.6011,3.5991,3.5875,3.5817,3.572,3.494,3.4511,3.4413,3.3631,3.285,3.209,3.1231,3.0783,3.0788,3.068,3.0272,2.9608,2.9296,2.8806,2.8122,2.7282,2.6813,2.6794,2.5993,2.5524,2.5523,2.5406,2.5346,2.5326,2.5325,2.5379,2.5502,2.5519,2.5822,2.65,2.6673,2.6762,2.6843,2.7602,2.8281,2.8743,2.8405,2.8463,2.9087,3.0691,3.1428,3.084,3.2034,3.2906,3.3026,3.3728,3.3916,3.3126,3.4354,3.543,3.5728,3.5816,3.5619,3.5503,3.5677,3.5716,3.5656,3.5208,3.5345,3.4682,3.2712,3.0917,3.0488,3.0449,3.0391,2.9981,2.9608,2.9365,2.931,2.8676,2.8112,2.7911,2.8402,2.8541,2.8426,2.7063,2.6228,2.6558,2.589,2.5509,2.5425,2.5419,2.5375,2.5407,2.5666,2.572,4.3757,4.3376,4.2973,4.2801,4.2745,4.1937,4.134,4.0947,4.0947,4.0772,4.0462,4.0355,4.0184,3.992,3.9882,3.9663,3.9235,3.8824,3.8414,3.7984,3.7513,3.7051,3.6602,3.6554,3.6341,3.5961,3.5944,3.5974,3.5952,3.5582,3.5404,3.5297,3.4465,3.3626,3.2837,3.2407,3.1963,3.1504,3.1043,3.0616,3.0244,2.98,2.9373,2.9002,2.8162,2.7693,2.7693,2.7322,2.7108,2.7129,2.7109,2.7109,2.7107,2.7106,2.7105,2.71,2.7119,2.7058,2.6951,2.7399,2.7675,2.7722,2.849,2.9504,3.0817,3.0542,3.027,3.027,3.1793,3.2651,3.2258,3.294,3.3394,3.3382,3.3744,3.4173,3.461,3.4468,3.4519,3.4538,3.4537,3.4551,3.4556,3.4534,3.4546,3.4572,3.4878,3.5169,3.5228,3.435,3.32,3.24,3.1817,3.1309,3.0918,3.0509,3.0235,3.0197,2.9476,2.8288,2.7043,2.7336,2.8588,2.9658,2.9032,2.8232,2.7668,2.7082,2.6762,2.663,2.6601,2.66,2.6553,2.6313,2.5876,4.4427,4.3883,4.367,4.351,4.3303,4.2626,4.1866,4.1116,4.1075,4.1012,4.0929,4.0829,4.085,4.0946,4.0984,4.0648,4.0097,3.9874,3.9443,3.8845,3.8511,3.7991,3.7364,3.7277,3.6866,3.6216,3.6144,3.6096,3.5996,3.5981,3.5935,3.5821,3.502,3.4281,3.3702,3.3487,3.3068,3.2401,3.1738,3.1191,3.0801,3.0177,2.9885,2.9807,2.8831,2.8283,2.8283,2.7932,2.7723,2.7711,2.7692,2.7694,2.7715,2.7715,2.7714,2.7714,2.7909,2.7908,2.7653,2.8181,2.8572,2.8592,2.9316,3.0351,3.1621,3.2187,3.203,3.1423,3.2496,3.3297,3.306,3.3275,3.3393,3.3394,3.3392,3.388,3.4938,3.4155,3.3196,3.2962,3.3137,3.3425,3.3396,3.3391,3.3464,3.3584,3.396,3.4305,3.4421,3.5058,3.4955,3.4078,3.3242,3.287,3.203,3.1834,3.1775,3.1639,3.0802,2.9692,2.831,2.829,2.8932,3.0448,3.0857,2.998,2.8709,2.8112,2.7905,2.7704,2.7641,2.7719,2.7586,2.7265,2.6803,4.5436,4.5287,4.4533,4.3829,4.3263,4.3134,4.2658,4.2002,4.1864,4.1393,4.08,4.0771,4.0808,4.0833,4.0939,4.0912,4.079,4.0135,3.9695,3.9442,3.8669,3.8206,3.8042,3.7997,3.7616,3.6963,3.6874,3.6519,3.6012,3.5935,3.5915,3.5794,3.5029,3.4629,3.4499,3.3837,3.3379,3.3299,3.3201,3.2401,3.0898,3.0723,3.0703,3.0664,2.9142,2.8283,2.8381,2.676,2.598,2.5943,2.61,2.6023,2.6063,2.6004,2.6009,2.6113,2.6757,2.7695,2.9061,2.9336,2.9394,2.9453,3.0189,3.0787,3.108,3.2388,3.2905,3.2363,3.2867,3.3141,3.2377,3.2963,3.3435,3.3379,3.3378,3.3493,3.3613,3.3514,3.2805,3.1185,3.2515,3.3371,3.3273,3.3233,3.3252,3.3111,3.3313,3.3498,3.3555,3.4182,3.469,3.4589,3.4917,3.5307,3.5033,3.4702,3.4116,3.3979,3.287,3.2013,3.1604,3.0161,2.901,3.1506,3.1251,3.0414,2.966,2.8707,2.82,2.8362,2.8253,2.8055,2.7853,2.781,2.7625,4.5594,4.5575,4.5205,4.4585,4.391,4.3836,4.3408,4.2706,4.2636,4.2144,4.1418,4.1379,4.1142,4.0757,4.0802,4.0851,4.0848,4.053,4.0363,4.0284,3.9832,3.937,3.8848,3.8735,3.8315,3.7569,3.7077,3.6714,3.6501,3.6055,3.5772,3.5702,3.5394,3.53,3.532,3.5037,3.4656,3.4196,3.4169,3.3578,3.2427,3.1831,3.1328,3.0801,3.0118,2.9786,2.9727,2.9064,2.8712,2.8712,2.8732,2.8712,2.8712,2.8712,2.8715,2.8721,2.8585,2.8841,2.9528,3.0013,3.0264,3.0284,3.1079,3.1777,3.2265,3.2558,3.2662,3.2963,3.3668,3.3825,3.3083,3.3649,3.398,3.3527,3.3394,3.3277,3.294,3.2768,3.2556,3.2731,3.2243,3.2128,3.2422,3.2185,3.189,3.1928,3.2274,3.2759,3.27,3.3337,3.3814,3.3995,3.4634,3.5366,3.5701,3.5656,3.5384,3.5168,3.439,3.3903,3.4194,3.3045,3.1857,3.3123,3.203,3.1265,3.1135,3.0303,2.9665,2.9513,2.947,2.9447,2.9407,2.927,2.9225,4.5573,4.5577,4.5586,4.5244,4.4667,4.4667,4.4182,4.3489,4.3431,4.2951,4.2158,4.1908,4.1513,4.1019,4.0794,4.0729,4.0766,4.0798,4.0757,4.0715,4.0614,4.0191,3.96,3.9482,3.9033,3.8299,3.7688,3.7236,3.6903,3.6057,3.5625,3.5577,3.5624,3.5686,3.5728,3.5781,3.5548,3.5073,3.5028,3.4617,3.3789,3.3138,3.2303,3.1264,3.0916,3.0703,3.0469,3.0254,3.0117,3.0118,3.0118,3.0118,3.0117,3.0098,3.0215,3.043,3.0138,3.0041,3.0255,3.1055,3.1406,3.127,3.1953,3.2734,3.3143,3.2811,3.2889,3.3671,3.4334,3.4316,3.3631,3.3983,3.4022,3.3475,3.3397,3.326,3.3104,3.2714,3.295,3.3886,3.2776,3.1839,3.2534,3.2441,3.2187,3.2246,3.2558,3.2498,3.2322,3.2828,3.3368,3.3143,3.3803,3.4608,3.5374,3.5733,3.583,3.5793,3.5208,3.509,3.5772,3.4643,3.3846,3.3922,3.2732,3.2107,3.2122,3.1673,3.0969,3.0731,3.06,3.0507,3.0296,3.0344,3.0366,4.5504,4.5489,4.5573,4.5571,4.5532,4.5513,4.5032,4.4259,4.4239,4.3797,4.2985,4.2235,4.1797,4.167,4.105,4.0716,4.0699,4.0748,4.0688,4.0515,4.0511,4.0423,4.0257,4.0239,3.9824,3.9091,3.8853,3.8131,3.6868,3.597,3.5507,3.5537,3.552,3.5556,3.5601,3.5623,3.5659,3.5668,3.5705,3.5424,3.4756,3.4567,3.3721,3.2149,3.1282,3.0606,2.9846,2.8947,2.8556,2.8498,2.8693,2.8595,2.8517,2.8595,2.9045,2.9768,3.0411,3.1133,3.1856,3.2655,3.285,3.2285,3.2772,3.3358,3.3475,3.3319,3.3612,3.455,3.4686,3.4432,3.3826,3.3904,3.3787,3.365,3.3514,3.3748,3.4178,3.3787,3.367,3.4197,3.3885,3.371,3.4454,3.4571,3.434,3.4324,3.4506,3.4022,3.2792,3.2988,3.3082,3.2612,3.294,3.3751,3.4525,3.5216,3.5701,3.5837,3.5763,3.5752,3.583,3.5734,3.5247,3.5013,3.4837,3.433,3.3513,3.2675,3.1855,3.1391,3.1056,3.0914,3.0948,3.0781,3.0699,4.5434,4.5438,4.5504,4.5527,4.555,4.5577,4.5385,4.5084,4.5101,4.465,4.3917,4.3534,4.2816,4.1777,4.1528,4.11,4.0623,4.0596,4.0507,4.0382,4.0374,4.0341,4.032,4.0301,4.019,3.983,3.9284,3.8472,3.7413,3.6587,3.618,3.6051,3.5649,3.5451,3.5482,3.5552,3.5633,3.567,3.5735,3.5635,3.5413,3.5438,3.4671,3.304,3.2627,3.2343,3.2031,3.1718,3.1308,3.0762,3.0743,3.047,3.002,3.0411,3.1114,3.1933,3.2303,3.2362,3.2247,3.291,3.3279,3.3007,3.3201,3.367,3.4003,3.3768,3.3748,3.4569,3.5271,3.5505,3.5778,3.5427,3.5075,3.5075,3.5075,3.5153,3.529,3.5192,3.5348,3.5973,3.6012,3.5876,3.5622,3.5544,3.5524,3.5524,3.553,3.4928,3.3992,3.3938,3.367,3.2109,3.2441,3.3279,3.2912,3.4276,3.5221,3.5684,3.5856,3.5862,3.5894,3.5892,3.5502,3.5429,3.5779,3.5423,3.4156,3.3474,3.2694,3.2422,3.2051,3.1616,3.1581,3.1395,3.1073,4.541,4.541,4.5462,4.5476,4.5481,4.5513,4.5508,4.5481,4.5513,4.5201,4.4679,4.4394,4.3615,4.2659,4.2321,4.1701,4.0871,4.0624,4.0437,4.0311,4.0307,4.0318,4.031,4.032,4.032,4.0153,3.9427,3.8663,3.8084,3.7342,3.6951,3.6842,3.6112,3.5775,3.5745,3.5595,3.5519,3.5532,3.5611,3.5657,3.5745,3.5814,3.5345,3.439,3.4223,3.365,3.2655,3.2557,3.2323,3.1778,3.168,3.1407,3.0938,3.1368,3.1933,3.2498,3.2792,3.2889,3.2695,3.3339,3.3827,3.3807,3.3846,3.41,3.4589,3.4159,3.4412,3.533,3.6032,3.6774,3.7379,3.7165,3.6852,3.6852,3.6832,3.6832,3.6852,3.6832,3.7105,3.7497,3.7633,3.7477,3.732,3.728,3.7301,3.7242,3.7223,3.6656,3.5308,3.5193,3.4923,3.298,3.3022,3.3376,3.3183,3.3863,3.4572,3.5055,3.5769,3.5851,3.5856,3.585,3.5902,3.5885,3.5725,3.5388,3.4877,3.4195,3.3807,3.3534,3.2988,3.2438,3.2259,3.2008,3.1647,4.5414,4.5395,4.5405,4.5405,4.541,4.5434,4.541,4.541,4.5429,4.5376,4.5175,4.46,4.4206,4.3938,4.3283,4.2485,4.1626,4.0931,4.0501,4.0307,4.0322,4.0314,4.0306,4.032,4.032,4.0282,3.9446,3.9064,3.8954,3.8165,3.7725,3.7564,3.6914,3.6515,3.6513,3.584,3.5426,3.5502,3.556,3.5541,3.5607,3.5729,3.5699,3.5559,3.5609,3.4247,3.1226,3.121,3.1445,3.1211,3.1133,3.0898,3.1152,3.125,3.1094,3.1561,3.1934,3.2637,3.3377,3.4159,3.455,3.455,3.4628,3.4628,3.4823,3.4783,3.535,3.6657,3.7223,3.7653,3.8415,3.8611,3.8494,3.8533,3.8298,3.8278,3.8337,3.8512,3.8611,3.8669,3.8747,3.9,3.9507,3.9526,3.9428,3.9468,3.9449,3.8823,3.7046,3.7027,3.6833,3.6014,3.5041,3.4402,3.3936,3.3548,3.3945,3.4411,3.5247,3.5728,3.572,3.5714,3.5901,3.5919,3.5899,3.5599,3.5306,3.4702,3.4468,3.4156,3.365,3.3279,3.2986,3.2694,3.2245,4.5338,4.5339,4.5375,4.5409,4.5414,4.541,4.5405,4.5414,4.541,4.5405,4.5342,4.5136,4.4729,4.425,4.3919,4.3316,4.2398,4.1598,4.0928,4.0415,4.031,4.0324,4.031,4.032,4.032,4.0287,4.0057,3.9904,3.9713,3.9007,3.8591,3.8434,3.775,3.733,3.7273,3.654,3.6138,3.609,3.5685,3.5432,3.5486,3.5589,3.5409,3.4907,3.4864,3.4053,3.2644,3.369,3.404,3.3436,3.3495,3.3495,3.3456,3.3476,3.3768,3.4333,3.4626,3.4549,3.4315,3.453,3.4706,3.4706,3.4706,3.5018,3.5505,3.5602,3.611,3.7242,3.7828,3.8532,3.9293,3.9996,3.9782,3.8728,3.8611,3.8533,3.8395,3.8746,3.9469,4.0192,4.0328,4.0464,4.0601,4.0659,4.062,4.064,4.064,4.0093,3.9644,3.8961,3.9331,3.9214,3.7555,3.5778,3.5373,3.4945,3.4854,3.4901,3.5293,3.5644,3.5623,3.5718,3.589,3.5958,3.5943,3.5806,3.5533,3.531,3.506,3.4937,3.4624,3.4234,3.3804,3.3453,3.3161,4.5283,4.5307,4.5343,4.5359,4.5359,4.5356,4.5346,4.5364,4.537,4.537,4.5369,4.537,4.5097,4.4695,4.4633,4.4116,4.3264,4.2704,4.1882,4.0812,4.0382,4.032,4.032,4.032,4.032,4.032,4.032,4.032,4.0282,3.9771,3.9484,3.9336,3.8629,3.8171,3.8113,3.7383,3.6944,3.6823,3.6219,3.5825,3.576,3.5627,3.5292,3.4857,3.4855,3.463,3.4248,3.5311,3.5375,3.4458,3.4214,3.4217,3.4217,3.4178,3.4471,3.488,3.5016,3.4841,3.4705,3.4686,3.4882,3.5076,3.5193,3.5564,3.6265,3.648,3.6949,3.8101,3.8727,3.9371,4.019,4.0718,4.0542,3.9704,3.9605,3.9372,3.9137,3.9585,4.0229,4.0855,4.103,4.1108,4.1108,4.1108,4.1108,4.1108,4.1108,4.1108,4.1011,4.0581,4.0796,4.0523,3.8903,3.7634,3.7027,3.6497,3.5965,3.5683,3.5537,3.5617,3.5601,3.5798,3.5995,3.5974,3.5966,3.5947,3.5697,3.5726,3.5607,3.5557,3.5411,3.5189,3.4798,3.4702,3.435,4.5283,4.5283,4.5283,4.5307,4.5307,4.5288,4.5312,4.5307,4.5288,4.5307,4.5307,4.5312,4.5293,4.5279,4.5211,4.4794,4.418,4.3885,4.312,4.181,4.0936,4.0458,4.032,4.032,4.032,4.032,4.032,4.032,4.0301,4.0225,4.0282,4.0115,3.9446,3.9083,3.8911,3.8213,3.7769,3.7678,3.699,3.6574,3.6553,3.6004,3.5566,3.5506,3.5624,3.5643,3.549,3.5614,3.5074,3.3804,3.3847,3.3916,3.3686,3.3571,3.3865,3.4021,3.367,3.4236,3.4647,3.4921,3.5174,3.5778,3.6012,3.6383,3.7027,3.7301,3.7946,3.9311,3.9624,4.0073,4.0796,4.1089,4.1011,4.1069,4.0816,4.0797,4.1031,4.0991,4.0991,4.105,4.1108,4.1108,4.1108,4.1108,4.1108,4.1108,4.1108,4.1108,4.1089,4.0972,4.1069,4.0462,3.9639,3.9308,3.8661,3.7924,3.743,3.7268,3.6731,3.6185,3.5837,3.5919,3.6021,3.5994,3.5976,3.5967,3.5955,3.5928,3.5919,3.5814,3.5783,3.588,3.5741,3.5456,3.5215,4.5283,4.5283,4.5283,4.5283,4.5283,4.5283,4.5283,4.5283,4.5283,4.5283,4.5283,4.5283,4.5283,4.5283,4.5298,4.5159,4.4829,4.4332,4.3912,4.319,4.1796,4.086,4.0401,4.032,4.032,4.032,4.032,4.032,4.032,4.032,4.032,4.0282,4.0057,3.9924,3.9847,3.9064,3.8686,3.8534,3.7808,3.7383,3.7353,3.7194,3.6803,3.6266,3.6336,3.6093,3.5644,3.5654,3.5597,3.5196,3.5201,3.5247,3.515,3.5175,3.5149,3.5148,3.523,3.5368,3.5562,3.564,3.5797,3.6012,3.6656,3.7047,3.7262,3.7907,3.8708,3.9585,3.9799,4.0171,4.0894,4.1108,4.1108,4.1108,4.1108,4.1108,4.1108,4.1108,4.1108,4.1108,4.1108,4.1108,4.1108,4.1106,4.1106,4.1107,4.1106,4.1105,4.1102,4.1102,4.1098,4.1072,4.06,4.0564,4.0216,3.9443,3.8992,3.892,3.8255,3.7181,3.6603,3.6045,3.6051,3.6003,3.5994,3.5976,3.5992,3.5986,3.598,3.5953,3.5972,3.5947,3.5898,3.5721,3.5703,4.5283,4.5283,4.5283,4.5283,4.5283,4.5283,4.5283,4.5283,4.5283,4.5283,4.5283,4.5283,4.5283,4.5283,4.5283,4.5283,4.5225,4.4781,4.4355,4.3801,4.2636,4.1452,4.0592,4.032,4.032,4.032,4.032,4.032,4.032,4.032,4.032,4.0301,4.032,4.032,4.0244,3.9866,3.9522,3.9389,3.8725,3.8247,3.8247,3.7869,3.7496,3.7094,3.7067,3.6784,3.6121,3.5767,3.5634,3.5681,3.5764,3.5824,3.5824,3.5872,3.5915,3.5912,3.5942,3.6067,3.644,3.6505,3.6704,3.7037,3.7608,3.7985,3.8355,3.8863,3.943,4.0229,4.0327,4.0601,4.0952,4.1108,4.1108,4.1108,4.1108,4.1108,4.1108,4.1108,4.1108,4.1108,4.1103,4.1101,4.1106,4.1077,4.1071,4.1071,4.1063,4.1061,4.1079,4.1082,4.1061,4.103,4.1028,4.0894,4.0825,4.0249,3.9962,3.9968,3.9464,3.8405,3.7564,3.6717,3.6396,3.6346,3.616,3.6089,3.6211,3.621,3.6012,3.5991,3.6012,3.599,3.5944,3.5902,3.5907,4.5283,4.5283,4.5283,4.5283,4.5283,4.5283,4.5283,4.5283,4.5283,4.5283,4.5283,4.5283,4.5283,4.5283,4.5283,4.5283,4.5283,4.5187,4.4685,4.4011,4.3152,4.2178,4.0955,4.0649,4.0573,4.0516,4.0401,4.032,4.032,4.032,4.032,4.032,4.032,4.032,4.0301,4.0229,4.0301,4.0091,3.9503,3.914,3.9049,3.8591,3.8175,3.7882,3.7706,3.7471,3.6825,3.6294,3.5936,3.5962,3.5868,3.5927,3.59,3.5957,3.6163,3.6287,3.6433,3.6706,3.7179,3.7357,3.762,3.8185,3.8496,3.8995,3.9479,3.9771,4.0223,4.0868,4.1087,4.105,4.1069,4.1108,4.1108,4.1108,4.1108,4.1108,4.1108,4.1108,4.1108,4.1108,4.1111,4.1112,4.109,4.1057,4.1027,4.1048,4.1041,4.1037,4.1055,4.1035,4.1009,4.0973,4.0995,4.1024,4.1017,4.0973,4.088,4.0802,4.0326,3.9525,3.8731,3.7938,3.7249,3.6927,3.7124,3.7016,3.6773,3.662,3.6347,3.6152,3.6269,3.6132,3.5993,3.5955,3.5932,4.5283,4.5283,4.5283,4.5283,4.5283,4.5283,4.5283,4.5283,4.5283,4.5283,4.5283,4.5283,4.5283,4.5283,4.5283,4.5283,4.5283,4.5239,4.4819,4.4064,4.3873,4.3228,4.2235,4.1667,4.1285,4.1151,4.0592,4.0344,4.0344,4.0358,4.032,4.032,4.032,4.032,4.032,4.032,4.032,4.0282,4.0072,3.9962,3.9943,3.9733,3.9298,3.8776,3.8214,3.7858,3.7686,3.7467,3.7386,3.7294,3.6978,3.6729,3.674,3.7259,3.7562,3.7611,3.7712,3.7897,3.8158,3.8227,3.8309,3.8645,3.9201,3.9531,3.9708,4.041,4.0808,4.1106,4.1099,4.1104,4.1085,4.1108,4.1106,4.1105,4.1105,4.1106,4.1108,4.1108,4.1108,4.1107,4.1104,4.1098,4.1105,4.1078,4.1057,4.1027,4.1018,4.1011,4.1008,4.1007,4.0992,4.0954,4.0962,4.0992,4.1026,4.1046,4.1061,4.1085,4.0764,4.0513,3.9719,3.9134,3.8443,3.8231,3.8309,3.8033,3.7481,3.7271,3.7059,3.6806,3.6535,3.6364,3.6249,3.6112,3.5957,4.5283,4.5283,4.5283,4.5283,4.5283,4.5283,4.5283,4.5283,4.5283,4.5283,4.5283,4.5283,4.5283,4.5283,4.5283,4.5283,4.5283,4.5283,4.5073,4.4685,4.4609,4.438,4.3921,4.31,4.2526,4.2087,4.1266,4.0903,4.0807,4.0497,4.032,4.032,4.032,4.032,4.032,4.032,4.032,4.032,4.032,4.032,4.032,4.0306,4.0171,3.9554,3.8895,3.8458,3.8461,3.8024,3.7912,3.7917,3.7915,3.7714,3.7429,3.7803,3.813,3.8208,3.8304,3.8615,3.8867,3.9096,3.9275,3.9625,4.0126,4.0243,4.0375,4.0814,4.0995,4.1057,4.1048,4.1059,4.1041,4.1058,4.1063,4.1071,4.1066,4.1064,4.1094,4.1103,4.1104,4.1098,4.1112,4.1107,4.1098,4.1064,4.1063,4.1027,4.1011,4.1003,4.0962,4.0956,4.0959,4.0925,4.0927,4.0957,4.0993,4.1016,4.1027,4.1031,4.0957,4.0854,4.0527,4.0067,3.9612,3.9383,3.9059,3.8585,3.8114,3.7944,3.7836,3.7684,3.7397,3.6896,3.6533,3.6421,3.6188,4.5283,4.5283,4.5283,4.5283,4.5283,4.5283,4.5283,4.5283,4.5283,4.5283,4.5283,4.5283,4.5283,4.5283,4.5283,4.5283,4.5283,4.5283,4.5187,4.5168,4.5149,4.5092,4.4862,4.436,4.3825,4.3119,4.2183,4.1729,4.1304,4.0864,4.0535,4.0377,4.032,4.032,4.032,4.032,4.032,4.032,4.032,4.032,4.032,4.0325,4.0248,4.0065,3.9671,3.931,3.9187,3.8788,3.8367,3.8309,3.8918,3.8821,3.8442,3.8254,3.8316,3.8468,3.8754,3.9178,3.9672,3.9914,4.0232,4.0981,4.1004,4.1011,4.0977,4.0961,4.1003,4.0997,4.1001,4.1001,4.0992,4.1001,4.103,4.1059,4.1027,4.1046,4.1065,4.109,4.1085,4.1075,4.1068,4.1063,4.1052,4.1036,4.1045,4.1048,4.101,4.097,4.0947,4.0925,4.0928,4.0917,4.092,4.0941,4.0998,4.1007,4.1,4.1015,4.1016,4.101,4.1016,4.07,4.0228,3.9907,3.9541,3.9201,3.8984,3.8859,3.8751,3.8596,3.8179,3.7626,3.7189,3.6769,3.6554,4.5283,4.5283,4.5283,4.5283,4.5283,4.5283,4.5283,4.5283,4.5283,4.5283,4.5283,4.5283,4.5283,4.5283,4.5283,4.5283,4.5283,4.5283,4.5283,4.5283,4.5283,4.5283,4.5201,4.5048,4.4862,4.4518,4.3443,4.2393,4.1781,4.1347,4.0993,4.0497,4.0377,4.0377,4.0325,4.032,4.032,4.032,4.032,4.032,4.032,4.031,4.031,4.0295,4.0055,4.002,4.0043,3.9952,3.9895,3.9929,4.0046,3.997,3.975,3.9763,3.9824,3.9846,3.9897,4.0085,4.0372,4.0548,4.0731,4.0947,4.1013,4.1013,4.1007,4.1064,4.1076,4.1149,4.1143,4.1106,4.099,4.1236,4.1086,4.1073,4.1206,4.1164,4.1115,4.112,4.1085,4.1033,4.1031,4.1013,4.1002,4.1013,4.102,4.1,4.0985,4.0984,4.098,4.0943,4.0928,4.0919,4.0893,4.0941,4.099,4.0994,4.0991,4.0992,4.0998,4.1025,4.102,4.101,4.0748,4.0391,4.0379,4.0363,4.0129,3.9817,3.965,3.9503,3.8949,3.8355,3.8017,3.7695,3.7405,4.5283,4.5283,4.5283,4.5283,4.5283,4.5283,4.5283,4.5283,4.5283,4.5283,4.5283,4.5283,4.5283,4.5283,4.5283,4.5283,4.5283,4.5283,4.5283,4.5283,4.5283,4.5283,4.5283,4.5283,4.5283,4.5092,4.4404,4.3577,4.2808,4.2354,4.1724,4.1113,4.0922,4.0731,4.0382,4.032,4.0344,4.0344,4.032,4.032,4.031,4.0324,4.0314,4.0324,4.0309,4.0308,4.0304,4.0324,4.0304,4.0281,4.0296,4.0325,4.032,4.0333,4.0372,4.0415,4.0489,4.0563,4.0646,4.0697,4.0769,4.0856,4.0926,4.0922,4.0947,4.1003,4.1257,4.1652,4.2172,4.2287,4.2363,4.2231,4.2284,4.2296,4.2251,4.2035,4.1789,4.1646,4.1449,4.1219,4.1126,4.111,4.0997,4.0991,4.0993,4.0966,4.0955,4.0956,4.0976,4.0969,4.0941,4.0912,4.0888,4.0921,4.0945,4.095,4.0956,4.0976,4.0968,4.0997,4.0999,4.0979,4.0968,4.0821,4.0956,4.1003,4.0869,4.0416,4.0412,4.0308,3.9691,3.9154,3.8917,3.8635,3.8365,4.524,4.5283,4.5283,4.5283,4.5283,4.5283,4.5283,4.5283,4.5283,4.5283,4.5283,4.5283,4.5283,4.5283,4.5283,4.5283,4.5283,4.5283,4.5283,4.5283,4.5283,4.5283,4.5283,4.5283,4.5283,4.5264,4.5168,4.4838,4.384,4.3286,4.2598,4.1991,4.1748,4.1476,4.1031,4.0821,4.0611,4.0497,4.0344,4.032,4.0315,4.0324,4.0314,4.031,4.0309,4.0309,4.0315,4.031,4.031,4.031,4.0325,4.032,4.032,4.032,4.0324,4.0326,4.0401,4.045,4.0551,4.0877,4.1076,4.1161,4.1287,4.1364,4.1429,4.1704,4.1803,4.2484,4.2972,4.3316,4.3234,4.3401,4.3398,4.3369,4.3323,4.3268,4.2749,4.2443,4.2252,4.1941,4.1531,4.1278,4.1198,4.0958,4.0939,4.0962,4.095,4.0928,4.0952,4.0956,4.0947,4.0914,4.0888,4.0888,4.0917,4.0919,4.0926,4.0915,4.0922,4.0926,4.0928,4.0945,4.0937,4.0939,4.0939,4.0964,4.0968,4.0995,4.0795,4.0552,4.0247,4.0007,3.9832,3.9649,3.9401,4.5028,4.5297,4.5277,4.5283,4.5283,4.5283,4.5283,4.5283,4.5283,4.5283,4.5283,4.5283,4.5283,4.5283,4.5283,4.5283,4.5283,4.5283,4.5283,4.5283,4.5283,4.5283,4.5283,4.5283,4.5283,4.5283,4.5283,4.48,4.426,4.3954,4.3438,4.2794,4.2622,4.2526,4.2144,4.1628,4.1361,4.1246,4.0707,4.0358,4.0363,4.0353,4.032,4.031,4.0315,4.032,4.031,4.032,4.032,4.032,4.032,4.032,4.032,4.032,4.032,4.031,4.0326,4.0362,4.0614,4.122,4.1676,4.1877,4.2336,4.2842,4.2723,4.2798,4.2999,4.3277,4.3559,4.3704,4.3777,4.3617,4.3547,4.3663,4.3847,4.3714,4.3382,4.3357,4.3144,4.2852,4.2523,4.1872,4.1504,4.1174,4.09,4.0924,4.0945,4.0984,4.0928,4.093,4.093,4.0914,4.0888,4.0888,4.0888,4.0888,4.0946,4.0927,4.0927,4.0927,4.0895,4.0921,4.0897,4.0902,4.092,4.0932,4.0962,4.0972,4.098,4.0855,4.0576,4.0667,4.0818,4.0596,4.0235,4.4604,4.5028,4.523,4.5283,4.5283,4.5283,4.5283,4.5283,4.5283,4.5283,4.5283,4.5283,4.5283,4.5283,4.5283,4.5283,4.5283,4.5283,4.5283,4.5283,4.5283,4.5283,4.5283,4.5283,4.5283,4.5283,4.5283,4.5187,4.4762,4.4609,4.4303,4.3591,4.3438,4.3176,4.3023,4.2469,4.2278,4.2011,4.1495,4.1036,4.0869,4.0582,4.0338,4.0348,4.0367,4.0382,4.0387,4.032,4.032,4.032,4.032,4.0554,4.086,4.1055,4.117,4.1743,4.1743,4.1552,4.1244,4.1922,4.2288,4.2494,4.2857,4.2998,4.3203,4.3631,4.3927,4.3995,4.4487,4.4672,4.4659,4.4747,4.4792,4.4791,4.4608,4.4411,4.4289,4.4226,4.4093,4.3799,4.3508,4.2983,4.2575,4.252,4.2311,4.2099,4.1849,4.1519,4.1245,4.0912,4.0912,4.091,4.0888,4.0888,4.0888,4.0907,4.1024,4.1043,4.1024,4.1005,4.0907,4.0888,4.0927,4.0927,4.0919,4.093,4.0961,4.0962,4.0982,4.0964,4.0947,4.0963,4.0976,4.0886,4.0635,4.4279,4.4714,4.504,4.523,4.5283,4.5283,4.5283,4.5283,4.5283,4.5283,4.5283,4.5283,4.5283,4.5283,4.5283,4.5283,4.5283,4.5283,4.5283,4.5283,4.5283,4.5283,4.5283,4.5283,4.5283,4.5283,4.5283,4.5225,4.5264,4.5187,4.4876,4.4336,4.4341,4.4074,4.3577,4.3214,4.3004,4.2622,4.2144,4.1858,4.1729,4.1299,4.1079,4.0998,4.0945,4.0921,4.0922,4.0993,4.1012,4.1051,4.1089,4.1414,4.1762,4.1877,4.2049,4.2545,4.2741,4.2761,4.2546,4.279,4.3049,4.322,4.3481,4.3844,4.3948,4.4387,4.4706,4.4731,4.5163,4.5527,4.5667,4.5611,4.5525,4.5559,4.5657,4.544,4.5196,4.5046,4.4984,4.487,4.4637,4.4462,4.4171,4.4151,4.3899,4.3449,4.2906,4.2248,4.1837,4.1446,4.1604,4.1779,4.1818,4.1837,4.1779,4.1643,4.1527,4.1391,4.1391,4.1507,4.1684,4.1315,4.1065,4.1024,4.1102,4.0912,4.0926,4.0956,4.0982,4.0986,4.0968,4.097,4.0974,4.092,4.0896,4.4173,4.4464,4.4726,4.5017,4.5277,4.5283,4.5297,4.5251,4.5262,4.5272,4.5283,4.5283,4.5283,4.5283,4.5283,4.5283,4.5283,4.5283,4.5283,4.5283,4.5283,4.5283,4.5283,4.5283,4.5283,4.5283,4.5283,4.5283,4.5283,4.5283,4.5244,4.5206,4.4991,4.5092,4.4781,4.4169,4.3668,4.3271,4.2832,4.2717,4.2679,4.2498,4.2398,4.2436,4.2531,4.2603,4.2579,4.2393,4.2316,4.2297,4.2254,4.2407,4.2617,4.2698,4.287,4.3252,4.3692,4.3763,4.3782,4.3787,4.3883,4.416,4.4488,4.4878,4.4981,4.5212,4.5458,4.5394,4.5544,4.5618,4.5669,4.5684,4.5644,4.57,4.5749,4.5694,4.5557,4.5723,4.568,4.5783,4.563,4.528,4.5222,4.5086,4.4831,4.4365,4.3821,4.3161,4.2983,4.2709,4.2884,4.3042,4.3119,4.3158,4.3197,4.3003,4.2595,4.2517,4.2537,4.2711,4.2925,4.2364,4.1704,4.1607,4.1723,4.1296,4.0987,4.1269,4.1351,4.1097,4.0986,4.098,4.0982,4.0937,4.0913,4.3884,4.4147,4.4265,4.4694,4.5272,4.5087,4.4981,4.4986,4.5005,4.5115,4.5283,4.5283,4.5283,4.5283,4.5283,4.5283,4.5283,4.5283,4.5283,4.5283,4.5283,4.5283,4.5283,4.5283,4.5283,4.5283,4.5283,4.5283,4.5283,4.5283,4.5283,4.5283,4.5283,4.5283,4.5086,4.4934,4.4571,4.4246,4.3806,4.3553,4.3438,4.3004,4.2794,4.2794,4.2794,4.2794,4.2756,4.2775,4.2775,4.2832,4.287,4.3152,4.3496,4.3534,4.3763,4.4112,4.4571,4.4685,4.4743,4.4762,4.48,4.4843,4.5121,4.5364,4.5476,4.539,4.5404,4.5429,4.5467,4.549,4.5453,4.5453,4.5443,4.5547,4.5617,4.5669,4.5754,4.5873,4.5933,4.5847,4.59,4.5805,4.5827,4.5885,4.5572,4.522,4.4656,4.4171,4.3954,4.3799,4.3896,4.3935,4.3954,4.3857,4.3857,4.3702,4.3547,4.3624,4.3683,4.3702,4.376,4.3372,4.2808,4.2653,4.2575,4.2517,4.233,4.1992,4.1704,4.1361,4.1126,4.0956,4.096,4.0955,4.0945,4.3699,4.3989,4.3997,4.4386,4.4959,4.4782,4.4695,4.4695,4.477,4.4981,4.5297,4.5283,4.5283,4.5283,4.5283,4.5283,4.5283,4.5283,4.5283,4.5283,4.5283,4.5283,4.5283,4.5283,4.5283,4.5283,4.5283,4.5283,4.5283,4.5283,4.5283,4.5283,4.5283,4.5283,4.5283,4.5283,4.5283,4.5105,4.48,4.4393,4.4303,4.3921,4.364,4.3654,4.3711,4.3711,4.3754,4.3792,4.373,4.3711,4.3749,4.3921,4.4202,4.447,4.4723,4.5048,4.5283,4.5283,4.5283,4.5283,4.5283,4.5206,4.5225,4.5302,4.5283,4.5283,4.5319,4.5309,4.5298,4.5283,4.5283,4.5324,4.5355,4.5443,4.5521,4.5584,4.5611,4.5706,4.5799,4.5841,4.5904,4.5961,4.5999,4.5999,4.5863,4.565,4.5416,4.5028,4.4889,4.4734,4.4656,4.4656,4.4617,4.4481,4.4326,4.4501,4.4676,4.4734,4.4715,4.4462,4.4345,4.4071,4.3916,4.3743,4.3724,4.3877,4.3493,4.284,4.2185,4.1593,4.1334,4.1073,4.1003,4.0998,4.0993,4.3691,4.3989,4.3989,4.414,4.4397,4.443,4.4404,4.4431,4.4663,4.4946,4.523,4.5281,4.5283,4.5283,4.5283,4.5283,4.5283,4.5283,4.5283,4.5283,4.5283,4.5283,4.5283,4.5283,4.5283,4.5283,4.5283,4.5283,4.5283,4.5283,4.5283,4.5283,4.5283,4.5283,4.5283,4.5283,4.5283,4.5283,4.5225,4.5149,4.5073,4.492,4.4843,4.4824,4.4805,4.4748,4.4729,4.4748,4.4709,4.4729,4.4786,4.4895,4.501,4.5067,4.5163,4.5258,4.5283,4.5283,4.5283,4.5283,4.5283,4.5283,4.5283,4.5283,4.5283,4.5283,4.5283,4.5283,4.5283,4.5283,4.5283,4.5283,4.5298,4.5339,4.5434,4.5471,4.5504,4.5583,4.5688,4.5752,4.5831,4.5912,4.5958,4.5999,4.5999,4.5944,4.5963,4.5844,4.5611,4.5475,4.53,4.5261,4.5222,4.5222,4.5183,4.5572,4.5785,4.5844,4.565,4.5261,4.5242,4.5261,4.5067,4.4814,4.4795,4.487,4.4248,4.3527,4.2971,4.2408,4.1554,4.1204,4.1132,4.1048,4.105,4.3556,4.3647,4.3666,4.3722,4.3841,4.4053,4.4136,4.4177,4.4423,4.4688,4.4969,4.5178,4.5283,4.5283,4.5283,4.5283,4.5283,4.5283,4.5283,4.5283,4.5283,4.5283,4.5283,4.5283,4.5283,4.5283,4.5283,4.5283,4.5283,4.5283,4.5283,4.5283,4.5283,4.5283,4.5283,4.5283,4.5283,4.5283,4.5283,4.5283,4.5283,4.5283,4.5283,4.5283,4.5283,4.5283,4.5283,4.5283,4.5283,4.5283,4.5283,4.5283,4.5283,4.5283,4.5283,4.5283,4.5283,4.5283,4.5283,4.5283,4.5283,4.5283,4.5283,4.5283,4.5283,4.5283,4.5283,4.5283,4.5283,4.5283,4.5283,4.5283,4.5288,4.5293,4.5336,4.5336,4.5386,4.5487,4.5581,4.5609,4.5677,4.5819,4.589,4.5961,4.5978,4.5997,4.5982,4.5982,4.5824,4.5824,4.5747,4.5766,4.5766,4.5866,4.5982,4.5982,4.5982,4.5921,4.5902,4.5785,4.5905,4.5982,4.5846,4.5397,4.563,4.5785,4.5103,4.4462,4.3904,4.326,4.2581,4.1995,4.1881,4.1546,4.1084,4.3488,4.3488,4.3488,4.3488,4.354,4.374,4.3868,4.4025,4.4275,4.4546,4.4831,4.5156,4.5283,4.5283,4.5283,4.5283,4.5283,4.5283,4.5283,4.5283,4.5283,4.5283,4.5283,4.5283,4.5283,4.5283,4.5283,4.5283,4.5283,4.5283,4.5283,4.5283,4.5283,4.5283,4.5283,4.5283,4.5283,4.5283,4.5283,4.5283,4.5283,4.5283,4.5283,4.5283,4.5283,4.5283,4.5283,4.5283,4.5283,4.5283,4.5283,4.5283,4.5283,4.5283,4.5283,4.5283,4.5283,4.5283,4.5283,4.5283,4.5283,4.5283,4.5283,4.5283,4.5283,4.5283,4.5283,4.5283,4.5283,4.5283,4.5283,4.5283,4.5283,4.5283,4.5288,4.5293,4.5305,4.5434,4.5475,4.5503,4.5556,4.5696,4.5837,4.5915,4.5969,4.5978,4.5982,4.5999,4.5999,4.5982,4.5982,4.5982,4.5982,4.5982,4.5982,4.5982,4.5982,4.5982,4.5982,4.5982,4.5982,4.5982,4.5982,4.5982,4.5963,4.5902,4.5863,4.5419,4.4875,4.4375,4.3863,4.3315,4.2838,4.222,4.1622,4.3488,4.3488,4.3488,4.3488,4.3488,4.3522,4.3699,4.3986,4.4265,4.4506,4.477,4.5087,4.524,4.5281,4.5291,4.5283,4.5283,4.5283,4.5283,4.5283,4.5283,4.5283,4.5283,4.5283,4.5283,4.5283,4.5283,4.5283,4.5283,4.5283,4.5283,4.5283,4.5283,4.5283,4.5283,4.5283,4.5283,4.5283,4.5283,4.5283,4.5283,4.5283,4.5283,4.5283,4.5283,4.5283,4.5283,4.5283,4.5283,4.5283,4.5283,4.5283,4.5283,4.5283,4.5283,4.5283,4.5283,4.5283,4.5283,4.5283,4.5283,4.5283,4.5283,4.5283,4.5283,4.5283,4.5283,4.5283,4.5283,4.5283,4.5283,4.5283,4.5283,4.5283,4.5283,4.5283,4.5283,4.535,4.538,4.5429,4.549,4.5614,4.5757,4.5854,4.588,4.5958,4.5961,4.5986,4.5989,4.5982,4.5982,4.5982,4.5982,4.5982,4.5982,4.5982,4.5982,4.5982,4.5982,4.5982,4.5982,4.5982,4.5982,4.5982,4.5982,4.5963,4.5921,4.5921,4.5827,4.5346,4.4807,4.4322,4.3751,4.3054,4.2566,4.3488,4.3488,4.3488,4.3488,4.3488,4.3488,4.3556,4.3682,4.3968,4.4221,4.4402,4.4776,4.5047,4.5159,4.5265,4.5291,4.5283,4.5283,4.5283,4.5283,4.5283,4.5283,4.5283,4.5283,4.5283,4.5283,4.5283,4.5283,4.5283,4.5283,4.5283,4.5283,4.5283,4.5283,4.5283,4.5283,4.5283,4.5283,4.5283,4.5283,4.5283,4.5283,4.5283,4.5283,4.5283,4.5283,4.5283,4.5283,4.5283,4.5283,4.5283,4.5283,4.5283,4.5283,4.5283,4.5283,4.5283,4.5283,4.5283,4.5283,4.5283,4.5283,4.5283,4.5283,4.5283,4.5283,4.5283,4.5283,4.5283,4.5283,4.5283,4.5283,4.5283,4.5283,4.5283,4.5283,4.5283,4.5293,4.5345,4.5365,4.5434,4.5508,4.5664,4.5731,4.5771,4.5877,4.5931,4.5955,4.5989,4.5983,4.5982,4.5982,4.5982,4.5982,4.5982,4.5982,4.5982,4.5982,4.5982,4.5982,4.5982,4.5982,4.5982,4.5982,4.5982,4.5982,4.5982,4.5982,4.5982,4.5982,4.5538,4.5108,4.4644,4.4006,4.3454,4.3488,4.3488,4.3471,4.3446,4.3393,4.3393,4.341,4.3523,4.3828,4.4079,4.4243,4.4624,4.491,4.512,4.5224,4.5283,4.5283,4.5283,4.5283,4.5283,4.5283,4.5283,4.5283,4.5283,4.5283,4.5283,4.5283,4.5283,4.5283,4.5283,4.5283,4.5283,4.5283,4.5283,4.5283,4.5283,4.5283,4.5283,4.5283,4.5283,4.5283,4.5283,4.5283,4.5283,4.5283,4.5283,4.5283,4.5283,4.5283,4.5283,4.5283,4.5283,4.5283,4.5283,4.5283,4.5283,4.5283,4.5283,4.5283,4.5283,4.5283,4.5283,4.5283,4.5283,4.5283,4.5283,4.5283,4.5283,4.5283,4.5283,4.5283,4.5283,4.5283,4.5283,4.5283,4.5283,4.5283,4.5283,4.5312,4.5323,4.5365,4.5424,4.5498,4.5565,4.5648,4.5746,4.5819,4.5833,4.5886,4.5953,4.5983,4.5982,4.5982,4.5982,4.5982,4.5982,4.5982,4.5982,4.5982,4.5982,4.5982,4.5982,4.5982,4.5982,4.5982,4.5982,4.5982,4.5982,4.5982,4.5982,4.5982,4.565,4.5339,4.5113,4.4633,4.3488,4.3462,4.3429,4.3304,4.3224,4.3224,4.3277,4.3447,4.3765,4.4025,4.4192,4.4539,4.4758,4.4906,4.5095,4.5184,4.5224,4.524,4.5283,4.5283,4.5283,4.5283,4.5283,4.5283,4.5283,4.5283,4.5283,4.5283,4.5283,4.5283,4.5283,4.5283,4.5283,4.5283,4.5283,4.5283,4.5283,4.5283,4.5283,4.5283,4.5283,4.5283,4.5283,4.5283,4.5283,4.5283,4.5283,4.5283,4.5283,4.5283,4.5283,4.5283,4.5283,4.5283,4.5283,4.5283,4.5283,4.5283,4.5283,4.5283,4.5283,4.5283,4.5283,4.5283,4.5283,4.5283,4.5283,4.5283,4.5283,4.5283,4.5283,4.5283,4.5283,4.5283,4.5283,4.5283,4.5283,4.5283,4.5302,4.5307,4.5309,4.5366,4.5429,4.5485,4.554,4.5624,4.5673,4.5704,4.5764,4.5877,4.5926,4.5944,4.5974,4.5974,4.5982,4.5982,4.5982,4.5982,4.5974,4.5982,4.5982,4.5982,4.5982,4.5982,4.5982,4.5982,4.5982,4.5982,4.5982,4.5982,4.5982,4.5982,4.5885,4.573,4.5572,4.3463,4.3411,4.3286,4.3224,4.3205,4.3205,4.3269,4.3385,4.349,4.3676,4.3878,4.4019,4.4224,4.451,4.4814,4.4934,4.4981,4.5137,4.5262,4.5283,4.5283,4.5283,4.5283,4.5283,4.5283,4.5283,4.5283,4.5283,4.5283,4.5283,4.5283,4.5283,4.5283,4.5283,4.5283,4.5283,4.5283,4.5283,4.5283,4.5283,4.5283,4.5283,4.5283,4.5283,4.5283,4.5283,4.5283,4.5283,4.5283,4.5283,4.5283,4.5283,4.5283,4.5283,4.5283,4.5283,4.5283,4.5283,4.5283,4.5283,4.5283,4.5283,4.5283,4.5283,4.5283,4.5283,4.5283,4.5283,4.5283,4.5283,4.5283,4.5283,4.5283,4.5283,4.5283,4.5283,4.5283,4.5283,4.5283,4.5283,4.5283,4.5309,4.5369,4.539,4.5419,4.5476,4.5531,4.558,4.5664,4.5746,4.58,4.5861,4.5947,4.5964,4.5986,4.5944,4.5922,4.5936,4.5936,4.5953,4.5977,4.5982,4.5982,4.5982,4.5982,4.5982,4.5982,4.5982,4.5982,4.5982,4.5982,4.5982,4.6004,4.589,4.5927,4.3454,4.3385,4.3224,4.3123,4.3068,4.3068,4.3142,4.326,4.3269,4.3403,4.3635,4.3804,4.3988,4.4199,4.4499,4.4714,4.4782,4.4975,4.5143,4.5251,4.5283,4.5283,4.5283,4.5283,4.5283,4.5283,4.5283,4.5283,4.5283,4.5283,4.5283,4.5283,4.5283,4.5283,4.5283,4.5283,4.5283,4.5283,4.5283,4.5283,4.5283,4.5283,4.5283,4.5283,4.5283,4.5283,4.5283,4.5283,4.5283,4.5283,4.5283,4.5283,4.5283,4.5283,4.5283,4.5283,4.5283,4.5283,4.5283,4.5283,4.5283,4.5283,4.5283,4.5283,4.5283,4.5283,4.5283,4.5283,4.5283,4.5283,4.5283,4.5283,4.5283,4.5283,4.5283,4.5283,4.5283,4.5283,4.5283,4.5283,4.5283,4.5288,4.5333,4.5338,4.536,4.5365,4.5395,4.5415,4.5508,4.5605,4.5668,4.5727,4.5798,4.5889,4.594,4.5883,4.5818,4.5841,4.588,4.5919,4.5942,4.5969,4.5982,4.5982,4.5982,4.5982,4.5982,4.5982,4.5982,4.5982,4.5982,4.5982,4.6007,4.6034,4.6022,4.3446,4.3341,4.3142,4.3003,4.2901,4.2919,4.2994,4.3105,4.3132,4.3242,4.3455,4.3773,4.4002,4.4117,4.4289,4.4513,4.4701,4.4837,4.5023,4.5235,4.5277,4.5283,4.5283,4.5283,4.5283,4.5283,4.5283,4.5283,4.5283,4.5283,4.5283,4.5283,4.5283,4.5283,4.5283,4.5283,4.5283,4.5283,4.5283,4.5283,4.5283,4.5283,4.5283,4.5283,4.5283,4.5283,4.5283,4.5283,4.5283,4.5283,4.5283,4.5283,4.5283,4.5283,4.5283,4.5283,4.5283,4.5283,4.5283,4.5283,4.5283,4.5283,4.5283,4.5283,4.5283,4.5283,4.5283,4.5283,4.5283,4.5283,4.5283,4.5283,4.5283,4.5283,4.5283,4.5283,4.5283,4.5283,4.5283,4.5283,4.5283,4.5283,4.5283,4.5283,4.5283,4.5283,4.5283,4.5283,4.5319,4.541,4.5499,4.5531,4.5563,4.5692,4.5826,4.58,4.5738,4.5757,4.5784,4.5851,4.5904,4.5947,4.5972,4.5982,4.5982,4.5997,4.5999,4.5982,4.5982,4.5982,4.5982,4.6002,4.6012,4.6022,4.6066,4.3305,4.3141,4.3003,4.2929,4.291,4.291,4.3003,4.316,4.3178,4.3295,4.3454,4.3523,4.3605,4.3647,4.3944,4.4217,4.4533,4.4676,4.4994,4.5256,4.5277,4.5283,4.5283,4.5283,4.5283,4.5283,4.5283,4.5283,4.5283,4.5283,4.5283,4.5283,4.5283,4.5283,4.5283,4.5283,4.5283,4.5283,4.5283,4.5283,4.5283,4.5283,4.5283,4.5283,4.5283,4.5283,4.5283,4.5283,4.5283,4.5283,4.5283,4.5283,4.5283,4.5283,4.5283,4.5283,4.5283,4.5283,4.5283,4.5283,4.5283,4.5283,4.5283,4.5283,4.5283,4.5283,4.5283,4.5283,4.5283,4.5283,4.5283,4.5283,4.5283,4.5283,4.5283,4.5283,4.5283,4.5283,4.5283,4.5283,4.5283,4.5283,4.5283,4.5283,4.5283,4.5283,4.5283,4.5283,4.5283,4.5314,4.535,4.538,4.539,4.5507,4.5673,4.5688,4.5653,4.5665,4.5688,4.573,4.5798,4.5912,4.5946,4.5983,4.5994,4.5989,4.5994,4.5982,4.5982,4.5982,4.5982,4.6004,4.6015,4.6056,4.6104]}]]